[[{"header":{"parameterUnit":"m.s-1","parameterCategory":1,"la1":30.6,"la2":28.766,"lo1":-90.7593,"lo2":-88.6598,"dy":0.0162,"dx":0.0183,"nx":116,"ny":114,"refTime":"2024-04-01T00:00:00:Z","depth":0,"parameterNumber":2,"parameterNumberName":"U-component_of_WINDS"},"data":[0.0,0.0,0.0,0.0,0.0,0.0,0.0,0.0,0.0,0.0,0.0,0.0,0.0,0.0,0.0,0.0,0.0,0.0,0.0,0.0,0.0,0.0,0.0,0.0,0.0,0.0,0.0,0.0,0.0,0.0,0.0,0.0,0.0,0.0,0.0,0.0,0.0,0.0,0.0,0.0,0.0,0.0,0.0,0.0,0.0,0.0,0.0,0.0,0.0,0.0,0.0,0.0,0.0,0.0,0.0,0.0,0.0,0.0,0.0,0.0,0.0,0.0,0.0,0.0,0.0,0.0,0.0,0.0,0.0,0.0,0.0,0.0,0.0,0.0,0.0,0.0,0.0,0.0,0.0,0.0,0.0,0.0,0.0,0.0,0.0,0.0,0.0,0.0,0.0,0.0,0.0,0.0,0.0,0.0,0.0,0.0,0.0,0.0,0.0,0.0,0.0,0.0,0.0,0.0,0.0,0.0,0.0,0.0,0.0,0.0,0.0,0.0,0.0,0.0,0.0,0.0,0.0,0.0,0.0,0.0,0.0,0.0,0.0,0.0,0.0,0.0,0.0,0.0,0.0,0.0,0.0,0.0,0.0,0.0,0.0,0.0,0.0,0.0,0.0,0.0,0.0,0.0,0.0,0.0,0.0,0.0,0.0,0.0,0.0,0.0,0.0,0.0,0.0,0.0,0.0,0.0,0.0,0.0,0.0,0.0,0.0,0.0,0.0,0.0,0.0,0.0,0.0,0.0,0.0,0.0,0.0,0.0,0.0,0.0,0.0,0.0,0.0,0.0,0.0,0.0,0.0,0.0,0.0,0.0,0.0,0.0,0.0,0.0,0.0,0.0,0.0,0.0,0.0,0.0,0.0,0.0,0.0,0.0,0.0,0.0,0.0,0.0,0.0,0.0,0.0,0.0,0.0,0.0,0.0,0.0,0.0,0.0,0.0,0.0,0.0,0.0,0.0,0.0,0.0,0.0,0.0,0.0,0.0,0.0,0.0,0.0,0.0,0.0,0.0,0.0,0.0,0.0,0.0,0.0,0.0,0.0,0.0,0.0,0.0,0.0,0.0,0.0,0.0,0.0,0.0,0.0,0.0,0.0,0.0,0.0,0.0,0.0,0.0,0.0,0.0,0.0,0.0,0.0,0.0,0.0,0.0,0.0,0.0,0.0,0.0,0.0,0.0,0.0,0.0,0.0,0.0,0.0,0.0,0.0,0.0,0.0,0.0,0.0,0.0,0.0,0.0,0.0,0.0,0.0,0.0,0.0,0.0,0.0,0.0,0.0,0.0,0.0,0.0,0.0,0.0,0.0,0.0,0.0,0.0,0.0,0.0,0.0,0.0,0.0,0.0,0.0,0.0,0.0,0.0,0.0,0.0,0.0,0.0,0.0,0.0,0.0,0.0,0.0,0.0,0.0,0.0,0.0,0.0,0.0,0.0,0.0,0.0,0.0,0.0,0.0,0.0,0.0,0.0,0.0,0.0,0.0,0.0,0.0,0.0,0.0,0.0,0.0,0.0,0.0,0.0,0.0,0.0,0.0,0.0,0.0,0.0,0.0,0.0,0.0,0.0,0.0,0.0,0.0,0.0,0.0,0.0,0.0,0.0,0.0,0.0,0.0,0.0,0.0,0.0,0.0,0.0,0.0,0.0,0.0,0.0,0.0,0.0,0.0,0.0,0.0,0.0,0.0,0.0,0.0,0.0,0.0,0.0,0.0,0.0,0.0,0.0,0.0,0.0,0.0,0.0,0.0,0.0,0.0,0.0,0.0,0.0,0.0,0.0,0.0,0.0,0.0,0.0,0.0,0.0,0.0,0.0,0.0,0.0,0.0,0.0,0.0,0.0,0.0,0.0,0.0,0.0,0.0,0.0,0.0,0.0,0.0,0.0,0.0,0.0,0.0,0.0,0.0,0.0,0.0,0.0,0.0,0.0,0.0,0.0,0.0,0.0,0.0,0.0,0.0,0.0,0.0,0.0,0.0,0.0,0.0,0.0,0.0,0.0,0.0,0.0,0.0,0.0,0.0,0.0,0.0,0.0,0.0,0.0,0.0,0.0,0.0,0.0,0.0,0.0,0.0,0.0,0.0,0.0,0.0,0.0,0.0,0.0,0.0,0.0,0.0,0.0,0.0,0.0,0.0,0.0,0.0,0.0,0.0,0.0,0.0,0.0,0.0,0.0,0.0,0.0,0.0,0.0,0.0,0.0,0.0,0.0,0.0,0.0,0.0,0.0,0.0,0.0,0.0,0.0,0.0,0.0,0.0,0.0,0.0,0.0,0.0,0.0,0.0,0.0,0.0,0.0,0.0,0.0,0.0,0.0,0.0,0.0,0.0,0.0,0.0,0.0,0.0,0.0,0.0,0.0,0.0,0.0,0.0,0.0,0.0,0.0,0.0,0.0,0.0,0.0,0.0,0.0,0.0,0.0,0.0,0.0,0.0,0.0,0.0,0.0,0.0,0.0,0.0,0.0,0.0,0.0,0.0,0.0,0.0,0.0,0.0,0.0,0.0,0.0,0.0,0.0,0.0,0.0,0.0,0.0,0.0,0.0,0.0,0.0,0.0,0.0,0.0,0.0,0.0,0.0,0.0,0.0,0.0,0.0,0.0,0.0,0.0,0.0,0.0,0.0,0.0,0.0,0.0,0.0,0.0,0.0,0.0,0.0,0.0,0.0,0.0,0.0,0.0,0.0,0.0,0.0,0.0,0.0,0.0,0.0,0.0,0.0,0.0,0.0,0.0,0.0,0.0,0.0,0.0,0.0,0.0,0.0,0.0,0.0,0.0,0.0,0.0,0.0,0.0,0.0,0.0,0.0,0.0,0.0,0.0,0.0,0.0,0.0,0.0,0.0,0.0,0.0,0.0,0.0,0.0,0.0,0.0,0.0,0.0,0.0,0.0,0.0,0.0,0.0,0.0,0.0,0.0,0.0,0.0,0.0,0.0,0.0,0.0,0.0,0.0,0.0,0.0,0.0,0.0,0.0,0.0,0.0,0.0,0.0,0.0,0.0,0.0,0.0,0.0,0.0,0.0,0.0,0.0,0.0,0.0,0.0,0.0,0.0,0.0,0.0,0.0,0.0,0.0,0.0,0.0,0.0,0.0,0.0,0.0,0.0,0.0,0.0,0.0,0.0,0.0,0.0,0.0,0.0,0.0,0.0,0.0,0.0,0.0,0.0,0.0,0.0,0.0,0.0,0.0,0.0,0.0,0.0,0.0,0.0,0.0,0.0,0.0,0.0,0.0,0.0,0.0,0.0,0.0,0.0,0.0,0.0,0.0,0.0,0.0,0.0,0.0,0.0,0.0,0.0,0.0,0.0,0.0,0.0,0.0,0.0,0.0,0.0,0.0,0.0,0.0,0.0,0.0,0.0,0.0,0.0,0.0,0.0,0.0,0.0,0.0,0.0,0.0,0.0,0.0,0.0,0.0,0.0,0.0,0.0,0.0,0.0,0.0,0.0,0.0,0.0,0.0,0.0,0.0,0.0,0.0,0.0,0.0,0.0,0.0,0.0,0.0,0.0,0.0,0.0,0.0,0.0,0.0,0.0,0.0,0.0,0.0,0.0,0.0,0.0,0.0,0.0,0.0,0.0,0.0,0.0,0.0,0.0,0.0,0.0,0.0,0.0,0.0,0.0,0.0,0.0,0.0,0.0,0.0,0.0,0.0,0.0,0.0,0.0,0.0,0.0,0.0,0.0,0.0,0.0,0.0,0.0,0.0,0.0,0.0,0.0,0.0,0.0,0.0,0.0,0.0,0.0,0.0,0.0,0.0,0.0,0.0,0.0,0.0,0.0,0.0,0.0,0.0,0.0,0.0,0.0,0.0,0.0,0.0,0.0,0.0,0.0,0.0,0.0,0.0,0.0,0.0,0.0,0.0,0.0,0.0,0.0,0.0,0.0,0.0,0.0,0.0,0.0,0.0,0.0,0.0,0.0,0.0,0.0,0.0,0.0,0.0,0.0,0.0,0.0,0.0,0.0,0.0,0.0,0.0,0.0,0.0,0.0,0.0,0.0,0.0,0.0,0.0,0.0,0.0,0.0,0.0,0.0,0.0,0.0,0.0,0.0,0.0,0.0,0.0,0.0,0.0,0.0,0.0,0.0,0.0,0.0,0.0,0.0,0.0,0.0,0.0,0.0,0.0,0.0,0.0,0.0,0.0,0.0,0.0,0.0,0.0,0.0,0.0,0.0,0.0,0.0,0.0,0.0,0.0,0.0,0.0,0.0,0.0,0.0,0.0,0.0,0.0,0.0,0.0,0.0,0.0,0.0,0.0,0.0,0.0,0.0,0.0,0.0,0.0,0.0,0.0,0.0,0.0,0.0,0.0,0.0,0.0,0.0,0.0,0.0,0.0,0.0,0.0,0.0,0.0,0.0,0.0,0.0,0.0,0.0,0.0,0.0,0.0,0.0,0.0,0.0,0.0,0.0,0.0,0.0,0.0,0.0,0.0,0.0,0.0,0.0,0.0,0.0,0.0,0.0,0.0,0.0,0.0,0.0,0.0,0.0,0.0,0.0,0.0,0.0,0.0,0.0,0.0,0.0,0.0,0.0,0.0,0.0,0.0,0.0,0.0,0.0,0.0,0.0,0.0,0.0,0.0,0.0,0.0,0.0,0.0,0.0,0.0,0.0,0.0,0.0,0.0,0.0,0.0,0.0,0.0,0.0,0.0,0.0,0.0,0.0,0.0,0.0,0.0,0.0,0.0,0.0,0.0,0.0,0.0,0.0,0.0,0.0,0.0,0.0,0.0,0.0,0.0,0.0,0.0,0.0,0.0,0.0,0.0,0.0,0.0,0.0,0.0,0.0,0.0,0.0,0.0,0.0,0.0,0.0,0.0,0.0,0.0,0.0,0.0,0.0,0.0,0.0,0.0,0.0,0.0,0.0,0.0,0.0,0.0,0.0,0.0,0.0,0.0,0.0,0.0,0.0,0.0,0.0,0.0,0.0,0.0,0.0,0.0,0.0,0.0,0.0,0.0,0.0,0.0,0.0,0.0,0.0,0.0,0.0,0.0,0.0,0.0,0.0,0.0,0.0,0.0,0.0,0.0,0.0,0.0,0.0,0.0,0.0,0.0,0.0,0.0,0.0,0.0,0.0,0.0,0.0,0.0,0.0,0.0,0.0,0.0,0.0,0.0,0.0,0.0,0.0,0.0,0.0,0.0,0.0,0.0,0.0,0.0,0.0,0.0,0.0,0.0,0.0,0.0,0.0,0.0,0.0,0.0,0.0,0.0,0.0,0.0,0.0,0.0,0.0,0.0,0.0,0.0,0.0,0.0,0.0,0.0,0.0,0.0,0.0,0.0,0.0,0.0,0.0,0.0,0.0,0.0,0.0,0.0,0.0,0.0,0.0,0.0,0.0,0.0,0.0,0.0,0.0,0.0,0.0,0.0,0.0,0.0,0.0,0.0,0.0,0.0,0.0,0.0,0.0,0.0,0.0,0.0,0.0,0.0,0.0,0.0,0.0,0.0,0.0,0.0,0.0,0.0,0.0,0.0,0.0,0.0,0.0,0.0,0.0,0.0,0.0,0.0,0.0,0.0,0.0,0.0,0.0,0.0,0.0,0.0,0.0,0.0,0.0,0.0,0.0,0.0,0.0,0.0,0.0,0.0,0.0,0.0,0.0,0.0,0.0,0.0,0.0,0.0,0.0,0.0,0.0,0.0,0.0,0.0,0.0,0.0,0.0,0.0,0.0,0.0,0.0,0.0,0.0,0.0,0.0,0.0,0.0,0.0,0.0,0.0,0.0,0.0,0.0,0.0,0.0,0.0,0.0,0.0,0.0,0.0,0.0,0.0,0.0,0.0,0.0,0.0,0.0,0.0,0.0,0.0,0.0,0.0,0.0,0.0,0.0,0.0,0.0,0.0,0.0,0.0,0.0,0.0,0.0,0.0,0.0,0.0,0.0,0.0,0.0,0.0,0.0,0.0,0.0,0.0,0.0,0.0,0.0,0.0,0.0,0.0,0.0,0.0,0.0,0.0,0.0,0.0,0.0,0.0,0.0,0.0,0.0,0.0,0.0,0.0,0.0,0.0,0.0,0.0,0.0,0.0,0.0,0.0,0.0,0.0,0.0,0.0,0.0,0.0,-4.7645,-4.7246,0.0,0.0,0.0,0.0,0.0,0.0,0.0,0.0,0.0,0.0,0.0,0.0,0.0,0.0,0.0,0.0,0.0,0.0,0.0,0.0,0.0,0.0,0.0,-3.8065,-3.9292,-3.9301,-3.9347,-3.9393,-3.9468,0.0,0.0,0.0,0.0,0.0,-3.7894,-3.7113,-3.6904,-3.7275,-3.7275,-3.8079,-3.9677,-3.9602,-3.8971,-3.7856,0.0,0.0,0.0,0.0,0.0,0.0,0.0,0.0,0.0,0.0,0.0,0.0,0.0,0.0,0.0,0.0,0.0,0.0,0.0,0.0,0.0,0.0,0.0,0.0,0.0,0.0,0.0,0.0,0.0,0.0,0.0,0.0,0.0,0.0,0.0,0.0,0.0,0.0,0.0,0.0,0.0,0.0,0.0,0.0,0.0,0.0,0.0,0.0,0.0,0.0,0.0,0.0,0.0,0.0,0.0,0.0,0.0,0.0,0.0,0.0,0.0,0.0,0.0,0.0,0.0,0.0,0.0,0.0,0.0,0.0,-4.8871,-4.8028,0.0,0.0,0.0,0.0,0.0,0.0,0.0,0.0,0.0,0.0,0.0,0.0,0.0,0.0,0.0,0.0,0.0,0.0,0.0,0.0,0.0,-3.6413,-3.6707,-3.8615,-4.0042,-4.0378,-4.0283,-4.0308,-4.0592,-3.9733,0.0,0.0,-3.8525,-3.8116,-3.8116,-3.7596,-3.7745,-3.8562,-3.912,-4.0531,-4.2686,-4.4172,-4.3429,-4.0791,-4.0197,0.0,0.0,0.0,0.0,0.0,0.0,0.0,0.0,0.0,0.0,0.0,0.0,0.0,0.0,0.0,0.0,0.0,0.0,0.0,0.0,0.0,0.0,0.0,0.0,0.0,0.0,0.0,0.0,0.0,0.0,0.0,0.0,0.0,0.0,0.0,0.0,0.0,0.0,0.0,0.0,0.0,0.0,0.0,0.0,0.0,0.0,0.0,0.0,0.0,0.0,0.0,0.0,0.0,0.0,0.0,0.0,0.0,0.0,0.0,0.0,0.0,0.0,0.0,-5.1517,-5.1594,-5.1594,-5.2337,-5.2655,-5.2539,-5.0287,-4.9126,-4.8778,-4.8052,0.0,0.0,0.0,0.0,0.0,0.0,0.0,0.0,0.0,0.0,0.0,0.0,0.0,0.0,0.0,0.0,0.0,0.0,0.0,-3.6817,-3.8248,-3.9276,-4.0467,-4.1862,-4.1456,-4.1425,-4.2142,-4.0948,-4.0234,-4.0234,-3.938,-3.8934,-3.8934,-3.9565,-4.0323,-4.1089,-4.3949,-4.5881,-4.6921,-4.785,-4.8036,-4.7478,-4.4618,-4.25,-4.1037,0.0,0.0,0.0,0.0,0.0,0.0,0.0,0.0,0.0,0.0,0.0,0.0,0.0,0.0,0.0,0.0,0.0,0.0,0.0,0.0,0.0,0.0,0.0,0.0,0.0,0.0,0.0,0.0,0.0,0.0,0.0,0.0,0.0,0.0,0.0,0.0,0.0,0.0,0.0,0.0,0.0,-4.8908,-5.0662,0.0,0.0,0.0,0.0,0.0,0.0,0.0,0.0,0.0,0.0,0.0,0.0,0.0,-5.1083,-5.1935,-5.1896,-5.2298,-5.3149,-5.3923,-5.4271,-5.4271,-5.4387,-5.4465,-5.4387,-5.3304,0.0,-5.055,-5.0434,0.0,0.0,0.0,0.0,0.0,0.0,0.0,0.0,0.0,0.0,0.0,0.0,0.0,0.0,0.0,0.0,0.0,0.0,0.0,0.0,0.0,-4.0891,-4.2393,-4.3603,-4.3517,-4.334,-4.3278,-4.2328,-4.1349,-4.0434,-4.0011,-3.9825,-3.9825,-4.0643,-4.2129,-4.4358,-4.7627,-4.9447,-4.9819,-5.1082,-5.1639,-5.1565,-4.967,-4.7181,-4.4283,-4.3272,0.0,0.0,0.0,0.0,0.0,0.0,0.0,0.0,0.0,0.0,0.0,0.0,0.0,0.0,0.0,0.0,0.0,0.0,0.0,0.0,0.0,0.0,0.0,0.0,0.0,0.0,0.0,0.0,0.0,0.0,0.0,0.0,0.0,0.0,0.0,0.0,0.0,0.0,0.0,-4.7796,-4.8995,-5.0759,-5.0503,-4.9952,0.0,0.0,0.0,0.0,0.0,0.0,0.0,0.0,0.0,-5.1928,-5.2761,-5.3831,-5.5157,-5.5134,-5.5552,-5.6443,-5.6822,-5.7008,-5.6983,-5.6983,-5.6695,-5.6167,-5.5818,-5.4658,-5.3033,-5.2028,-5.0906,-4.9745,0.0,0.0,0.0,0.0,-4.8122,-4.7797,0.0,0.0,0.0,0.0,0.0,0.0,0.0,0.0,0.0,0.0,0.0,0.0,-4.0598,-4.28,-4.456,-4.5606,-4.5805,-4.5688,-4.5144,-4.404,-4.2767,-4.1386,-4.094,-4.0806,-4.1029,-4.2426,-4.4766,-4.8073,-5.0711,-5.2234,-5.2679,-5.3868,-5.4426,-5.4426,-5.3831,-5.1379,-4.7664,-4.6234,-4.3857,-4.0812,0.0,0.0,0.0,0.0,0.0,0.0,0.0,0.0,0.0,0.0,0.0,0.0,0.0,0.0,0.0,0.0,0.0,0.0,0.0,0.0,0.0,0.0,0.0,0.0,0.0,0.0,0.0,0.0,0.0,0.0,0.0,0.0,0.0,0.0,0.0,0.0,0.0,-4.8577,-4.9388,-5.1121,-5.0748,-5.0382,0.0,0.0,0.0,0.0,0.0,0.0,-5.2065,-5.3074,-5.3966,-5.4594,-5.5433,-5.6512,-5.7753,-5.7738,-5.8041,-5.87,-5.8932,-5.9033,-5.9047,-5.9047,-5.8626,-5.7925,-5.7499,-5.6609,-5.5332,-5.3583,-5.2337,-5.1525,-5.0906,-5.0287,-4.9707,-4.9707,-4.9707,-4.9707,0.0,0.0,0.0,0.0,0.0,0.0,0.0,0.0,0.0,0.0,0.0,-4.0687,-4.3074,-4.4782,-4.6397,-4.7976,-4.8254,-4.8347,-4.8366,-4.6237,-4.4654,-4.3875,-4.2352,-4.1906,-4.2649,-4.5769,-4.9002,-5.2308,-5.3237,-5.45,-5.606,-5.6134,-5.6172,-5.6172,-5.6134,-5.4277,-5.099,-4.8363,-4.5853,-4.3414,-4.0751,0.0,0.0,0.0,0.0,0.0,0.0,0.0,0.0,0.0,0.0,0.0,0.0,0.0,0.0,0.0,0.0,0.0,0.0,0.0,0.0,0.0,0.0,0.0,0.0,0.0,0.0,0.0,0.0,0.0,0.0,0.0,0.0,0.0,0.0,0.0,0.0,0.0,0.0,-5.2019,-5.2204,0.0,0.0,0.0,0.0,-5.2284,-5.3028,-5.3883,-5.477,-5.6408,-5.734,-5.7418,-5.82,-5.8644,-5.8722,-5.8684,-5.8661,-5.87,-5.9561,-5.9948,-5.9948,-5.9948,-5.9877,-5.9672,-5.8092,-5.7357,-5.7116,-5.5371,-5.4155,-5.3382,-5.3304,-5.3265,-5.3227,-5.3227,-5.3227,-5.3227,0.0,0.0,0.0,0.0,0.0,-3.3954,-3.4491,-3.4821,-3.5775,-3.7991,-3.968,-4.1809,-4.4709,-4.6948,-4.8673,-4.9811,-5.0478,-5.019,-4.8698,-4.7901,-4.6433,-4.4098,-4.3986,-4.4581,-4.5918,-4.9187,-5.1676,-5.3385,-5.528,-5.6506,-5.71,-5.7621,-5.7843,-5.7843,-5.7286,-5.6432,-5.5112,-5.1991,-4.9233,-4.6702,-4.3594,-4.0993,0.0,0.0,0.0,0.0,0.0,0.0,0.0,0.0,0.0,0.0,0.0,0.0,0.0,0.0,0.0,0.0,0.0,0.0,0.0,0.0,0.0,0.0,0.0,0.0,0.0,0.0,0.0,0.0,0.0,0.0,0.0,0.0,0.0,0.0,0.0,0.0,0.0,-5.2976,-5.319,0.0,-5.3243,-5.3747,-5.4298,-5.4854,-5.5715,-5.6563,-5.7418,-5.804,-5.8622,-5.9205,-5.9502,-5.9922,-6.0466,-6.0451,-6.0444,-6.0444,-6.0745,-6.09,-6.091,-6.09,-6.0582,-6.0002,-5.9381,-5.8489,-5.7441,-5.6805,-5.5683,-5.4398,-5.4398,-5.4049,-5.3545,-5.3553,-5.3546,-5.3576,0.0,0.0,0.0,0.0,-3.3712,-3.4064,-3.4894,-3.5481,-3.6743,-3.9187,-4.1389,-4.3864,-4.6801,-4.9297,-5.0986,-5.1573,-5.2406,-5.1899,-4.9528,-4.9215,-4.7954,-4.5312,-4.605,-4.7404,-4.9299,-5.1751,-5.3683,-5.5057,-5.6692,-5.7658,-5.7918,-5.8475,-5.8698,-5.8698,-5.8141,-5.7918,-5.7749,-5.5218,-5.249,-4.9658,-4.6872,-4.4373,-4.2086,0.0,0.0,0.0,0.0,0.0,0.0,0.0,0.0,0.0,0.0,0.0,0.0,0.0,0.0,0.0,0.0,0.0,0.0,0.0,0.0,0.0,0.0,0.0,0.0,0.0,0.0,0.0,0.0,0.0,0.0,0.0,0.0,0.0,0.0,-5.1136,-5.2528,-5.4329,-5.4815,-5.5107,-5.5398,-5.5942,-5.6524,-5.7107,-5.7962,-5.8661,-5.9205,-5.9516,-5.995,-6.0507,-6.0546,-6.0825,-6.1415,-6.1401,-6.1401,-6.1415,-6.1441,-6.1415,-6.1415,-6.1445,-6.1139,-6.0577,-6.0254,-5.932,-5.7931,-5.7687,-5.6697,-5.539,-5.5359,-5.4989,-5.4491,-5.4481,-5.4498,-5.4451,0.0,0.0,0.0,-3.3587,-3.3748,-3.41,-3.4931,-3.645,-3.841,-4.0802,-4.3938,-4.6838,-4.9353,-5.1793,-5.3261,-5.3261,-5.3959,-5.345,-5.1069,-5.0265,-4.9233,-4.7787,-4.8541,-5.0153,-5.2568,-5.3497,-5.5094,-5.7509,-5.7546,-5.7955,-5.8698,-5.8698,-5.8698,-5.8698,-5.8698,-5.8698,-5.864,-5.7719,-5.5431,-5.2282,-5.0523,-4.7831,-4.4709,0.0,0.0,0.0,0.0,0.0,0.0,0.0,0.0,0.0,0.0,0.0,0.0,0.0,0.0,0.0,0.0,0.0,0.0,0.0,0.0,0.0,0.0,0.0,0.0,0.0,0.0,0.0,0.0,0.0,0.0,0.0,0.0,0.0,-5.0935,-5.256,-5.4301,-5.6044,-5.7048,-5.793,-5.8739,-5.8817,-5.8855,-5.8855,-5.9632,-6.0137,-6.0137,-6.0953,-6.1394,-6.1396,-6.1396,-6.1415,-6.1484,-6.1453,-6.1453,-6.1484,-6.1484,-6.1518,-6.1495,-6.1556,-6.1569,-6.1448,-6.0616,-5.972,-5.8839,-5.8078,-5.7198,-5.6397,-5.6258,-5.6245,-5.6302,-5.6233,-5.6206,-5.6192,0.0,0.0,-3.3553,-3.3573,-3.4174,-3.4968,-3.5826,-3.7331,-3.9239,-4.1662,-4.4268,-4.7058,-5.0141,-5.2637,-5.4069,-5.4069,-5.4803,-5.4259,-5.1936,-5.1686,-5.123,-5.0415,-5.1138,-5.2197,-5.346,-5.5466,-5.684,-5.7509,-5.8103,-5.8475,-5.8698,-5.8698,-5.8698,-5.8698,-5.8698,-5.8698,-5.8677,-5.8312,-5.7281,-5.566,-5.3269,-5.1049,-4.893,0.0,0.0,0.0,0.0,0.0,0.0,0.0,0.0,0.0,0.0,0.0,0.0,0.0,0.0,0.0,0.0,0.0,0.0,0.0,0.0,0.0,0.0,0.0,0.0,0.0,0.0,0.0,0.0,0.0,0.0,0.0,-4.9744,-5.0942,-5.1823,-5.3991,-5.5927,-5.7094,-5.7955,-5.8545,-5.8778,-5.936,-5.9749,-5.9749,-6.0565,-6.1031,-6.1031,-6.1257,-6.1394,-6.1396,-6.1396,-6.1415,-6.1484,-6.1472,-6.149,-6.1518,-6.1559,-6.156,-6.1563,-6.159,-6.1605,-6.1575,-6.1338,-6.0401,-5.9037,-5.8801,-5.7826,-5.6458,-5.6393,-5.6351,-5.6372,-5.6285,-5.6251,-5.6199,0.0,-3.3632,-3.4011,-3.4097,-3.4883,-3.5826,-3.667,-3.8175,-4.0084,-4.247,-4.5186,-4.8012,-5.0986,-5.3151,-5.4399,-5.4399,-5.484,-5.4237,-5.2169,-5.222,-5.234,-5.2345,-5.3162,-5.4166,-5.5317,-5.6766,-5.7695,-5.7992,-5.8475,-5.8698,-5.8698,-5.8698,-5.8698,-5.8698,-5.8698,-5.8656,-5.8614,-5.8508,-5.8119,-5.7493,-5.5911,-5.4096,-5.2123,-5.0472,-4.9116,-4.7868,-4.6337,-4.5554,-4.4955,-4.3472,0.0,0.0,0.0,0.0,0.0,0.0,0.0,0.0,0.0,0.0,0.0,0.0,0.0,0.0,0.0,0.0,0.0,0.0,0.0,0.0,0.0,0.0,0.0,0.0,-5.1276,-5.2521,-5.3758,-5.5564,-5.7222,-5.8506,-5.9399,-5.9904,-5.9904,-6.037,-6.0642,-6.0642,-6.1109,-6.1412,-6.1412,-6.1412,-6.1401,-6.1453,-6.1453,-6.1478,-6.1523,-6.1507,-6.1523,-6.1525,-6.156,-6.1605,-6.1647,-6.1627,-6.1637,-6.164,-6.164,-6.0663,-5.9101,-5.9101,-5.8085,-5.6521,0.0,0.0,0.0,0.0,-5.6339,-5.6245,-3.3245,-3.4123,-3.4863,-3.49,-3.5776,-3.667,-3.7382,-3.8961,-4.0855,-4.3221,-4.6287,-4.926,-5.172,-5.3371,-5.4252,-5.4252,-5.4252,-5.3702,-5.2364,-5.2458,-5.2966,-5.3916,-5.4813,-5.5986,-5.7472,-5.7583,-5.7992,-5.8698,-5.8698,-5.8698,-5.8698,-5.8698,-5.8698,-5.8698,-5.8677,-5.8614,-5.8471,-5.8437,-5.8305,-5.8215,-5.8042,-5.6675,-5.4509,-5.3078,-5.1997,-5.1083,-4.9768,-4.9178,-4.8863,-4.7502,0.0,0.0,0.0,0.0,0.0,0.0,0.0,0.0,0.0,0.0,0.0,0.0,0.0,0.0,0.0,0.0,0.0,0.0,0.0,0.0,0.0,0.0,0.0,0.0,-5.2746,-5.4495,-5.6231,-5.7254,-5.8355,-5.9904,-6.0875,-6.1412,-6.1412,-6.1412,-6.1412,-6.1412,-6.1412,-6.1412,-6.1412,-6.1412,0.0,0.0,0.0,-6.1507,-6.1598,-6.1539,-6.1515,-6.1599,-6.1588,-6.1632,-6.1709,-6.1718,-6.1717,-6.1708,-6.1713,-6.0697,-5.9091,-5.9096,-5.8121,-5.66,-5.6517,-5.6506,-5.6502,-5.6509,-5.6422,-5.6324,-3.4202,-3.5002,-3.57,-3.5775,-3.6618,-3.7309,-3.7492,-3.9423,-4.1515,-4.3294,-4.6287,-4.926,-5.172,-5.2858,-5.3424,-5.3424,-5.3424,-5.3597,-5.3976,-5.4158,-5.465,-5.5582,-5.652,-5.7175,-5.7509,-5.8141,-5.8549,-5.8698,-5.8698,-5.8698,-5.8698,-5.8698,-5.8698,-5.8677,-5.8593,-5.8513,-5.8508,-5.8312,-5.8201,-5.8215,-5.8042,-5.7336,-5.6308,-5.6014,-5.5058,-5.3937,-5.3645,-5.2803,-5.1695,-5.0767,-5.0005,-4.9002,-4.6364,-4.5658,0.0,0.0,0.0,0.0,0.0,0.0,0.0,0.0,0.0,0.0,0.0,0.0,0.0,0.0,0.0,0.0,0.0,0.0,0.0,-5.2787,-5.4568,-5.6311,-5.8054,-5.9061,-5.9703,-6.006,-6.0875,-6.1412,-6.1412,-6.1412,-6.1412,-6.1412,-6.1412,-6.1412,-6.1412,-6.1412,-6.1394,-6.1402,-6.1408,-6.1466,-6.154,-6.1523,-6.1549,-6.1616,-6.1595,0.0,-6.1709,-6.1719,-6.1713,-6.1699,-6.1694,-6.0714,-5.9111,-5.9113,-5.8107,-5.6596,-5.6601,-5.6595,-5.655,-5.654,-5.648,-5.6449,-3.5756,-3.6157,-3.6521,-3.6598,-3.7445,-3.8102,-3.8102,-3.9827,-4.1552,-4.2727,-4.57,-4.8323,-4.9958,-5.1279,-5.2013,-5.2013,-5.238,-5.3136,-5.4375,-5.4923,-5.5634,-5.6509,-5.7471,-5.8021,-5.8021,-5.8471,-5.8698,-5.8698,-5.8698,-5.8698,-5.8698,-5.8698,-5.8656,-5.8593,-5.8551,-5.8465,-5.8356,-5.8223,-5.8156,-5.8088,-5.802,-5.7776,-5.7373,-5.7036,-5.6463,-5.5797,-5.5517,-5.4694,-5.3643,-5.2846,-5.2085,-5.1045,-4.9002,-4.8036,-4.7293,0.0,0.0,0.0,0.0,0.0,0.0,0.0,0.0,0.0,0.0,0.0,0.0,0.0,0.0,-4.8044,-4.9359,0.0,-5.2787,-5.4591,-5.5978,-5.7404,-5.9209,-5.982,-6.0254,-6.072,-6.114,-6.1412,-6.1412,-6.1412,-6.1412,-6.1412,-6.1412,-6.1412,-6.1412,-6.1412,-6.1394,-6.1396,-6.1396,-6.1415,-6.1484,-6.1501,-6.1523,-6.1554,-6.1569,-6.1621,-6.1658,-6.1675,-6.1718,-6.1709,-6.1709,-6.0691,-5.9048,-5.8195,-5.7341,-5.6601,-5.6599,-5.6598,-5.6599,-5.6556,-5.6548,-5.6534,-3.7212,-3.7293,-3.7374,-3.7437,-3.8141,-3.8689,-3.8689,-3.9921,-4.1222,-4.2176,-4.4838,-4.7003,-4.7957,-4.926,-5.0141,-5.0288,-5.1059,-5.2344,-5.4252,-5.53,-5.6249,-5.7184,-5.8008,-5.8486,-5.8486,-5.8593,-5.8656,-5.8656,-5.8677,-5.8698,-5.8698,-5.8656,-5.8614,-5.8508,-5.8465,-5.8356,-5.8179,-5.8156,-5.8088,-5.7997,-5.7997,-5.7997,-5.7946,-5.7457,-5.7243,-5.7213,-5.6578,-5.5845,-5.505,-5.4275,-5.3497,-5.2568,-5.1119,-5.019,-4.9262,-4.7478,-4.611,0.0,0.0,0.0,0.0,0.0,0.0,0.0,0.0,0.0,-4.7486,-4.7711,-4.9018,-5.0402,-5.1478,-5.2917,-5.4528,-5.6157,-5.7265,-5.842,-5.9883,-6.0247,-6.0604,-6.1335,-6.1412,-6.1412,-6.1412,-6.1412,-6.1412,-6.1412,-6.1412,-6.1412,-6.1412,-6.1412,-6.1394,-6.1383,-6.1383,-6.1434,-6.146,-6.1472,-6.149,-6.1479,-6.1568,-6.158,-6.159,-6.1655,-6.1673,-6.164,-6.1328,-6.039,-5.8945,-5.7263,-5.6557,-5.6555,-5.6549,-5.6553,-5.656,-5.6598,-5.6597,-5.6594,0.0,-3.8178,-3.8255,-3.8271,-3.8507,-3.8689,-3.8689,-3.946,-4.0561,-4.2103,-4.3864,-4.5535,-4.7076,-4.7406,-4.781,-4.8526,-4.937,-5.1153,-5.4216,-5.53,-5.6506,-5.7994,-5.8312,-5.8415,-5.8415,-5.8486,-5.8513,-5.8513,-5.8635,-5.8698,-5.8677,-5.8593,-5.8492,-5.8471,-5.8312,-5.8201,-5.8179,-5.8065,-5.802,-5.7997,-5.7997,-5.7997,-5.802,-5.8172,-5.8223,-5.8134,-5.745,-5.6739,-5.6003,-5.5149,-5.4351,-5.3497,-5.2605,-5.2271,-5.1714,-4.9336,0.0,-4.8285,-4.6809,-4.6741,-4.7121,-4.7366,-4.7577,-4.7773,0.0,0.0,-4.952,-5.0292,-5.1222,-5.2414,-5.4078,-5.5122,-5.6068,-5.7116,-5.8637,-5.9809,-6.008,-6.0769,-6.1296,-6.1373,-6.1412,-6.1412,-6.1412,-6.1412,-6.1412,-6.1412,-6.1412,-6.1412,-6.1412,-6.1412,-6.1419,-6.1381,-6.1381,-6.1388,-6.1426,-6.1421,-6.1402,-6.1408,-6.1473,-6.1529,-6.1615,-6.1615,-6.1605,-6.1548,-6.003,-5.9249,-5.8892,-5.7202,-5.6487,-5.6436,-5.6422,-5.6419,-5.6428,-5.6546,-5.6596,-5.6599,0.0,-3.8287,-3.8417,-3.8417,-3.858,-3.8689,-3.8689,-3.9386,-4.0304,-4.1442,-4.302,-4.4452,-4.5572,-4.6122,-4.6911,-4.8196,-4.9077,-5.0969,-5.4179,-5.5236,-5.6397,-5.8015,-5.8201,-5.8282,-5.8282,-5.8415,-5.8422,-5.8422,-5.8523,-5.8545,-5.8523,-5.848,-5.84,-5.8312,-5.8223,-5.8133,-5.8065,-5.802,-5.7997,-5.7997,-5.7997,-5.7997,-5.7946,-5.7752,-5.7359,-5.6937,-5.6772,-5.5909,0.0,-5.3868,-5.3088,-5.2345,-5.2011,-5.1565,-5.0933,-4.9893,-4.9013,0.0,-4.7348,-4.7365,-4.7705,0.0,-4.8911,-4.9732,-4.9798,-5.0866,-5.1965,-5.2351,-5.3103,-5.3923,-5.4658,-5.5857,-5.7065,0.0,-5.9155,-6.0118,-6.0724,-6.1097,-6.1352,-6.1412,-6.1412,-6.1412,-6.1412,-6.1412,-6.1412,-6.1412,-6.1412,-6.1412,-6.1412,-6.1412,-6.1412,-6.1412,-6.1412,-6.1412,-6.1412,-6.1394,-6.1401,-6.1401,-6.1415,-6.1462,-6.1539,-6.1539,-6.1526,-6.1467,-5.9719,-5.8971,-5.8796,-5.7108,-5.6359,-5.6347,-5.6338,-5.6333,-5.6347,-5.6472,-5.6538,-5.6548,0.0,-3.8287,-3.8417,-3.8417,-3.858,-3.8689,-3.8689,-3.9203,-3.9937,-4.0948,-4.2103,-4.324,-4.4268,-4.4892,-4.5883,-4.7498,-4.8416,-5.0288,-5.3518,-5.4693,-5.5978,-5.7593,-5.7978,-5.8133,-5.8133,-5.8282,-5.8349,-5.8349,-5.8371,-5.8393,-5.8393,-5.8371,-5.8305,-5.8179,-5.8156,-5.8088,-5.7997,-5.7997,-5.7997,-5.7997,-5.7997,-5.7886,-5.7616,-5.725,-5.6304,-5.5274,-5.5535,-5.4537,-5.3014,-5.2197,-5.1379,-5.0711,-5.0711,-5.0302,-4.9745,-4.9522,-4.8712,-4.7932,-4.7998,-4.8188,-4.8487,-4.9038,-5.0198,-5.1258,-5.1548,-5.2763,-5.3846,-5.3846,-5.4542,-5.5122,-5.5122,-5.6321,-5.7607,-5.854,-5.9362,-6.0248,-6.1174,-6.1314,-6.1337,-6.1373,-6.1412,-6.1412,-6.1412,-6.1412,-6.1412,-6.1412,-6.1412,-6.1412,-6.1412,-6.1412,-6.1412,-6.1412,-6.1412,-6.1412,-6.1412,-6.1412,-6.1412,-6.1412,-6.1408,-6.1441,-6.1472,-6.1456,-6.1462,-6.1379,-5.9627,-5.8871,-5.8725,-5.6975,-5.6269,-5.6257,-5.6257,-5.6257,-5.6275,-5.6386,-5.6443,-5.6475,0.0,0.0,-3.8417,-3.8417,-3.858,-3.8689,-3.8689,-3.8726,-3.9313,-4.0875,-4.1132,-4.1772,-4.3351,-4.3551,-4.4195,-4.581,-4.6709,-4.8544,-5.1867,-5.3555,-5.517,-5.6785,-5.7593,-5.7997,-5.7997,-5.8133,-5.8215,-5.8215,-5.8349,-5.8393,-5.8393,-5.8282,-5.8179,-5.8179,-5.8065,-5.7997,-5.7997,-5.7997,-5.7997,-5.7997,-5.7997,-5.7519,-5.6881,-5.7029,-5.5639,-5.3592,-5.3791,-5.2828,-5.1342,-5.0488,-4.9633,-4.8964,-4.8964,-4.8964,0.0,-4.7999,-4.7986,-4.8386,-4.9456,-5.0023,-5.057,-5.1626,-5.2005,-5.2376,-5.3227,-5.4116,-5.4774,-5.4774,-5.5393,-5.5973,-5.5973,-5.6699,-5.7598,-5.8458,-5.9344,-6.024,-6.1181,-6.1299,-6.1337,-6.1373,-6.1412,-6.1412,0.0,-6.1412,-6.1412,-6.1412,-6.1412,-6.1412,-6.1412,-6.1412,-6.1412,-6.1412,-6.1412,-6.1412,-6.1412,-6.1412,-6.1412,-6.1412,-6.1412,-6.1401,-6.1396,-6.1402,-6.1383,-6.131,-5.9561,-5.8803,-5.869,-5.6904,-5.6185,-5.6187,-5.6187,-5.6187,-5.6194,-5.6278,-5.6358,-5.6422,0.0,0.0,0.0,0.0,0.0,-4.0288,-4.0288,-3.9827,-4.0084,-4.1699,-4.2359,0.0,0.0,0.0,0.0,0.0,-4.6305,-4.8049,-5.0271,-5.2417,-5.4326,-5.5941,-5.6785,-5.7446,-5.7997,-5.8042,-5.8065,-5.8065,-5.8111,-5.8133,-5.8111,-5.8088,-5.8065,-5.8065,-5.802,-5.7997,-5.7997,-5.7997,-5.7997,-5.796,-5.7409,-5.7042,-5.6661,-5.5223,-5.3534,-5.1671,0.0,-4.941,-4.8742,-4.7367,-4.6735,-4.6513,-4.6513,-4.6884,-4.7367,-4.7627,-4.7884,-4.8421,-5.0011,-5.0719,-5.1276,-5.2374,-5.3234,-5.3885,-5.422,-5.4981,-5.5586,-5.5586,-5.5818,-5.6012,-5.6012,-5.6699,-5.7396,-5.7675,-5.8961,-6.0003,-6.0317,-6.0901,-6.1105,-6.0592,-6.0544,0.0,0.0,0.0,-6.1412,-6.1412,-6.1412,-6.1412,-6.1412,-6.1412,-6.1412,-6.1412,-6.1412,-6.1412,-6.1412,-6.1412,-6.1412,-6.1412,-6.1352,-6.1344,-6.132,-6.1306,-6.1275,-6.1181,-5.9404,-5.8651,-5.8518,-5.6776,-5.607,-5.6054,-5.6054,-5.6054,-5.6062,-5.6157,-5.6213,-5.6281,0.0,0.0,0.0,0.0,0.0,0.0,0.0,0.0,0.0,0.0,0.0,0.0,0.0,0.0,0.0,0.0,0.0,-4.7095,-4.9003,-5.0875,-5.2747,-5.4656,-5.55,-5.6308,-5.7116,-5.7152,-5.7152,-5.7152,-5.7152,-5.7152,-5.7152,-5.7152,-5.7152,-5.7152,-5.7152,-5.7152,-5.7152,-5.7152,-5.7152,-5.7079,-5.6271,-5.5794,-5.5302,-5.338,-5.1615,0.0,-4.7633,-4.6624,-4.6215,-4.5175,-4.4618,-4.4469,-4.4729,-4.5398,-4.6215,-4.7033,-4.7814,-4.8824,-5.0372,-5.1291,-5.2056,-5.3142,-5.3979,-5.466,-5.5055,-5.5564,-5.5909,-5.5617,-5.5586,-5.547,-5.5161,-5.5818,-5.6506,-5.6777,-5.8294,-5.955,-5.9865,-6.0674,-6.1095,-6.0593,-6.0546,-6.0296,0.0,0.0,0.0,-6.0946,-6.1218,-6.1412,-6.1412,-6.1412,-6.1412,-6.1412,-6.1412,-6.1412,-6.1412,-6.1412,-6.1405,-6.1359,-6.1329,-6.1306,-6.1275,-6.1217,-6.1018,-6.0661,-5.9241,-5.841,-5.8023,-5.6592,-5.602,-5.6029,-5.6029,-5.6046,-5.6062,-5.611,-5.6163,-5.6239,0.0,0.0,0.0,0.0,0.0,0.0,0.0,0.0,0.0,0.0,0.0,0.0,0.0,0.0,0.0,0.0,0.0,0.0,-4.8049,-4.9003,-5.0582,-5.2968,-5.3849,-5.4656,-5.5486,-5.5464,-5.5464,-5.5464,-5.5464,-5.5464,-5.5464,-5.5464,-5.5464,-5.5464,-5.5464,-5.5464,-5.5464,-5.5464,-5.5464,-5.539,-5.4546,-5.3775,-5.2915,-5.1463,-4.9879,-4.8199,-4.5984,-4.4655,-4.3949,0.0,0.0,0.0,-4.3801,-4.4655,-4.5509,-4.6364,-4.7884,-4.9546,-5.062,-5.1798,-5.2972,-5.4,-5.4402,-5.4775,-5.5692,-5.5895,-5.5709,-5.4951,-5.4766,-5.4465,0.0,0.0,-5.5006,-5.5818,-5.7404,-5.8854,-5.971,-6.0601,-6.1208,0.0,0.0,0.0,0.0,0.0,0.0,-6.0169,-6.0907,-6.1412,-6.1412,-6.1412,-6.1412,-6.1412,-6.1412,-6.1412,-6.1412,-6.1412,-6.1359,-6.1283,-6.1314,-6.1267,-6.1182,-6.1182,-6.0738,-5.9841,-5.899,-5.8101,-5.725,-5.636,-5.6037,-5.6125,-5.6125,-5.6149,-5.6194,-5.6192,-5.6272,-5.6304,0.0,0.0,0.0,0.0,0.0,0.0,0.0,0.0,0.0,0.0,0.0,0.0,0.0,0.0,0.0,0.0,0.0,0.0,-4.6471,-4.7829,-4.9481,-5.1353,-5.2197,-5.3004,-5.3812,-5.3812,-5.3812,-5.3812,-5.3812,-5.3812,-5.3812,-5.3812,-5.3812,-5.3812,-5.3812,-5.3812,-5.3812,-5.3812,-5.3812,-5.3702,-5.227,-5.161,-5.1169,-4.9084,-4.7647,-4.6611,-4.4881,-4.3754,0.0,0.0,0.0,0.0,0.0,-4.5509,-4.6475,-4.7887,-4.8695,-4.9612,-5.1815,-5.2784,-5.3398,-5.4524,-5.4944,-5.5181,-5.5516,-5.5192,-5.4795,-5.4689,-5.4155,-5.3688,0.0,0.0,0.0,-5.4967,-5.6515,0.0,-5.8815,-6.0235,0.0,-6.0317,0.0,-6.0095,-5.9444,-5.9948,0.0,-6.0049,-6.0878,-6.1412,-6.1412,-6.1412,-6.1412,-6.1412,-6.1412,-6.1412,-6.1412,-6.1352,-6.1329,-6.1283,-6.125,-6.1208,-6.1182,-6.1146,-6.0663,-5.9841,-5.899,-5.8118,-5.7293,-5.6449,-5.6102,-5.617,-5.617,-5.6213,-5.6265,-5.6278,-5.6314,-5.6363,0.0,0.0,0.0,0.0,0.0,0.0,0.0,0.0,0.0,0.0,0.0,0.0,0.0,0.0,0.0,0.0,0.0,0.0,0.0,-4.7259,-4.8526,-5.0178,-5.0712,-5.1316,-5.2123,-5.216,-5.1977,-5.161,-5.161,-5.1426,-5.1059,-5.1059,-5.1059,-5.1059,-5.1059,-5.1059,-5.1059,-5.1059,-5.1059,0.0,0.0,-4.9187,-4.8967,-4.6948,-4.597,-4.5466,-4.3939,0.0,0.0,0.0,0.0,-4.4766,-4.5992,-4.6921,-4.7813,-4.9076,0.0,-5.0999,-5.2537,-5.3341,-5.3892,-5.464,-5.4962,-5.5042,-5.4829,-5.4503,-5.409,-5.3532,-5.3079,0.0,-5.242,-5.2677,0.0,0.0,0.0,0.0,-5.8488,-6.0101,-6.0961,0.0,-6.0446,0.0,-5.9822,-6.0256,-6.0536,-6.0561,-6.1066,-6.1368,-6.1368,-6.1368,-6.1368,-6.1368,-6.1368,-6.1368,-6.1368,-6.1306,-6.1283,-6.1267,-6.1234,-6.1247,-6.1182,-6.1182,-6.0708,-5.9839,-5.9026,-5.8183,-5.7318,-5.6443,-5.6163,-5.6253,-5.6239,-5.6292,-5.6339,-5.6354,-5.6381,-5.6449,0.0,0.0,0.0,0.0,0.0,0.0,0.0,0.0,0.0,0.0,-4.5626,-4.6324,0.0,0.0,0.0,0.0,0.0,0.0,0.0,0.0,-4.7792,-4.9353,-4.9427,-4.9738,-5.0435,-5.0472,-5.0068,-4.928,-4.928,-4.882,-4.7976,-4.7976,-4.7976,-4.7976,-4.7976,-4.7976,-4.7976,-4.7976,-4.7976,-4.7902,-4.7113,-4.6782,-4.6654,0.0,-4.4884,-4.4855,0.0,0.0,0.0,0.0,-4.5695,-4.603,-4.7404,-4.8481,-4.941,-5.0265,-5.1563,-5.2715,-5.2972,-5.3636,-5.4317,-5.4517,-5.4601,-5.448,-5.3946,-5.3811,-5.3395,-5.2113,0.0,-5.1708,-5.1026,-5.1539,-5.2337,-5.3343,0.0,-5.7366,-5.8449,-5.9957,-6.0963,-6.1079,-6.1118,-6.1137,-6.1173,-6.1173,-6.1199,-6.1281,-6.1281,-6.1289,-6.1297,-6.1297,-6.1297,-6.1297,-6.1297,-6.1297,-6.1297,-6.1297,-6.1272,-6.1182,-6.1272,-6.1264,-6.1191,-6.1281,-6.0769,-5.9874,-5.9177,-5.8286,-5.7326,-5.6591,-5.6297,-5.6325,-5.63,-5.6347,-5.6425,-5.6404,-5.6455,-5.6506,0.0,0.0,0.0,0.0,0.0,0.0,0.0,0.0,0.0,0.0,-4.6819,-4.6966,0.0,0.0,0.0,0.0,0.0,0.0,0.0,0.0,0.0,-4.8489,-4.8526,-4.86,-4.8746,-4.8746,-4.8343,-4.7516,-4.7516,-4.7131,-4.6324,-4.6324,-4.6324,-4.6324,-4.6324,-4.6324,-4.6324,-4.6324,-4.6324,-4.625,-4.5443,-4.5131,-4.5095,-4.4819,0.0,0.0,0.0,0.0,0.0,0.0,-4.7738,-4.8333,-4.8593,-4.9745,-5.1119,-5.1936,-5.2401,-5.281,-5.3572,-5.3925,-5.4091,-5.4354,-5.4,-5.3579,-5.3631,-5.2791,0.0,0.0,-5.1298,-5.093,-5.0902,-5.1029,-5.1641,-5.3227,0.0,0.0,0.0,0.0,-6.0344,0.0,0.0,0.0,0.0,-6.1127,0.0,0.0,-6.1146,-6.1182,-6.1297,-6.1297,-6.1297,-6.1297,-6.1297,-6.1297,-6.1297,-6.1255,-6.1191,-6.1182,-6.1191,-6.1191,-6.1191,-6.1281,-6.0769,-5.9874,-5.9758,-5.8806,-5.7405,-5.7295,-5.6926,-5.6378,-5.6372,-5.6418,-5.6461,-5.6464,-5.6506,-5.6509,0.0,0.0,0.0,0.0,0.0,0.0,0.0,-4.6966,-4.7846,-4.8306,-4.8746,-4.869,-4.781,-4.8489,-4.8636,0.0,0.0,0.0,0.0,0.0,0.0,0.0,0.0,0.0,-4.8306,-4.8306,-4.7883,-4.7113,0.0,-4.6452,-4.5296,-4.5296,-4.5039,-4.4635,-4.4635,-4.4635,-4.4635,-4.4635,-4.4635,-4.4635,-4.4709,-4.4691,-4.4728,0.0,0.0,0.0,0.0,0.0,0.0,0.0,-4.8519,-4.9596,-5.0079,-5.1045,-5.2197,-5.2977,-5.3237,-5.3311,-5.3777,-5.3907,-5.3963,-5.418,-5.3686,-5.301,-5.2386,0.0,0.0,0.0,-4.9894,-5.0112,-5.0207,0.0,0.0,0.0,0.0,0.0,0.0,0.0,0.0,0.0,0.0,0.0,0.0,-6.1118,-6.1118,-6.1118,-6.1118,-6.1137,-6.1182,-6.1191,-6.1191,-6.1191,-6.1191,-6.1191,-6.1191,-6.1164,-6.1146,-6.1155,-6.1199,-6.1264,-6.1264,-6.133,-6.1097,-6.0605,-6.0148,-5.9498,-5.87,-5.7846,-5.7327,-5.7016,-5.6636,-5.6482,-5.6509,-5.6516,-5.6514,-5.6506,0.0,0.0,0.0,0.0,0.0,0.0,-4.7113,-4.8343,-4.937,-5.0178,-5.1206,-5.1206,-4.9554,-4.9481,-4.9317,0.0,0.0,0.0,0.0,0.0,0.0,0.0,0.0,0.0,0.0,0.0,0.0,-4.7113,-4.7113,0.0,0.0,0.0,0.0,0.0,-4.3754,-4.3644,-4.3515,-4.3515,-4.3515,0.0,0.0,-4.4691,0.0,0.0,0.0,0.0,0.0,0.0,0.0,0.0,-4.8927,-5.0228,-5.0896,-5.1676,-5.2494,-5.3311,-5.3534,-5.3571,-5.3757,-5.3794,-5.3795,-5.3831,-5.3302,-5.2407,-5.1028,-5.0274,0.0,0.0,-4.875,-4.9504,-4.9589,0.0,-5.1177,0.0,0.0,0.0,0.0,0.0,0.0,0.0,0.0,0.0,0.0,-6.1118,0.0,-6.1118,-6.1118,-6.1118,-6.1118,-6.1118,-6.1118,-6.1118,-6.1118,-6.1118,-6.1118,-6.1118,-6.1118,-6.1118,-6.1208,-6.1281,-6.1289,-6.1361,-6.1353,-6.1242,-6.0553,-6.0165,-5.9885,-5.8583,-5.8014,-5.7853,-5.726,-5.7021,-5.7001,-5.6818,-5.6731,-5.6709,0.0,0.0,0.0,0.0,0.0,0.0,-4.7939,-5.0178,-5.194,-5.2747,-5.4216,-5.4546,-5.2931,-5.0839,-4.9574,0.0,0.0,0.0,0.0,0.0,0.0,0.0,0.0,0.0,0.0,0.0,0.0,-4.7113,-4.7113,0.0,0.0,0.0,0.0,0.0,0.0,-4.4195,-4.3515,-4.3515,0.0,0.0,0.0,0.0,0.0,0.0,0.0,0.0,0.0,0.0,0.0,0.0,0.0,-5.0116,-5.019,-5.0822,-5.1676,-5.2457,0.0,0.0,-5.3608,-5.3794,-5.3683,-5.3141,-5.2476,-5.1625,-5.0212,0.0,0.0,-4.8081,-4.874,-4.95,-4.9597,-5.0294,-5.1177,0.0,0.0,-5.3304,0.0,0.0,0.0,0.0,0.0,0.0,0.0,-6.1118,-6.1118,-6.1118,-6.1118,-6.1118,-6.1118,-6.1118,-6.1118,-6.1118,-6.1118,-6.1118,-6.1118,-6.1118,-6.1118,-6.1118,-6.1164,-6.1191,-6.1191,-6.1289,-6.1281,-6.1191,-6.1113,-6.0648,-5.9882,-5.9809,-5.9347,-5.8686,-5.867,-5.8705,-5.865,-5.7875,-5.7532,-5.7375,0.0,0.0,0.0,0.0,0.0,0.0,-4.9481,-5.0655,-5.1756,-5.3041,-5.4179,-5.4436,-5.3314,-5.2344,-5.1169,-4.9721,0.0,0.0,0.0,0.0,0.0,0.0,0.0,0.0,0.0,0.0,-4.8159,-4.781,-4.781,0.0,0.0,0.0,0.0,0.0,0.0,-4.4525,-4.4195,-4.3718,0.0,0.0,0.0,0.0,0.0,0.0,0.0,0.0,0.0,0.0,0.0,0.0,0.0,0.0,-4.8816,-4.9224,0.0,0.0,-5.2234,-5.2679,-5.2977,-5.3423,-5.3646,-5.2957,-5.2295,-5.1448,-5.0046,0.0,-4.8754,-4.8163,-4.8825,-4.9525,-4.9629,-5.0349,-5.1014,-5.137,-5.1873,0.0,0.0,0.0,0.0,0.0,0.0,0.0,0.0,0.0,-6.1118,-6.1118,-6.1118,-6.1118,-6.1118,-6.1118,-6.1118,-6.1118,-6.1118,-6.1118,-6.1118,-6.1118,-6.1118,-6.1118,-6.1164,-6.1182,-6.1191,-6.1281,-6.1272,-6.1182,-6.1182,-6.0988,-6.0648,-6.0204,-5.9854,-5.9536,-5.9099,-5.8937,-5.8904,-5.8498,-5.8348,-5.8189,0.0,0.0,0.0,0.0,0.0,-4.7846,-5.0105,-5.0655,-5.1389,-5.2983,-5.3922,-5.4179,-5.3628,-5.3314,-5.2344,-5.0141,-4.9187,0.0,0.0,0.0,0.0,0.0,0.0,0.0,0.0,0.0,-4.8416,-4.8673,-4.8673,-4.8379,0.0,0.0,-4.7278,-4.625,0.0,0.0,0.0,0.0,0.0,0.0,0.0,0.0,0.0,0.0,0.0,0.0,0.0,0.0,0.0,0.0,0.0,0.0,0.0,0.0,0.0,0.0,-5.1231,-5.1974,-5.2457,-5.3014,-5.3256,-5.253,-5.2074,-5.1378,0.0,0.0,-4.8754,-4.8222,-4.887,-4.955,-4.9691,-5.0357,-5.0898,-5.0898,0.0,-5.2414,-5.4155,0.0,0.0,0.0,0.0,-5.9996,0.0,-6.077,-6.1118,-6.1118,-6.1118,-6.1118,-6.1118,-6.1118,-6.1118,-6.1118,-6.1118,-6.1118,-6.1118,-6.1118,-6.1118,-6.1118,-6.1146,-6.1164,-6.1164,-6.1208,-6.1199,-6.1164,-6.1164,-6.1164,-6.1134,-6.0597,-6.0375,-6.0359,-5.9801,-5.9594,-5.9549,-5.9257,-5.9145,-5.8986,0.0,0.0,0.0,0.0,0.0,-4.7663,-4.9353,-5.0288,-5.1389,-5.2983,-5.3922,-5.4399,-5.4399,-5.3702,-5.2543,-5.0949,-5.0031,0.0,0.0,0.0,0.0,0.0,0.0,0.0,0.0,0.0,-4.871,-4.961,-4.961,-4.9574,-4.9574,-4.9574,-4.8673,-4.7076,0.0,0.0,0.0,0.0,0.0,0.0,0.0,0.0,0.0,0.0,0.0,0.0,0.0,0.0,0.0,0.0,0.0,0.0,0.0,-4.889,-4.889,0.0,-4.9522,-5.0488,-5.2159,-5.2605,-5.2438,-5.1711,-5.1645,-5.1228,0.0,0.0,-4.8848,-4.8231,-4.8896,-4.9621,-4.9699,-5.0357,-5.0898,-5.0898,-5.0898,0.0,-5.3265,0.0,0.0,0.0,0.0,-6.019,-6.1002,-6.1118,-6.1118,-6.1118,-6.1118,-6.1118,-6.1118,-6.1118,-6.1118,-6.1118,-6.1118,-6.1118,-6.1118,-6.1118,-6.1118,-6.1118,-6.1118,-6.1118,-6.1118,-6.1118,-6.1118,-6.1118,-6.1118,-6.1118,-6.1118,-6.1164,-6.1191,-6.1191,-6.1242,-6.1267,-6.1189,-6.0328,-5.9946,-5.9758,0.0,0.0,0.0,0.0,0.0,0.0,-4.9427,-4.9831,-5.0362,-5.1426,-5.2747,-5.3151,-5.205,-5.2711,-5.2344,-5.0178,-4.9757,0.0,0.0,0.0,0.0,0.0,0.0,0.0,0.0,-4.8893,-4.9317,-4.961,-5.0141,-5.0398,-5.0398,-4.9867,-4.9317,-4.8746,-4.759,-4.6966,0.0,0.0,0.0,0.0,0.0,0.0,-4.8715,0.0,0.0,0.0,0.0,0.0,0.0,0.0,0.0,0.0,0.0,0.0,0.0,-4.759,-4.863,-5.0228,-5.0748,-5.1342,-5.1565,-5.0746,-5.0701,-5.0563,-4.9498,0.0,-4.9766,-4.9785,-5.0114,-5.043,-5.051,-5.0728,-5.0898,-5.0898,-5.0898,0.0,0.0,0.0,0.0,0.0,-5.899,-6.0228,0.0,0.0,-6.1118,-6.1118,-6.1118,-6.1118,-6.1118,-6.1118,-6.1118,-6.1118,-6.1118,-6.1118,-6.1118,-6.1118,-6.1118,-6.1118,-6.1118,-6.1118,-6.1118,-6.1118,-6.1118,-6.1118,-6.1118,-6.1118,-6.1118,-6.1164,-6.1182,-6.1229,-6.1281,-6.1297,-6.1259,-6.0954,-6.0812,-6.0678,0.0,0.0,0.0,0.0,0.0,0.0,-4.9003,-4.9114,-4.9407,-5.0251,-5.1206,-5.1573,-5.0875,-5.1683,-5.1573,-4.9757,-4.961,0.0,0.0,0.0,0.0,0.0,0.0,0.0,-4.8306,-4.915,-4.9757,-5.0031,-5.1169,-5.1536,-5.1242,-5.1059,-5.0472,-4.9537,-4.8526,-4.7846,0.0,0.0,0.0,0.0,0.0,0.0,-4.8804,0.0,0.0,0.0,0.0,0.0,0.0,0.0,0.0,0.0,0.0,0.0,0.0,0.0,-4.7813,-4.889,0.0,-5.0265,-5.0785,-5.0228,-5.0256,0.0,0.0,0.0,-5.0214,-5.0521,-5.0693,-5.0812,-5.0872,-5.0905,-5.0882,-5.0898,-5.1177,-5.1873,0.0,0.0,0.0,0.0,0.0,0.0,0.0,-6.1118,-6.1118,-6.1118,-6.1118,-6.1118,-6.1118,-6.1118,-6.1118,-6.1118,-6.1118,-6.1118,-6.1118,-6.1118,-6.1118,-6.1118,-6.1118,-6.1118,-6.1118,-6.1118,-6.1118,-6.1118,-6.1118,-6.1118,0.0,-6.1146,-6.1164,-6.1164,-6.1199,-6.1208,-6.1208,-6.1173,-6.1164,-6.1077,0.0,0.0,0.0,0.0,0.0,0.0,0.0,-4.8306,-4.86,-4.939,-4.9574,-4.9867,-5.0545,-5.0692,-5.0398,-4.9574,-4.95,0.0,0.0,0.0,0.0,0.0,0.0,0.0,-4.8306,-4.9187,-5.0031,-5.0802,-5.2491,-5.2858,-5.2087,-5.2858,-5.194,-4.9684,-4.9647,-4.9114,-4.8306,-4.8306,-4.84,-4.8513,-4.8587,-4.8678,0.0,0.0,0.0,0.0,0.0,0.0,0.0,0.0,0.0,0.0,0.0,0.0,0.0,0.0,0.0,0.0,0.0,-4.9262,-4.993,-4.9948,-5.0087,-5.0134,-4.9619,0.0,0.0,0.0,-5.0548,-5.069,-5.0855,-5.088,-5.0897,-5.089,-5.1563,-5.2414,0.0,0.0,0.0,0.0,-6.0615,0.0,-6.1118,-6.1118,-6.1118,-6.1118,-6.1118,-6.1118,-6.1118,-6.1118,-6.1118,-6.1118,-6.1118,-6.1118,-6.1118,-6.1118,-6.1118,-6.1118,-6.1118,-6.1118,-6.1118,-6.1118,-6.1118,-6.1118,-6.1118,-6.1118,-6.1118,-6.1118,-6.1118,-6.1118,-6.1118,-6.1118,-6.1118,-6.1118,-6.1118,-6.1118,0.0,0.0,0.0,0.0,0.0,0.0,0.0,0.0,0.0,0.0,-4.9206,-4.9427,-4.893,-4.9481,-4.9537,0.0,0.0,0.0,0.0,0.0,0.0,0.0,0.0,0.0,-4.8306,-4.9774,-5.0618,-5.0802,-5.3041,-5.3702,-5.2931,-5.3115,-5.2234,-5.0472,-4.9867,-4.9114,-4.8306,-4.8419,-4.8513,-4.8587,-4.8715,-4.8822,0.0,0.0,0.0,0.0,-4.889,-4.889,0.0,0.0,0.0,0.0,0.0,0.0,0.0,0.0,-4.6673,-4.6536,-4.6275,0.0,-4.8377,-4.8481,-4.8611,-4.8739,0.0,0.0,0.0,0.0,0.0,0.0,0.0,-5.0829,-5.088,-5.0897,-5.1075,-5.1757,-5.3265,0.0,0.0,-5.9764,-6.0615,-6.1118,-6.1118,-6.1118,-6.1118,-6.1118,-6.1118,-6.1118,-6.1118,-6.1118,-6.1118,-6.1118,-6.1118,-6.1118,-6.1118,-6.1118,-6.1118,-6.1118,-6.1118,-6.1118,-6.1118,-6.1118,-6.1118,-6.1118,-6.1118,-6.1118,-6.1118,-6.1118,-6.1118,-6.1118,-6.1118,-6.1118,-6.1118,-6.1118,-6.1118,-6.1118,0.0,0.0,0.0,0.0,0.0,0.0,0.0,0.0,0.0,0.0,-4.871,-4.882,-4.8343,-4.871,-4.882,0.0,0.0,0.0,0.0,0.0,0.0,0.0,0.0,-4.8306,-4.8306,-4.9958,-5.0802,-5.0802,-5.3592,-5.4546,-5.3775,-5.4142,-5.3445,-5.183,-5.0308,-4.9152,-4.84,-4.8457,-4.8569,-4.8696,-4.8769,0.0,0.0,0.0,0.0,0.0,-4.889,-4.889,0.0,-4.889,-4.889,-4.8853,0.0,0.0,0.0,0.0,-4.5722,-4.5429,-4.5021,-4.6119,-4.7367,-4.7483,-4.7582,-4.7773,-4.7983,0.0,0.0,0.0,0.0,0.0,0.0,0.0,0.0,0.0,-5.1752,0.0,0.0,0.0,0.0,-6.0306,-6.0847,-6.1118,-6.1118,-6.1118,-6.1118,-6.1118,-6.1118,-6.1118,-6.1118,-6.1118,-6.1118,-6.1118,-6.1118,-6.1118,-6.1118,-6.1118,-6.1118,-6.1118,-6.1118,-6.1118,-6.1118,-6.1118,-6.1118,-6.1118,-6.1118,-6.1118,-6.1118,-6.1118,-6.1118,-6.1118,-6.1118,-6.1118,-6.1118,-6.1118,-6.1118,-6.1118,0.0,0.0,0.0,0.0,0.0,0.0,0.0,0.0,0.0,0.0,0.0,0.0,0.0,0.0,0.0,0.0,0.0,0.0,0.0,0.0,0.0,0.0,-4.8489,-4.8489,-4.8489,-5.0141,-5.1059,-5.1169,-5.4142,-5.5244,-5.4583,-5.528,-5.462,-5.2747,-5.0565,-4.9191,-4.8494,-4.8513,-4.8642,-4.8787,-4.8804,0.0,0.0,0.0,0.0,0.0,0.0,0.0,0.0,-4.8667,-4.863,-4.8444,-4.7887,0.0,0.0,0.0,0.0,0.0,-4.4354,-4.5513,-4.6734,-4.6943,-4.7071,-4.7248,-4.749,0.0,0.0,0.0,0.0,0.0,0.0,0.0,0.0,0.0,0.0,0.0,0.0,-5.8597,-5.9273,-6.0906,-6.107,-6.1109,-6.1118,-6.1118,-6.1118,-6.1118,-6.1118,-6.1118,-6.1118,-6.1118,-6.1118,-6.1118,-6.1118,-6.1118,-6.1118,-6.1118,-6.1118,-6.1118,-6.1118,-6.1118,-6.1118,-6.1118,-6.1118,-6.1118,-6.1118,-6.1118,-6.1118,-6.1118,-6.1118,-6.1118,-6.1118,-6.1118,-6.1118,-6.1118,-6.1118,-6.1118,0.0,0.0,0.0,0.0,0.0,0.0,0.0,0.0,0.0,0.0,0.0,0.0,0.0,0.0,0.0,0.0,0.0,0.0,0.0,0.0,0.0,-4.939,-4.939,-4.939,-4.939,-5.0986,-5.216,-5.2858,-5.4693,-5.5559,-5.5427,-5.5559,-5.3995,-5.1132,-5.013,-4.9249,-4.8494,-4.8679,-4.8769,-4.8804,-4.8875,0.0,0.0,0.0,0.0,0.0,0.0,0.0,0.0,-4.7664,-4.7441,-4.6958,-4.7516,0.0,0.0,0.0,0.0,0.0,-4.4368,-4.5273,-4.6404,-4.7123,-4.7416,-4.7552,-4.7732,0.0,0.0,0.0,0.0,0.0,0.0,-5.0712,-5.1857,0.0,0.0,-5.6175,0.0,0.0,-5.9909,-6.0896,-6.1012,-6.1032,-6.107,-6.1118,-6.1118,-6.1118,-6.1118,-6.1118,-6.1118,-6.1118,-6.1118,-6.1118,-6.1118,-6.1118,-6.1118,-6.1118,-6.1118,-6.1118,-6.1118,-6.1118,-6.1118,-6.1118,-6.1118,-6.1118,-6.1118,-6.1118,-6.1118,-6.1118,-6.1118,-6.1118,-6.1118,-6.1118,-6.1118,-6.1118,-6.1118,-6.1118,0.0,0.0,0.0,0.0,0.0,0.0,0.0,0.0,0.0,0.0,0.0,0.0,0.0,0.0,0.0,0.0,0.0,0.0,0.0,0.0,-4.9187,-4.9574,-5.0418,-5.0692,-5.0251,-5.183,-5.2821,-5.3203,-5.5244,-5.6235,-5.6235,-5.5794,-5.3885,-5.0802,-5.048,-4.9674,-4.855,-4.8733,-4.8822,-4.8875,0.0,0.0,0.0,0.0,0.0,0.0,0.0,0.0,0.0,0.0,-4.681,-4.6475,-4.6401,0.0,0.0,0.0,0.0,0.0,-4.4411,-4.5631,-4.6985,-4.75,-4.7709,-4.7799,-4.7907,-4.7404,0.0,0.0,0.0,0.0,0.0,0.0,-5.2386,-5.3782,0.0,-5.7636,-5.8862,-5.9402,-5.9963,-6.0874,-6.0982,-6.1012,-6.1032,-6.106,-6.1118,-6.1118,-6.1118,-6.1118,-6.1118,-6.1118,-6.1118,-6.1118,-6.1118,-6.1118,-6.1118,-6.1118,-6.1118,-6.1118,-6.1118,-6.1118,-6.1118,-6.1118,-6.1118,-6.1118,-6.1118,-6.1118,-6.1118,-6.1118,-6.1118,-6.1118,-6.1118,-6.1118,-6.1118,-6.1118,-6.1118,-6.1118,0.0,0.0,0.0,0.0,0.0,0.0,0.0,0.0,0.0,0.0,0.0,0.0,0.0,0.0,0.0,0.0,0.0,0.0,0.0,-4.9114,-4.9684,-4.9867,-5.1242,-5.1793,-5.1389,-5.2747,-5.3775,-5.4326,-5.6014,-5.6712,-5.6492,-5.5684,-5.3723,-5.0842,-5.0684,-4.9934,-4.8678,-4.8822,-4.891,-4.8959,0.0,0.0,0.0,0.0,0.0,0.0,0.0,0.0,0.0,0.0,0.0,0.0,0.0,0.0,0.0,-4.424,-4.4177,-4.434,-4.4496,-4.5873,-4.7322,-4.7712,-4.8039,-4.8266,-4.8394,-4.8414,-4.8385,0.0,0.0,0.0,0.0,-5.1972,0.0,-5.5934,-5.7588,-5.8869,-5.976,-5.9887,-6.014,-6.0888,-6.098,-6.0972,-6.1002,-6.1041,-6.107,-6.1118,-6.1118,-6.1118,-6.1118,-6.1118,-6.1118,-6.1118,-6.1118,-6.1118,-6.1118,-6.1118,-6.1118,-6.1118,-6.1118,-6.1118,-6.1118,-6.1118,-6.1118,-6.1118,-6.1118,-6.1118,-6.1118,-6.1118,-6.1118,-6.1118,-6.1118,-6.1118,-6.1118,-6.1118,-6.1118,-6.1118,0.0,0.0,0.0,0.0,0.0,0.0,0.0,0.0,0.0,0.0,0.0,0.0,0.0,0.0,0.0,0.0,0.0,0.0,0.0,-4.9114,-4.9941,-5.0692,-5.1536,-5.2307,-5.2983,-5.3885,-5.5427,-5.7666,-5.7079,-5.6418,-5.5647,-5.484,-5.3193,-5.0868,-5.0191,-4.951,-4.8873,-4.8996,-4.9135,-4.9197,-4.9197,0.0,0.0,0.0,0.0,0.0,0.0,0.0,0.0,0.0,0.0,0.0,0.0,0.0,-4.4113,-4.4153,-4.4266,-4.444,-4.4632,-4.5557,-4.6713,-4.7673,-4.8534,-4.9239,-4.9298,-4.9317,0.0,-4.9317,0.0,0.0,0.0,-5.378,-5.6011,-5.7819,-5.8858,-5.9704,-6.06,-6.0716,-6.0777,-6.0911,-6.0922,-6.0927,-6.0992,-6.1012,-6.1032,-6.1109,-6.1118,-6.1118,-6.1118,-6.1118,-6.1118,-6.1118,-6.1118,-6.1118,-6.1118,-6.1118,-6.1118,-6.1118,-6.1118,-6.1118,-6.1118,-6.1118,-6.1118,-6.1118,-6.1118,-6.1118,-6.1118,-6.1118,-6.1118,-6.1118,-6.1118,-6.1118,-6.1118,-6.1118,-6.1118,-6.1118,0.0,0.0,0.0,0.0,0.0,0.0,0.0,0.0,0.0,0.0,0.0,0.0,0.0,0.0,0.0,0.0,0.0,0.0,-4.8495,-4.9269,-5.0116,-5.0964,-5.1658,-5.2925,-5.4801,-5.503,-5.5831,-5.7262,-5.7446,-5.6859,-5.5596,-5.5346,-5.3697,-5.0905,-5.0786,-5.0063,-4.8976,-4.9164,-4.9273,-4.9415,-4.9415,-4.8911,0.0,0.0,0.0,0.0,0.0,0.0,0.0,0.0,-4.4283,-4.4061,-4.4395,-4.4283,-4.4039,-4.4169,-4.4266,-4.4454,-4.4712,-4.5568,-4.6658,-4.7677,-4.8672,0.0,0.0,-5.0971,-5.1125,-5.1664,-5.2279,0.0,0.0,0.0,-5.755,-5.8204,-5.9435,-6.0435,-6.0742,-6.0781,-6.0793,-6.0816,-6.0888,-6.0944,-6.098,-6.0982,-6.1022,-6.107,-6.1118,-6.1118,-6.1118,-6.1118,-6.1118,-6.1118,-6.1118,-6.1118,-6.1118,-6.1118,-6.1118,-6.1118,-6.1118,-6.1118,-6.1118,-6.1118,-6.1118,-6.1118,-6.1118,-6.1118,-6.1118,-6.1118,-6.1118,-6.1118,-6.1118,-6.1118,-6.1118,-6.1118,-6.1118,-6.1118,0.0,0.0,0.0,0.0,0.0,0.0,0.0,0.0,0.0,0.0,0.0,0.0,0.0,0.0,0.0,0.0,0.0,0.0,-4.8696,-4.9436,-5.0139,-5.0768,-5.143,-5.2847,-5.5059,-5.4991,-5.5787,-5.7556,-5.785,-5.7212,-5.564,-5.5227,-5.358,-5.1024,-5.1009,-5.0294,-4.9155,-4.9331,-4.9499,-4.966,-4.9674,-4.9046,0.0,0.0,0.0,0.0,0.0,0.0,0.0,0.0,-4.407,-4.4055,-4.4002,-4.3986,-4.4039,-4.4199,-4.4348,-4.4496,-4.4802,-4.5627,-4.6691,-4.7767,0.0,0.0,-5.1923,-5.25,-5.2972,-5.3818,-5.4434,-5.5011,-5.5588,0.0,0.0,0.0,-5.9858,-6.0781,-6.0781,-6.0781,-6.0781,-6.0781,-6.0854,-6.09,-6.0965,-6.098,-6.1041,-6.1051,-6.1109,-6.1118,-6.1118,-6.1118,-6.1118,-6.1118,-6.1118,-6.1118,-6.1118,-6.1118,-6.1118,-6.1118,-6.1118,-6.1118,-6.1118,-6.1118,-6.1118,-6.1118,-6.1118,-6.1118,-6.1118,-6.1118,-6.1118,-6.1118,-6.1118,-6.1118,-6.1118,-6.1118,-6.1118,-6.1118,0.0,0.0,0.0,0.0,0.0,0.0,0.0,0.0,-4.9866,-4.9821,-4.9807,0.0,0.0,0.0,0.0,0.0,0.0,0.0,-4.889,-4.9582,-5.0046,-5.0116,-5.0787,-5.1953,-5.3546,-5.3558,-5.5365,-5.9148,-5.8364,-5.722,-5.5727,-5.4091,-5.2594,-5.1268,-5.0614,-5.0011,-4.9514,-4.966,-4.9814,-4.9999,-5.0101,-4.9099,-4.7603,0.0,0.0,0.0,0.0,0.0,0.0,0.0,-4.4199,-4.4184,-4.4055,-4.3986,-4.4055,-4.4237,-4.442,-4.4565,-4.4926,-4.573,-4.6745,0.0,0.0,0.0,-5.2818,-5.3895,-5.4741,-5.5549,-5.7088,-5.8319,-5.8319,-5.8973,-5.9511,-5.9511,-6.0242,-6.0781,-6.0781,-6.0781,-6.0781,-6.0781,-6.0781,-6.0843,-6.09,-6.0955,-6.1018,-6.1002,-6.1051,-6.1118,-6.1118,-6.1118,-6.1118,-6.1118,-6.1118,-6.1118,-6.1079,-6.1079,-6.1079,-6.1079,-6.1079,-6.1079,-6.1118,-6.1118,-6.1118,-6.1118,-6.1118,-6.1118,-6.1118,-6.1118,-6.1118,-6.1118,-6.1118,-6.1118,-6.1118,-6.1118,-6.1118,-6.1118,0.0,0.0,0.0,0.0,0.0,0.0,0.0,0.0,-5.0163,-5.0139,-5.0101,0.0,0.0,0.0,0.0,0.0,0.0,0.0,-4.9257,-4.9449,-4.9856,-5.0499,-5.068,-5.1775,-5.3906,-5.4909,-5.5891,-5.686,-5.666,-5.5997,-5.5007,-5.4654,-5.3699,-5.225,-5.1774,-5.1217,-5.0591,-5.0227,-5.0151,-5.0298,-5.0321,-4.9301,-4.781,0.0,0.0,0.0,0.0,0.0,0.0,0.0,0.0,0.0,-4.4237,-4.4207,-4.4237,-4.4383,-4.4537,-4.4725,-4.5057,-4.5857,0.0,-4.7838,0.0,0.0,0.0,-5.4318,0.0,0.0,-5.7934,-5.8319,-5.8319,-5.8973,-5.9511,-5.9511,-6.0242,-6.0781,-6.0781,-6.0781,-6.0781,-6.0781,-6.0781,-6.0843,-6.09,-6.0955,-6.1018,-6.1002,-6.1051,-6.1118,-6.1118,-6.1118,-6.1118,-6.1118,-6.1118,-6.0847,-6.0267,-6.0267,-5.9957,-5.9339,-5.9339,-5.9957,-6.1118,-6.1118,-6.1118,-6.1118,-6.1118,-6.1118,-6.1118,-6.1118,-6.1118,-6.1118,-6.1118,-6.1118,-6.1118,-6.1118,-6.1118,-6.1118,0.0,0.0,0.0,0.0,0.0,0.0,0.0,0.0,-5.039,-5.039,-5.0329,-5.0271,0.0,0.0,0.0,0.0,0.0,0.0,-4.9596,-4.9573,-4.9829,-5.0392,-5.0319,-5.108,-5.274,-5.3956,-5.4503,-5.4353,-5.4828,-5.4822,-5.438,-5.4222,-5.3702,-5.2925,-5.2422,-5.1807,-5.1165,-5.0567,-5.039,-5.0478,-5.05,-4.9486,-4.7979,0.0,0.0,0.0,0.0,0.0,0.0,0.0,0.0,0.0,-4.4482,-4.4454,-4.4482,-4.4592,-4.4699,-4.494,-4.554,-4.6407,0.0,-4.8779,-5.0433,-5.2318,-5.4703,0.0,0.0,0.0,-5.9281,-5.9281,-5.9281,-5.9704,-6.0012,-6.0012,-6.0473,-6.0781,-6.0781,-6.0781,-6.0781,-6.0781,-6.0781,-6.0843,-6.0877,-6.0922,-6.0987,-6.1,-6.106,-6.106,-6.1118,-6.0809,-6.0615,-6.0615,-6.0306,-5.988,-5.9377,-5.9377,-5.9106,-5.8613,-5.8613,-5.9145,-6.0112,-6.046,-6.0615,-6.0654,-6.0963,-6.1118,-6.1118,-6.1118,-6.1118,-6.1118,-6.1118,-6.1118,-6.1118,-6.1118,-6.1118,-6.1118,0.0,0.0,-5.0224,-5.0321,0.0,0.0,0.0,0.0,-5.0521,-5.0521,-5.0521,-5.0489,0.0,0.0,0.0,0.0,0.0,0.0,0.0,-4.9882,-4.9908,-5.0025,-4.9997,-5.0231,-5.0816,-5.1707,-5.2092,-5.1939,-5.3102,-5.3647,-5.3702,-5.3139,-5.3011,-5.3311,-5.2649,-5.2039,-5.1483,-5.0714,-5.0427,-5.0479,-5.0452,-4.9471,-4.8,-4.8001,0.0,0.0,0.0,0.0,0.0,0.0,0.0,0.0,-4.4764,-4.4751,-4.4764,-4.4827,-4.4902,-4.5162,-4.6238,0.0,0.0,-5.025,-5.201,0.0,-5.755,-5.8319,-5.8781,-6.0435,0.0,-6.0781,-6.0781,-6.0781,-6.0781,-6.0781,-6.0781,-6.0781,-6.0781,-6.0781,-6.0781,-6.0781,-6.0781,-6.0781,-6.0781,-6.0877,-6.0933,-6.0987,-6.0933,-6.0906,-6.1002,-6.0228,-5.9764,-5.9764,-5.899,-5.8574,-5.8488,-5.8488,-5.8449,-5.8372,-5.8372,-5.8372,-5.841,-5.9339,-5.9764,-5.9803,-6.0538,-6.0886,-6.0886,-6.0886,-6.0886,-6.0886,-6.0963,-6.1002,-6.1002,-6.1079,-6.1118,-6.1118,0.0,0.0,-5.039,-5.0457,0.0,0.0,0.0,0.0,0.0,-5.0673,0.0,0.0,0.0,0.0,0.0,0.0,0.0,0.0,0.0,-5.02,-5.0224,-5.0321,-5.0834,-5.118,-5.1281,-5.2012,-5.2085,-5.144,-5.2068,-5.2353,-5.234,-5.2973,-5.3374,-5.352,-5.293,-5.2678,-5.2526,-5.0497,-4.9635,-4.9606,-4.8923,-4.8048,-4.7154,-4.7145,-4.6464,0.0,0.0,0.0,0.0,0.0,0.0,0.0,-4.5045,-4.5022,-4.5033,-4.5103,-4.5121,-4.535,-4.6365,-4.7788,0.0,0.0,-5.2472,-5.4934,-5.7665,-5.8319,-5.8781,-6.0435,-6.0781,-6.0781,-6.0781,-6.0781,-6.0781,-6.0781,-6.0781,-6.0781,-6.0781,-6.0781,-6.0781,-6.0781,-6.0781,-6.0781,-6.0781,-6.0877,-6.0933,-6.0987,-6.0393,-6.0104,-6.0151,-5.9339,-5.8874,-5.8874,-5.869,-5.8255,-5.7598,-5.7598,-5.725,-5.6553,-5.6553,-5.6553,-5.6631,-5.8178,-5.8874,-5.8874,-5.9068,-5.9145,-5.9145,-5.9145,-5.9145,-5.9223,-5.988,-6.0151,-6.0228,-6.0886,-6.1118,-6.1118,0.0,0.0,0.0,0.0,0.0,0.0,0.0,0.0,0.0,0.0,0.0,0.0,0.0,0.0,0.0,0.0,-5.0435,0.0,0.0,-5.0435,-5.0457,-5.0489,-5.084,-5.1025,-5.0967,-5.1341,-5.1317,-5.0873,-5.1102,-5.1343,-5.1616,-5.2177,-5.2707,-5.3196,-5.2563,-5.2131,-5.1732,-5.0086,-4.9163,-4.874,-4.8297,-4.7421,-4.6343,-4.6313,-4.5488,-4.4346,-4.4303,0.0,0.0,0.0,0.0,0.0,0.0,0.0,-4.5239,-4.527,-4.5301,-4.5609,0.0,0.0,0.0,-5.1385,0.0,-5.6165,-5.7896,-5.8588,-5.9242,-6.0512,-6.0781,-6.0781,-6.0781,-6.0781,-6.0781,-6.0781,-6.0781,-6.0781,-6.0781,-6.0781,-6.0781,-6.0781,-6.0781,-6.0781,-6.0781,-6.0816,-6.0696,-6.0366,-5.9966,-5.9601,-5.9263,-5.844,-5.7985,-5.7985,-5.7559,-5.7134,-5.6661,-5.6661,-5.6429,-5.6012,-5.6012,-5.6012,-5.6051,-5.7366,-5.8217,-5.8613,-5.8613,-5.8613,-5.8613,-5.8613,-5.8613,-5.8651,-5.9106,-5.9532,-5.9957,-6.0383,-6.077,-6.1118,0.0,0.0,0.0,0.0,0.0,0.0,0.0,0.0,0.0,0.0,0.0,0.0,0.0,0.0,-5.0692,0.0,0.0,0.0,0.0,0.0,0.0,-5.0632,-5.0632,-5.0573,-5.0532,-5.0532,-5.0511,-5.0457,-5.0457,-5.0723,-5.1217,-5.1356,-5.1851,-5.2561,-5.1836,-5.1195,-5.0517,-4.9452,-4.8471,-4.7672,-4.7601,-4.6617,-4.5269,-4.5277,-4.436,-4.3119,-4.311,-4.3538,-4.4119,-4.4264,0.0,0.0,0.0,0.0,-4.5429,-4.5429,-4.5429,-4.5784,0.0,0.0,-4.95,-5.2654,-5.5126,0.0,-5.7896,-5.8704,-5.955,-6.0396,-6.0704,-6.0781,-6.0781,-6.0781,-6.0781,-6.0781,-6.0781,-6.0781,-6.0781,-6.0781,-6.0781,-6.0781,-6.0781,-6.0781,-6.0781,-6.0666,-6.0304,-5.9628,-5.9374,-5.8973,-5.8298,-5.7494,-5.7086,-5.7086,-5.639,-5.6012,-5.6012,-5.6012,-5.6012,-5.6012,-5.6012,-5.6012,-5.6012,-5.6738,-5.7482,-5.8139,-5.8139,-5.8139,-5.8139,-5.8139,-5.8139,-5.8178,-5.8333,-5.8913,-5.9687,-5.9841,-6.0422,-6.1118,0.0,0.0,0.0,0.0,0.0,0.0,0.0,0.0,0.0,0.0,-5.0712,-5.0712,0.0,0.0,0.0,-5.0702,-5.0692,-5.0692,-5.0692,0.0,0.0,-5.0692,-5.0692,-5.0692,-5.0692,-5.0682,-5.0682,-5.0673,-5.0673,-5.0701,-5.0796,-5.1338,-5.1687,-5.1831,-5.108,-5.0719,-5.0538,-4.824,-4.6758,-4.5945,-4.5222,-4.4352,-4.3543,-4.3543,-4.3389,-4.3189,-4.3119,-4.3181,-4.3357,-4.4055,-4.4385,0.0,0.0,0.0,-4.5577,-4.5577,-4.5577,-4.5808,0.0,0.0,0.0,0.0,-5.5126,-5.6088,0.0,0.0,-5.8704,0.0,-6.0281,-6.0781,-6.0781,-6.0781,-6.0781,-6.0781,-6.0781,-6.0781,-6.0781,-6.0781,-6.0781,-6.0781,-6.0781,-6.0781,-6.0781,-6.0127,-5.965,-5.959,-5.8256,-5.7429,-5.7371,-5.6604,-5.6158,-5.6158,-5.6051,-5.6012,-5.6012,-5.6012,-5.6012,-5.6012,-5.6012,-5.6012,-5.6012,-5.6119,-5.6244,-5.636,-5.636,-5.636,-5.636,-5.636,-5.636,-5.6437,-5.7164,-5.8023,-5.8874,-5.9609,-6.0422,-6.1118,0.0,0.0,0.0,0.0,0.0,0.0,0.0,0.0,0.0,0.0,0.0,-5.0712,0.0,0.0,0.0,-4.9971,-4.951,-4.924,-4.924,-4.9702,-4.9971,-4.9971,-5.0442,-5.0481,-4.9971,-4.9971,-4.974,-4.924,-4.974,-4.9971,-4.9971,-5.0748,-5.1111,-5.1104,-5.0278,-4.9683,-4.9125,-4.7048,-4.5727,-4.4914,-4.406,-4.3242,-4.2546,-4.2546,-4.2237,-4.1805,-4.1708,-4.1994,-4.2487,-4.2794,-4.3239,-4.3701,-4.4085,0.0,0.0,0.0,-4.4201,0.0,-4.6432,0.0,0.0,0.0,0.0,-5.5357,-5.6714,0.0,-5.7934,-5.9242,-5.9819,-6.0204,-6.0704,-6.0781,-6.0781,-6.0781,-6.0781,-6.0781,-6.0781,-6.0781,-6.0781,-6.0781,-6.0781,-6.0589,-6.0127,-5.9704,-5.9138,-5.8209,-5.7513,-5.6946,-5.6512,-5.6161,-5.6012,-5.6012,-5.6012,-5.6012,-5.6012,-5.6012,-5.6012,-5.6012,-5.6012,-5.6012,-5.6012,-5.6012,-5.6012,-5.6012,-5.6012,-5.6012,-5.6012,-5.6012,-5.6012,-5.6051,-5.6429,-5.7404,-5.8651,-5.9029,-5.9996,-6.1118,0.0,0.0,0.0,0.0,0.0,0.0,0.0,0.0,0.0,0.0,0.0,0.0,0.0,0.0,0.0,0.0,-4.8471,-4.8086,-4.8086,-4.8702,-4.9163,-4.9394,-5.001,-5.0048,-4.9394,-4.9394,-4.8971,-4.8086,-4.874,-4.9163,-4.9394,-5.0048,-5.0481,-5.0635,-4.9548,-4.8702,-4.7971,-4.6095,-4.482,-4.4044,-4.3443,-4.2707,-4.2008,-4.224,-4.1776,-4.1035,-4.0966,-4.1207,-4.1578,-4.1771,-4.2247,-4.2816,-4.3047,-4.3085,0.0,0.0,0.0,0.0,0.0,0.0,0.0,0.0,0.0,0.0,0.0,0.0,-5.7368,0.0,-5.905,-5.9396,-6.005,-6.0512,-6.0781,-6.0781,-6.0781,-6.0704,-6.0512,-6.0473,-6.0396,-6.0204,-6.0165,-5.9896,-5.9281,-5.8973,-5.8357,-5.7099,-5.6925,-5.6589,-5.5933,-5.5959,-5.6012,-5.6012,-5.6012,-5.6012,-5.6012,-5.6012,-5.6012,-5.6012,-5.6012,-5.6012,-5.6012,-5.6012,-5.6012,-5.6012,-5.6012,-5.6012,-5.6012,-5.6012,-5.6012,-5.6012,-5.6012,-5.7056,-5.8613,-5.8613,-5.9648,-6.1118,0.0,0.0,0.0,0.0,0.0,0.0,0.0,0.0,0.0,0.0,0.0,0.0,-4.9548,-4.9433,-4.9086,-4.824,-4.8125,-4.8086,-4.8086,-4.8125,-4.8548,-4.9356,-4.9433,0.0,-4.9394,-4.9394,-4.8971,-4.8086,-4.8163,-4.8586,-4.9394,-4.9433,-4.9894,-5.0635,-4.8933,-4.8125,-4.7932,-4.5505,-4.4005,-4.3242,-4.3209,-4.2704,-4.2086,-4.2931,-4.2699,-4.1925,-4.1924,-4.1388,-4.0774,-4.1624,-4.1886,-4.2,-4.2854,-4.3085,-4.3085,0.0,0.0,0.0,0.0,0.0,0.0,0.0,0.0,0.0,0.0,0.0,-5.7022,-5.7099,-5.778,-5.8396,-5.8434,-5.9742,-6.0781,-6.0781,-6.0781,-6.0512,-5.9665,-5.9588,-5.9281,-5.8511,-5.8434,-5.8396,-5.8357,-5.7627,-5.7099,-5.7022,-5.6346,-5.5933,-5.5895,-5.5959,-5.6012,-5.6012,-5.6012,-5.6012,-5.6012,-5.6012,-5.6012,-5.6012,-5.6012,-5.6012,-5.6012,-5.6012,-5.6012,-5.6012,-5.6012,-5.6012,-5.6012,-5.6012,-5.6012,-5.6012,-5.6012,-5.7056,-5.8613,-5.8613,-5.9648,-6.1118,0.0,0.0,0.0,0.0,0.0,0.0,0.0,0.0,0.0,0.0,0.0,0.0,0.0,-4.8894,-4.824,-4.7394,-4.6817,-4.6509,-4.6509,-4.7009,-4.7471,-4.7778,-4.8279,-4.8317,-4.7817,-4.7817,-4.7355,-4.6509,-4.7048,-4.7509,-4.7817,-4.8317,-4.874,-4.9009,-4.8394,-4.8134,-4.8016,-4.5453,-4.4268,-4.3974,-4.3417,-4.3058,-4.286,-4.3169,-4.3131,-4.2815,-4.2781,-4.2553,-4.2247,-4.1971,-4.1848,-4.1777,-4.1508,-4.1439,0.0,0.0,0.0,0.0,0.0,0.0,0.0,0.0,0.0,-5.2472,-5.4126,-5.4972,-5.5703,-5.6791,-5.7253,-5.7627,-5.8204,-5.8781,-5.9204,-5.9204,-5.9204,-5.9088,-5.8781,-5.8742,-5.8627,-5.8319,-5.8319,-5.8088,-5.7511,-5.7176,-5.6791,-5.6214,-5.5969,-5.5865,-5.5895,-5.5961,-5.6016,-5.6003,-5.6012,-5.6012,-5.6012,-5.6012,-5.6012,-5.6012,-5.6012,-5.6012,-5.6012,-5.6012,-5.6012,-5.6012,-5.6012,-5.6012,-5.6012,-5.6012,-5.6012,-5.6051,-5.6622,-5.7559,-5.869,-5.9223,-6.0151,-6.1118,0.0,0.0,0.0,0.0,0.0,-5.0404,-4.951,-4.9894,-5.0048,-4.9471,0.0,0.0,0.0,0.0,-4.7663,-4.6547,-4.5932,-4.5594,-4.5594,-4.6124,-4.6586,-4.6885,-4.7432,-4.7471,-4.6923,-4.6885,-4.6317,-4.5171,-4.574,-4.6163,-4.6471,-4.7009,-4.7432,-4.7702,-4.7403,-4.7468,-4.761,-4.5362,-4.4438,-4.446,-4.3902,-4.3691,-4.3788,-4.4059,-4.3982,-4.3743,-4.3684,-4.3463,-4.3118,-4.2533,-4.2102,-4.1716,-4.1131,-4.0746,0.0,0.0,0.0,0.0,-4.2508,0.0,0.0,0.0,0.0,-5.1135,-5.2818,0.0,-5.4472,-5.5857,-5.6175,-5.6434,-5.728,-5.7434,-5.7627,-5.8204,-5.8319,-5.8204,-5.7896,-5.7857,-5.7742,-5.7473,-5.7434,-5.7203,-5.6637,-5.656,-5.6329,-5.5742,-5.5756,-5.5817,-5.5895,-5.5943,-5.5998,-5.6003,-5.6012,-5.6012,-5.6012,-5.6012,-5.6012,-5.6012,-5.6012,-5.6012,-5.6012,-5.6012,-5.6012,-5.6012,-5.6012,-5.6012,-5.6012,-5.6012,-5.6012,-5.6089,-5.697,-5.783,-5.8729,-5.9571,-6.0422,-6.1118,0.0,0.0,-5.0712,-5.0712,-5.0712,-5.0404,-4.951,-4.9394,-4.9394,-4.9356,0.0,0.0,0.0,0.0,0.0,-4.5787,-4.5594,-4.5594,-4.5594,-4.5594,-4.597,-4.6808,-4.6846,-4.6846,-4.6846,-4.6846,-4.6009,-4.4316,-4.4316,-4.4701,-4.5518,-4.5518,-4.597,-4.674,-4.5975,-4.6069,-4.6694,-4.5078,-4.4423,-4.4506,-4.458,-4.4632,-4.471,-4.549,-4.5336,-4.4632,-4.4632,-4.4039,-4.3269,-4.3233,-4.2687,-4.1948,-4.1824,0.0,0.0,0.0,0.0,0.0,0.0,0.0,0.0,0.0,0.0,0.0,-5.0635,-5.1933,-5.3356,-5.4241,-5.4472,-5.4741,-5.5511,-5.5665,-5.6242,-5.7934,-5.8242,-5.7934,-5.7099,-5.6945,-5.6637,-5.578,-5.5703,-5.5703,-5.5703,-5.5703,-5.5703,-5.5703,-5.5756,-5.5807,-5.5895,-5.5952,-5.5998,-5.6003,-5.6012,-5.6012,-5.6012,-5.6012,-5.6012,-5.6012,-5.6012,-5.6012,-5.6012,-5.6012,-5.6012,-5.6012,-5.6012,-5.6012,-5.6012,-5.6012,-5.6012,-5.6089,-5.697,-5.7869,-5.8729,-5.9609,-6.0422,-6.1118,0.0,-5.0712,-5.0712,-5.0712,-5.0712,-5.0202,-4.8702,-4.8971,-4.9163,0.0,0.0,0.0,-4.9086,-4.7971,-4.7048,-4.6586,-4.597,-4.5594,-4.5594,-4.5594,-4.571,-4.5932,-4.597,-4.597,-4.597,-4.597,-4.5393,-4.4316,-4.4316,-4.4124,-4.3778,-4.3778,-4.3932,-4.4124,-4.3935,-4.3975,-4.4238,-4.4391,-4.4506,-4.4619,-4.5213,-4.5452,-4.549,-4.5729,-4.5652,-4.5452,-4.5452,-4.5315,-4.4969,-4.4353,-4.396,-4.3489,-4.2209,0.0,0.0,0.0,0.0,0.0,-4.0854,0.0,0.0,0.0,0.0,0.0,-4.9471,-5.0625,-5.1625,-5.2472,-5.3626,-5.4549,-5.478,-5.5318,-5.5857,-5.6357,-5.6434,-5.6319,-5.6088,-5.6049,-5.5972,-5.5742,-5.5703,-5.5703,-5.5703,-5.5703,-5.5703,-5.5703,-5.5724,-5.5766,-5.5895,-5.5941,-5.5995,-5.6003,-5.6012,-5.6012,-5.6012,-5.6012,-5.6012,-5.6012,-5.6012,-5.6012,-5.6012,-5.6012,-5.6012,-5.6012,-5.6012,-5.6012,-5.6012,-5.6012,-5.6012,-5.6167,-5.7637,-5.8372,-5.8767,-6.0228,-6.0925,-6.1118,-5.0048,-5.0442,-5.0712,-5.0712,-5.0712,-5.025,-4.8856,-4.9086,-4.9202,0.0,0.0,0.0,-4.9394,-4.8202,-4.7278,-4.6923,-4.6432,-4.5817,-4.5133,-4.5056,-4.5056,-4.5056,-4.5056,-4.5248,-4.5594,-4.5248,-4.4624,-4.3816,-4.3431,-4.3008,-4.2547,-4.2547,-4.2555,-4.2618,-4.2618,-4.2425,-4.2198,-4.3083,-4.3691,-4.4136,-4.4949,-4.5297,-4.5336,-4.5691,-4.5807,-4.5807,-4.5807,-4.5793,-4.5725,-4.5225,-4.4747,-4.4113,-4.2362,0.0,0.0,0.0,0.0,0.0,0.0,0.0,0.0,-4.4162,0.0,0.0,-4.8125,-4.9009,-4.9933,-5.1164,-5.2202,-5.3126,-5.3818,-5.4626,-5.5203,-5.5203,-5.5472,-5.5703,-5.5703,-5.5703,-5.5703,-5.5703,-5.5703,-5.5703,-5.5703,-5.5703,-5.5703,-5.5703,-5.5703,-5.5756,-5.5895,-5.5959,-5.6012,-5.6012,-5.6012,-5.6012,-5.6012,-5.6012,-5.6012,-5.6012,-5.6012,-5.6012,-5.6012,-5.6012,-5.6012,-5.6012,-5.6012,-5.6012,-5.6012,-5.6012,-5.6197,-5.6661,-5.8062,-5.8797,-5.93,-6.0615,-6.1118,-6.1118,0.0,-5.001,-5.0596,-5.0673,-5.0712,-5.0404,-4.9558,-4.9404,-4.9404,0.0,-4.949,-4.9567,-4.9567,-4.872,-4.7835,-4.7134,-4.6864,-4.6056,-4.441,-4.4325,-4.4286,-4.4171,-4.4248,-4.4662,-4.5441,-4.4701,-4.3893,-4.3085,-4.2239,-4.1731,-4.1662,-4.1662,-4.1686,-4.1763,-4.1762,-4.1374,-4.0758,-4.1532,-4.2318,-4.3131,-4.4168,-4.4632,-4.4794,-4.5529,-4.5807,-4.5807,-4.5807,-4.5807,-4.58,-4.5803,-4.5194,-4.416,-4.2563,-4.2008,-4.1931,0.0,-4.1923,0.0,0.0,0.0,0.0,-4.4316,-4.5547,0.0,-4.6778,-4.7394,-4.8394,-4.9971,-5.0442,-5.1048,-5.2626,-5.3626,-5.4241,-5.4357,-5.5049,-5.5588,-5.5703,-5.5703,-5.5703,-5.5703,-5.5703,-5.5703,-5.5703,-5.5703,-5.5703,-5.5703,-5.5714,-5.5766,-5.5895,-5.5959,-5.6012,-5.6012,-5.6012,-5.6012,-5.6012,-5.6012,-5.6012,-5.6012,-5.6012,-5.6012,-5.6012,-5.6012,-5.6012,-5.6012,-5.6012,-5.6012,-5.6012,-5.6012,-5.6506,-5.7396,-5.8255,-5.9145,-5.9996,-6.0809,-6.1118,-6.1118,-4.9125,-4.9548,-4.9856,-5.0596,-5.0712,-5.0414,-4.9604,-4.9489,-4.9468,-4.9474,-5.01,-5.0524,-5.0524,-4.9174,-4.821,-4.8056,-4.6736,-4.5502,-4.4453,-4.4391,-4.4066,-4.3373,-4.3948,-4.4393,-4.4547,-4.4393,-4.3893,-4.3085,-4.2239,-4.1431,-4.0746,-4.0746,-4.08,-4.0838,-4.0844,-4.0802,-4.072,-4.0952,-4.1126,-4.1467,-4.3711,-4.4987,-4.5568,-4.5729,-4.5807,-4.5807,-4.5807,-4.5807,-4.58,-4.5803,-4.5217,-4.4392,-4.4005,-4.3412,-4.2864,-4.2863,-4.2854,0.0,0.0,0.0,-4.4316,-4.4316,-4.5086,0.0,-4.5855,-4.6509,-4.724,-4.7586,-4.8702,-4.9971,-5.101,-5.1856,-5.2654,-5.3356,-5.4164,-5.4972,-5.5588,-5.5703,-5.5703,-5.5703,-5.5703,-5.5703,-5.5703,-5.5703,-5.5703,-5.5703,-5.5787,-5.5875,-5.5895,-5.5959,-5.6012,-5.6012,-5.6012,-5.6012,-5.6012,-5.6012,-5.6012,-5.6012,-5.6012,-5.6012,-5.6012,-5.6012,-5.6012,-5.6012,-5.6012,-5.6012,-5.6012,-5.6012,-5.6506,-5.7396,-5.8255,-5.9145,-5.9996,-6.0809,-6.1118,-6.1118,-4.8009,-4.8489,-4.9085,-4.9932,-5.0105,-5.0094,-5.0159,-5.0159,-5.013,-5.0156,-5.055,-5.0628,-5.0195,-4.9384,-4.8574,-4.7725,-4.6838,-4.5603,-4.3906,-4.3813,-4.3412,-4.2518,-4.2911,-4.3272,-4.3695,-4.3286,-4.2854,-4.247,-4.1585,-4.0931,-4.0516,-4.0531,-4.0561,-4.0598,-4.064,-4.0674,-4.0746,-4.0803,-4.1048,-4.1545,-4.3247,-4.4175,-4.4639,-4.5497,-4.5807,-4.5807,-4.5807,-4.5807,-4.58,-4.5803,-4.5503,-4.5055,-4.4592,-4.4153,-4.3798,-4.375,-4.3734,-4.3849,-4.4248,-4.4624,-4.494,-4.494,-4.5287,0.0,0.0,-4.5932,-4.6355,-4.6817,-4.7586,-4.8394,-4.924,-5.0087,-5.0933,-5.1818,-5.2664,-5.351,-5.4357,-5.5164,-5.5703,-5.5703,-5.5703,-5.5703,-5.5703,-5.5703,-5.5703,-5.5703,-5.5787,-5.5875,-5.5895,-5.5971,-5.5986,-5.6003,-5.6012,-5.6012,-5.6012,-5.6012,-5.6012,-5.6012,-5.6012,-5.6012,-5.6012,-5.6012,-5.6012,-5.6012,-5.6012,-5.6012,-5.6012,-5.6012,-5.6786,-5.7985,-5.841,-5.9377,-6.0538,-6.0963,-6.1118,-6.1118,-4.6835,-4.7486,-4.8244,-4.913,-4.9273,-4.9577,-5.0443,-5.0559,-5.0645,-5.0799,-5.0808,-5.0529,-4.9864,-4.9633,-4.8938,-4.7394,-4.7124,-4.6013,-4.3627,-4.3311,-4.284,-4.1938,-4.1909,-4.2194,-4.2849,-4.2163,-4.1832,-4.1832,-4.0954,-4.0539,-4.0539,-4.0569,-4.0605,-4.0602,-4.0668,-4.0739,-4.0816,0.0,0.0,-4.1854,-4.2899,-4.3401,-4.3711,-4.522,-4.5807,-4.5807,-4.5807,-4.5807,-4.58,-4.581,-4.5795,-4.5672,-4.4978,-4.4739,-4.4724,-4.4685,-4.463,-4.4776,-4.5428,-4.5603,-4.5603,-4.5594,-4.5594,-4.5594,0.0,0.0,0.0,-4.6509,-4.6663,-4.6894,0.0,0.0,-4.9202,-5.0048,-5.0894,-5.1654,-5.2356,-5.378,-5.4857,-5.5164,-5.5203,-5.528,-5.5434,-5.5472,-5.5472,-5.5472,-5.5525,-5.5586,-5.5663,-5.5875,-5.5998,-5.6003,-5.6012,-5.6012,-5.6012,-5.6012,-5.6012,-5.6012,-5.6012,-5.6012,-5.6012,-5.6012,-5.6012,-5.6012,-5.6012,-5.6012,-5.6012,-5.6012,-5.7018,-5.8613,-5.8613,-5.9609,-6.1118,-6.1118,-6.1118,-6.1118,-4.6543,-4.7092,-4.74,-4.8287,-4.845,-4.8737,-4.9597,-4.9752,-5.0,-5.0805,-5.089,-5.0844,-5.0728,-5.0117,-4.9305,-4.8338,-4.7526,-4.6327,-4.4548,-4.367,-4.2844,-4.2026,-4.1945,-4.1923,-4.2039,-4.1955,-4.1878,-4.1878,-4.1036,-4.0581,-4.0581,-4.0581,-4.064,-4.0674,-4.0713,-4.0739,0.0,0.0,-4.0855,0.0,-4.2667,-4.375,-4.4555,-4.5452,-4.5807,-4.5807,-4.5807,-4.5807,-4.5807,-4.58,-4.58,-4.5793,-4.5679,-4.5665,-4.5657,-4.5573,0.0,0.0,-4.5662,-4.5693,-4.5684,-4.5603,-4.5594,-4.5594,-4.5594,0.0,-4.5633,-4.5748,0.0,-4.6009,-4.6894,0.0,0.0,-4.8279,-4.9125,-4.9702,-4.9817,-5.0664,-5.1818,-5.3318,-5.3472,-5.378,-5.4549,-5.4626,-5.4626,-5.4626,-5.4639,-5.4699,-5.4747,-5.5527,-5.5998,-5.6003,-5.6012,-5.6012,-5.6012,-5.6012,-5.6012,-5.6012,-5.6012,-5.6012,-5.6012,-5.6012,-5.6012,-5.6012,-5.6012,-5.6012,-5.6012,-5.6012,-5.7018,-5.8613,-5.8613,-5.9609,-6.1118,-6.1118,-6.1118,-6.1118,-4.4592,-4.5187,-4.5827,-4.6685,-4.7279,-4.7882,-4.8787,-4.9336,-4.9954,-5.0782,-5.0898,-5.0705,-5.0241,-4.99,0.0,0.0,0.0,-4.7154,0.0,-4.4942,-4.4116,-4.2795,-4.2258,-4.1967,-4.1967,-4.1405,-4.1166,-4.1166,-4.0781,-4.0595,-4.0595,-4.0647,-4.0668,-4.072,-4.0739,0.0,-4.1506,0.0,-4.1777,0.0,-4.3556,-4.4284,-4.4671,-4.549,-4.5807,-4.5807,-4.5807,-4.6116,-4.6542,-4.6542,-4.6883,-4.7231,-4.6714,-4.69,-4.7202,-4.6661,0.0,0.0,-4.7061,-4.6475,-4.5803,-4.6224,-4.6022,-4.5667,-4.5603,-4.5594,-4.5594,-4.5594,0.0,0.0,0.0,0.0,0.0,0.0,-4.7702,-4.8125,-4.8586,-4.8971,-5.001,-5.2192,-5.2462,-5.2779,-5.3664,-5.3741,-5.3741,-5.3741,-5.3762,-5.3773,-5.3821,-5.4698,-5.5198,-5.5316,-5.578,-5.6012,-5.6012,-5.6012,-5.6012,-5.6012,-5.6012,-5.6012,-5.6012,-5.6012,-5.6012,-5.6012,-5.6012,-5.6012,-5.6051,-5.6545,-5.7482,-5.8651,-5.9145,-6.0074,-6.1118,-6.1118,-6.1118,-6.1118,-4.2521,0.0,-4.4365,-4.4984,-4.5824,-4.6767,-4.7889,-4.8972,-4.99,-5.0473,-5.0743,-5.0666,-5.0094,-5.0016,0.0,0.0,-4.8778,-4.8043,0.0,-4.5962,-4.5142,-4.3711,-4.2833,-4.224,-4.2008,-4.1331,-4.0892,-4.0661,-4.0661,-4.0661,-4.0661,-4.0688,-4.0733,-4.0733,-4.0997,-4.1429,-4.2009,0.0,-4.2705,-4.3363,-4.4246,-4.4717,-4.4987,-4.5568,-4.5807,-4.5807,-4.5807,-4.6348,-4.7115,-4.7115,-4.7695,-4.8275,-4.7657,-4.7889,-4.8268,0.0,0.0,0.0,-4.8144,-4.7364,-4.6507,-4.6844,-4.6296,-4.5671,-4.5637,-4.5428,-4.5411,-4.5881,-4.5757,0.0,0.0,0.0,-4.5825,-4.6432,0.0,-4.674,-4.7317,-4.7201,-4.8009,-5.0538,-5.1269,-5.1933,-5.2779,-5.2856,-5.2856,-5.2856,-5.2856,-5.2868,-5.2972,-5.4023,-5.4639,-5.4813,-5.5586,-5.6012,-5.6012,-5.6012,-5.6012,-5.6012,-5.6012,-5.6012,-5.6012,-5.6012,-5.6012,-5.6012,-5.6012,-5.6012,-5.6089,-5.6932,-5.783,-5.869,-5.9571,-6.0383,-6.1118,-6.1118,-6.1118,-6.1118,-4.0897,-4.2222,0.0,-4.3395,-4.4091,-4.5258,-4.6883,-4.8585,-4.9707,-4.9745,-5.0434,-5.0898,0.0,0.0,0.0,0.0,0.0,-4.8933,-4.7192,0.0,-4.5413,-4.4594,-4.3704,-4.286,-4.2009,-4.197,-4.1583,-4.0771,-4.0771,-4.0771,-4.0771,-4.081,-4.081,-4.081,-4.1622,-4.197,-4.2048,-4.2899,-4.3285,-4.3363,-4.4246,-4.5065,-4.5768,-4.5807,-4.5807,-4.5807,-4.5807,-4.6348,-4.7115,-4.7115,-4.7695,-4.8392,-4.8353,-4.8392,-4.8392,-4.8353,-4.8353,-4.8345,-4.8307,-4.8253,-4.8013,-4.7201,-4.6344,-4.568,-4.568,-4.5024,-4.4906,-4.6532,-4.6198,-4.5864,-4.6701,-4.6163,-4.5594,-4.5633,-4.5633,0.0,0.0,-4.4932,-4.5355,-4.7932,-4.9702,-5.1048,-5.1846,-5.1923,-5.1923,-5.1923,-5.1923,-5.2011,-5.2124,-5.3715,-5.4639,-5.4813,-5.5586,-5.6012,-5.6012,-5.6012,-5.6012,-5.6012,-5.6012,-5.6012,-5.6012,-5.6012,-5.6012,-5.6012,-5.6012,-5.6012,-5.6089,-5.6932,-5.783,-5.869,-5.9571,-6.0383,-6.1118,-6.1118,-6.1118,-6.1118,-4.0881,-4.1308,-4.1879,0.0,-4.3685,-4.5209,-4.692,-4.8132,-4.9047,-4.9628,-5.0883,0.0,0.0,-5.2298,-5.2298,0.0,0.0,-5.0635,-4.8933,-4.8546,0.0,-4.6303,-4.5413,-4.4562,0.0,-4.2589,-4.1854,-4.1583,-4.1048,-4.0816,-4.0816,-4.0816,-4.0816,-4.0855,-4.1622,-4.2318,0.0,0.0,0.0,0.0,0.0,-4.5568,-4.5807,-4.5807,-4.5807,-4.5884,-4.6464,-4.7231,-4.8043,-4.8624,-4.9359,-4.9977,-4.9436,-4.9629,-4.9939,-4.9436,-4.9243,-4.9351,-4.9877,-4.922,-4.84,-4.867,-4.7658,-4.6607,-4.6584,-4.6328,-4.6265,-4.681,-4.711,-4.74,-4.7663,-4.7471,-4.7086,-4.6547,-4.6471,-4.6047,0.0,-4.4047,-4.4239,-4.6201,-4.7932,-4.9086,-4.9356,-4.9385,-4.9385,-4.9385,-4.9933,-5.0269,-5.0373,-5.2577,-5.3819,-5.3872,-5.526,-5.6012,-5.6012,-5.6012,-5.6012,-5.6012,-5.6012,-5.6012,-5.6012,-5.6012,-5.6012,-5.6012,-5.6012,-5.6012,-5.6128,-5.7559,-5.8333,-5.8729,-6.0151,-6.0847,-6.1118,-6.1118,-6.1118,-6.1118,-4.1012,-4.1181,-4.1557,-4.2034,-4.3552,-4.5159,-4.6544,-4.7721,-4.8625,0.0,-5.0983,0.0,-5.219,0.0,-5.3265,0.0,-5.2384,-5.1602,-5.021,-4.9861,0.0,-4.7618,-4.6999,-4.6187,0.0,0.0,-4.3053,-4.2473,-4.1622,-4.1242,-4.1242,-4.0932,-4.0816,-4.0855,-4.197,-4.2783,-4.3363,-4.4523,-4.5336,0.0,0.0,-4.5807,-4.5845,-4.6155,-4.6271,-4.6348,-4.6883,-4.785,-4.8933,-4.9513,-5.0241,-5.0821,-5.0279,-5.0473,-5.0782,-5.0279,-5.0364,-5.0712,-5.1215,-5.079,-5.0241,-5.0488,-4.9243,-4.7998,-4.7975,-4.7496,-4.7201,-4.7722,-4.8022,-4.8265,-4.8519,-4.8317,-4.7855,-4.7038,-4.6885,-4.6201,0.0,-4.3431,-4.3508,-4.4586,-4.6201,-4.7432,-4.8048,-4.8086,-4.8086,-4.8086,-4.8894,-4.9413,-4.9498,-5.1681,-5.3077,-5.3391,-5.4826,-5.5702,-5.6012,-5.6012,-5.6012,-5.6012,-5.6012,-5.6012,-5.6012,-5.6012,-5.6012,-5.6012,-5.6012,-5.6158,-5.6583,-5.8023,-5.8767,-5.9184,-6.0576,-6.1118,-6.1118,-6.1118,-6.1118,-6.1118,-4.123,-4.1818,-4.2419,-4.2354,-4.3666,-4.5025,-4.5936,-4.7472,-4.849,0.0,-5.0741,-5.2353,-5.2276,-5.308,-5.3622,-5.3583,-5.2771,-5.192,-5.1022,-5.021,0.0,0.0,-4.8469,-4.7657,-4.5962,0.0,0.0,0.0,0.0,-4.2009,-4.197,-4.1164,-4.0816,-4.0855,-4.255,0.0,-4.3401,-4.5104,-4.5807,-4.5807,-4.5807,-4.5845,-4.5962,-4.6767,-4.7154,-4.7231,-4.7231,-4.8275,-4.9707,-4.9745,-5.0279,-5.0898,-5.0898,-5.0898,-5.0898,-5.0898,-5.1525,-5.219,-5.219,-5.284,-5.3304,-5.2461,-5.1022,-4.9823,-4.9823,-4.8555,-4.7782,-4.9307,-4.8964,-4.8621,-4.9365,-4.8817,-4.7971,-4.7077,-4.6808,-4.5855,-4.3431,-4.3047,-4.3008,-4.3085,-4.4509,-4.6124,0.0,-4.7971,-4.7971,-4.7971,-4.8779,-4.9336,-4.9421,-5.1103,-5.2459,-5.3383,-5.4323,-5.52,-5.6012,-5.6012,-5.6012,-5.6012,-5.6012,-5.6012,-5.6012,-5.6012,-5.6012,-5.6012,-5.6051,-5.6545,-5.7357,-5.8294,-5.9145,-5.9996,-6.0809,-6.1118,-6.1118,-6.1118,-6.1118,-6.1118,-4.2098,-4.3229,-4.4243,-4.4275,-4.4589,-4.5371,-4.6863,-4.7946,-4.8792,0.0,-5.1703,-5.3247,-5.3243,-5.4599,-5.5258,-5.4606,-5.3724,0.0,0.0,0.0,0.0,-4.9397,-4.9359,-4.8856,-4.7773,-4.6464,-4.5575,-4.5142,0.0,0.0,-4.197,0.0,0.0,0.0,0.0,-4.3285,-4.3401,-4.5104,-4.5807,-4.5807,-4.5807,-4.6194,-4.6806,-4.6999,-4.7889,-4.9049,-4.9049,-4.932,-4.9784,-5.0395,-5.0743,-5.0898,-5.0898,-5.0898,-5.0898,-5.0898,-5.1525,-5.219,-5.219,-5.284,-5.3459,-5.3227,-5.2376,-5.1563,-5.1563,-5.1215,-5.099,-5.1361,-5.1266,-5.1123,-5.125,-5.0587,-4.9548,-4.8048,0.0,0.0,-4.3201,-4.197,-4.1662,-4.2931,-4.347,-4.4393,-4.6086,-4.624,-4.624,-4.624,-4.7048,-4.7817,-4.8451,-5.0159,-5.1824,-5.3261,-5.4267,-5.52,-5.6012,-5.6012,-5.6012,-5.6012,-5.6012,-5.6012,-5.6012,-5.6012,-5.6012,-5.6051,-5.6661,-5.7086,-5.7434,-5.8952,-5.9687,-5.9996,-6.0809,-6.1118,-6.1118,-6.1118,-6.1118,-6.1118,-4.3029,-4.4043,-4.5215,-4.6003,-4.6105,-4.6394,-4.7357,-4.8493,-4.943,-4.9867,-5.1808,-5.324,-5.3598,-5.4861,-5.5623,-5.55,-5.434,0.0,-5.2918,0.0,0.0,-5.0248,-5.0202,-4.9823,-4.8972,-4.7618,0.0,-4.5807,0.0,0.0,-4.197,0.0,0.0,0.0,0.0,-4.2937,-4.3401,-4.5104,-4.5807,-4.5845,-4.6194,-4.6651,0.0,-4.7966,-4.8856,-4.9745,-5.0094,-5.0202,-5.0279,-5.0743,-5.0898,-5.0898,-5.0898,-5.0898,-5.0975,-5.137,-5.2105,-5.284,-5.3227,-5.3962,-5.4581,-5.4581,-5.3962,-5.3343,-5.3343,-5.3033,-5.2746,-5.267,-5.2643,-5.2491,-5.2021,-5.1558,-5.0548,0.0,-4.5586,-4.3624,-4.3624,-4.247,-4.2124,-4.347,-4.3624,-4.4124,-4.5479,-4.5594,-4.5594,-4.5594,-4.6394,-4.7249,-4.8084,-4.9465,-5.1177,-5.3279,-5.3928,-5.4813,-5.6012,-5.6012,-5.6012,-5.6012,-5.6012,-5.6012,-5.6012,-5.6012,-5.6012,-5.6051,-5.6932,-5.7512,-5.7985,-5.9339,-6.0112,-6.046,-6.0925,-6.1118,-6.1118,-6.1118,-6.1118,-6.1118,-4.4022,-4.4567,-4.5699,0.0,-4.7692,-4.7803,-4.7863,-4.9133,-5.0126,-5.0176,-5.155,-5.281,-5.3648,-5.4513,-5.5341,-5.6167,-5.4615,-5.3592,-5.3591,-5.1981,-5.099,-5.0898,-5.0898,-5.055,-4.9861,-4.8894,-4.7579,0.0,0.0,0.0,0.0,0.0,0.0,0.0,0.0,0.0,0.0,-4.5142,-4.5807,-4.5884,-4.6728,-4.7154,-4.7463,-4.9088,-4.9784,-4.9939,-5.0666,-5.0898,-5.0898,-5.0898,-5.0898,-5.0898,-5.0898,-5.0975,-5.1215,-5.1989,-5.2879,-5.3846,-5.4581,-5.5393,-5.6012,-5.6012,-5.547,-5.4967,-5.4967,-5.4387,-5.3799,-5.3748,-5.3588,-5.3195,-5.2329,-5.1847,-5.0808,0.0,-4.6047,-4.4432,-4.4316,-4.3624,0.0,0.0,-4.4316,0.0,-4.5518,-4.5518,-4.5441,-4.5441,-4.6124,-4.695,-4.782,-4.8827,-5.0529,-5.3159,-5.3395,-5.431,-5.5973,-5.6012,-5.6012,-5.6012,-5.6012,-5.6012,-5.6012,-5.6012,-5.6042,-5.6197,-5.7086,-5.7946,-5.8836,-5.9687,-6.046,-6.1118,-6.1118,-6.1118,-6.1118,-6.1118,-6.1118,-6.1118,-4.4804,-4.5469,0.0,0.0,-4.8203,-4.8906,-4.9608,-4.995,-5.0364,-5.1054,-5.1974,-5.2893,-5.3777,-5.4589,-5.5428,-5.629,-5.4728,-5.3691,-5.3676,-5.2017,-5.099,-5.0898,-5.0898,-5.0821,-5.0705,-4.9204,-4.7889,-4.6883,-4.4485,-4.286,-4.197,-4.1164,0.0,0.0,0.0,0.0,-4.4439,-4.5374,-4.5807,-4.5884,-4.6728,-4.754,-4.8275,-4.932,-5.0132,-5.0705,-5.0859,-5.0898,-5.0898,-5.0898,-5.0898,-5.0898,-5.0898,-5.1409,-5.1989,-5.2152,-5.3343,-5.4619,-5.4774,-5.5393,-5.6012,-5.6012,-5.5896,-5.578,-5.578,-5.5664,-5.5569,-5.5564,-5.4939,-5.412,-5.3215,-5.1318,-4.9471,-4.8279,-4.6586,-4.5133,-4.4393,-4.3624,0.0,0.0,-4.4316,-4.4624,-4.5518,-4.494,-4.4509,-4.4509,-4.4662,-4.515,-4.6086,-4.7632,-4.968,-5.2271,-5.3086,-5.431,-5.5973,-5.6012,-5.6012,-5.6012,-5.6012,-5.6012,-5.6012,-5.6012,-5.639,-5.7125,-5.7985,-5.8874,-5.9725,-6.0538,-6.0963,-6.1118,-6.1118,-6.1118,-6.1118,-6.1118,-6.1118,-6.1118,-4.6914,0.0,0.0,0.0,-4.9297,-4.9844,-5.0703,-5.0819,-5.0932,-5.1357,-5.1738,-5.2317,-5.3173,-5.3633,-5.4203,-5.5032,-5.3904,-5.3103,-5.304,-5.1781,-5.1016,-5.0937,-5.0937,-5.0921,-5.0898,-4.9243,-4.7966,-4.7115,-4.4562,-4.286,-4.197,-4.1164,0.0,0.0,0.0,-4.3401,0.0,-4.5955,-4.6464,-4.6573,-4.7927,-4.8701,-4.9165,-5.0016,-5.055,-5.0898,-5.0898,-5.0898,-5.0898,-5.0898,-5.0898,-5.0975,-5.1447,-5.1873,-5.2384,-5.3265,-5.4155,-5.489,-5.5316,-5.5702,-5.6012,-5.6012,-5.6012,-5.6012,-5.6012,-5.6012,-5.6003,-5.6016,-5.5632,-5.492,-5.3533,-5.1511,-4.9779,-4.8933,-4.7355,-4.6124,-4.5701,-4.4932,-4.4547,0.0,0.0,0.0,-4.494,-4.4162,-4.3855,-4.4278,-4.4316,-4.4696,-4.5657,-4.7339,-4.9264,-5.1407,-5.2793,-5.4116,-5.5354,-5.578,-5.6012,-5.6012,-5.6012,-5.6012,-5.6012,-5.6467,-5.6893,-5.7357,-5.8681,-5.9493,-5.9957,-6.077,-6.1118,-6.1118,-6.1118,-6.1118,-6.1118,-6.1118,-6.1118,-6.1118,-4.8789,-4.8906,0.0,-5.0039,-5.0195,-5.0469,-5.1289,-5.1406,-5.1406,-5.1405,-5.1403,-5.1713,-5.2613,-5.2687,-5.3029,-5.3867,-5.31,-5.2543,-5.2446,-5.1625,-5.1094,-5.1034,-5.1012,-5.099,-5.0914,-4.9436,-4.8159,-4.7115,-4.491,-4.3208,-4.197,-4.1351,-4.1048,-4.1126,-4.2821,-4.4059,-4.4949,-4.6457,-4.7192,-4.7502,-4.9088,-4.9707,-4.9784,-5.0589,-5.0898,-5.0898,-5.0898,-5.1014,-5.1177,-5.1177,-5.1177,-5.1293,-5.1989,-5.2461,-5.3033,-5.4387,-5.4929,-5.52,-5.5818,-5.6012,-5.6012,-5.6012,-5.6012,-5.6012,-5.6012,-5.6012,-5.6012,-5.6012,-5.5852,-5.52,-5.361,-5.2011,-5.0625,-4.9586,-4.8279,-4.7317,-4.6962,-4.6317,-4.5825,0.0,0.0,0.0,-4.4393,-4.3585,-4.3278,-4.3739,-4.3778,-4.4166,-4.5094,-4.6791,-4.8646,-5.0573,-5.2329,-5.3721,-5.4774,-5.5586,-5.6012,-5.6012,-5.6012,-5.6089,-5.6313,-5.697,-5.7512,-5.7946,-5.93,-5.9996,-6.019,-6.0847,-6.1118,-6.1118,-6.1118,-6.1118,-6.1118,-6.1118,-6.1118,-6.1127,-4.8867,0.0,-4.918,-5.0039,-5.0195,-5.0469,-5.1289,-5.1406,-5.1406,-5.1406,-5.1406,-5.1719,-5.2617,-5.2695,-5.3045,-5.3935,-5.3178,-5.2637,-5.2485,-5.1677,-5.1181,-5.1069,-5.1041,-5.1005,-5.0998,-5.007,-4.8778,-4.7115,-4.6078,-4.433,-4.2009,-4.1932,-4.1893,-4.197,-4.3711,-4.4949,-4.5768,-4.6689,-4.754,-4.8353,-4.932,-4.9707,-4.9784,-5.0589,-5.0898,-5.0898,-5.0898,-5.1409,-5.2066,-5.2066,-5.2066,-5.2105,-5.219,-5.3265,-5.4581,-5.4735,-5.5316,-5.5896,-5.5973,-5.6012,-5.6012,-5.6012,-5.6012,-5.6012,-5.6012,-5.6012,-5.6012,-5.6012,-5.5323,-5.4438,-5.3485,-5.2463,-5.1269,-4.9663,-4.9279,-4.8625,-4.7115,-4.6808,-4.6509,-4.571,0.0,0.0,-4.4393,-4.3585,-4.2816,-4.2077,-4.2038,-4.2409,-4.3312,-4.5015,-4.71,-4.9652,-5.1399,-5.3116,-5.4774,-5.5586,-5.6012,-5.6012,-5.6012,-5.639,-5.7164,-5.7241,-5.8178,-5.9687,-5.9841,-6.0306,-6.1002,-6.1079,-6.1118,-6.1118,-6.1118,-6.1118,-6.1118,-6.1118,-6.1146,-6.1182,-5.0312,-5.0391,-5.0508,-5.0859,-5.0937,-5.1016,-5.1367,-5.1406,-5.1406,-5.1406,-5.1406,-5.1523,-5.1875,-5.1914,-5.207,-5.2418,-5.2138,-5.1888,-5.1854,-5.1463,-5.1217,-5.1152,-5.113,-5.1121,-5.1075,-5.0167,-4.9357,-4.8667,-4.6742,-4.5304,-4.4337,-4.3285,-4.3324,-4.4291,-4.5026,-4.6071,-4.7424,-4.8275,-4.8856,-4.9243,-5.0094,-5.0434,-5.0473,-5.0782,-5.1215,-5.1679,-5.1679,-5.2221,-5.2995,-5.2995,-5.2995,-5.3072,-5.3614,-5.4233,-5.489,-5.5393,-5.5741,-5.6012,-5.6012,-5.6012,-5.6012,-5.6012,-5.6012,-5.6012,-5.6012,-5.6012,-5.6012,-5.6012,-5.5689,-5.5161,-5.4265,-5.3369,-5.2358,-5.1087,-5.0048,-4.9163,-4.8509,-4.7548,-4.6778,-4.6432,0.0,-4.447,-4.3662,-4.2816,-4.22,-4.1808,-4.2277,-4.2717,-4.3073,-4.5701,-4.7692,-4.88,-5.1464,-5.3172,-5.3885,-5.5266,-5.5961,-5.5961,-5.6463,-5.6888,-5.7274,-5.8317,-5.9466,-6.0615,-6.0615,-6.0809,-6.1118,-6.1118,-6.1118,-6.1118,-6.1118,-6.1137,-6.1155,-6.1155,-6.1208,-6.1275,-5.1289,-5.1406,-5.1406,-5.1406,-5.1406,-5.1406,-5.1406,-5.1406,-5.1406,-5.1406,-5.1406,-5.1406,-5.1406,-5.1406,-5.1406,-5.1405,-5.1403,-5.1397,-5.1384,-5.1364,-5.1291,-5.1242,-5.123,-5.1169,-5.1145,-5.0461,-4.9988,-4.9695,-4.7847,-4.6704,-4.6232,-4.4987,-4.5065,-4.6194,-4.6464,-4.7386,-4.8817,-4.9436,-4.9861,-5.0094,-5.0666,-5.0906,-5.096,-5.1192,-5.1711,-5.226,-5.2539,-5.3151,-5.3925,-5.3925,-5.4088,-5.4367,-5.4691,-5.5001,-5.5318,-5.5891,-5.6046,-5.6046,-5.6046,-5.6046,-5.6046,-5.6029,-5.6029,-5.6029,-5.6012,-5.6012,-5.6012,-5.6012,-5.6007,-5.5691,-5.4766,-5.4092,-5.3263,-5.2087,-5.0933,-4.9971,-4.9471,-4.8163,-4.7154,-4.6923,-4.5586,-4.4355,-4.3547,-4.2893,-4.2431,-4.22,-4.297,-4.3448,-4.3442,-4.5984,-4.7705,-4.8249,-5.1296,-5.304,-5.329,-5.5017,-5.6011,-5.6281,-5.6898,-5.7438,-5.7988,-5.9456,-6.051,-6.106,-6.106,-6.106,-6.1118,-6.1118,-6.1118,-6.1118,-6.1118,-6.1146,-6.1191,-6.1199,-6.1236,-6.1327,-5.1406,-5.1406,-5.1406,-5.1406,-5.1406,-5.1406,-5.1406,-5.1406,-5.1406,-5.1406,-5.1406,-5.1406,-5.1406,-5.1406,-5.1406,-5.1406,-5.1406,-5.1403,-5.1398,-5.1385,-5.1364,-5.1297,-5.1246,-5.1186,-5.1214,-5.1113,-5.0617,-4.9695,-4.9657,-4.8783,-4.7076,-4.7076,-4.7076,-4.7115,-4.7966,-4.8856,-4.9668,-4.9707,-5.0171,-5.0898,-5.0898,-5.0929,-5.1083,-5.1942,-5.2274,-5.2419,-5.3279,-5.4132,-5.4861,-5.4861,-5.5472,-5.5991,-5.5103,-5.5451,-5.618,-5.618,-5.6218,-5.6218,-5.6218,-5.6218,-5.6164,-5.6125,-5.6117,-5.6062,-5.602,-5.6012,-5.6012,-5.6012,-5.6007,-5.5691,-5.4766,-5.4555,-5.3918,-5.2164,-5.1885,-5.1269,-4.9625,-4.8625,-4.7778,-4.7,-4.6124,-4.5248,-4.4355,-4.4278,-4.3932,-4.3124,-4.3816,-4.4278,-4.4278,-4.5133,-4.6429,-4.8167,-5.0672,-5.2425,-5.329,-5.5017,-5.6319,-5.7168,-5.7168,-5.8055,-5.9714,-6.0562,-6.099,-6.1002,-6.1002,-6.1032,-6.1118,-6.1118,-6.1118,-6.1118,-6.1118,-6.1146,-6.1191,-6.1203,-6.1259,-6.1408,-5.1406,-5.1406,-5.1406,-5.1406,-5.1406,-5.1406,-5.1406,-5.1406,-5.1406,-5.1406,-5.1406,-5.1406,-5.1406,-5.1406,-5.1406,-5.1406,-5.1406,-5.1406,-5.1405,-5.1402,-5.1396,-5.1385,-5.1362,-5.1291,-5.1257,-5.122,-5.1036,-5.073,-5.0054,-4.9093,-4.8005,-4.8005,-4.8314,-4.8894,-4.9165,-4.9745,-5.0511,-5.0511,-5.0666,-5.0945,-5.1595,-5.185,-5.1988,-5.2898,-5.3578,-5.4096,-5.4433,-5.51,-5.5799,-5.5825,-5.6045,-5.623,-5.5986,-5.6069,-5.6259,-5.6259,-5.6272,-5.6284,-5.6265,-5.6239,-5.6174,-5.617,-5.618,-5.6157,-5.6141,-5.6117,-5.6046,-5.6012,-5.5995,-5.5882,-5.5528,-5.4969,-5.4198,-5.2982,-5.2269,-5.15,-5.0433,-4.9009,-4.8009,-4.774,-4.5932,-4.4586,-4.4316,-4.3816,-4.3855,-4.4748,-4.5056,-4.521,-4.521,-4.6509,-4.8095,-4.9846,-5.1809,-5.3233,-5.41,-5.5794,-5.6795,-5.7065,-5.822,-5.9397,-6.0509,-6.0817,-6.0948,-6.1002,-6.1002,-6.1032,-6.1118,-6.1118,-6.1118,-6.1118,-6.1118,-6.1164,-6.1289,-6.1283,-6.1357,-6.1461,-5.1406,-5.1406,-5.1406,-5.1406,-5.1406,-5.1406,-5.1406,-5.1406,-5.1406,-5.1406,-5.1406,-5.1406,-5.1406,-5.1406,-5.1406,-5.1406,-5.1406,-5.1406,-5.1406,-5.1406,-5.1405,-5.1402,-5.1393,-5.1377,-5.1352,-5.1261,-5.1239,-5.1185,-5.0507,-4.9913,-4.9381,-4.9366,-4.9637,-5.0194,-5.0194,-5.0472,-5.0983,-5.13,-5.1416,-5.1494,-5.2436,-5.282,-5.2932,-5.3883,-5.4535,-5.5019,-5.5392,-5.5869,-5.6264,-5.6324,-5.6354,-5.6386,-5.6414,-5.6406,-5.6381,-5.6354,-5.6354,-5.6324,-5.6334,-5.6308,-5.6281,-5.6233,-5.6226,-5.6209,-5.6164,-5.6133,-5.6062,-5.602,-5.6012,-5.5977,-5.5914,-5.548,-5.468,-5.3415,-5.2731,-5.201,-5.0866,-4.9202,-4.8086,-4.8086,-4.6432,-4.5278,-4.5278,-4.4816,-4.5086,-4.6432,-4.624,-4.6509,-4.748,-4.8509,-4.9586,-5.0673,-5.2626,-5.4087,-5.4934,-5.6329,-5.733,-5.7973,-5.9319,-6.0304,-6.0877,-6.0877,-6.0894,-6.0941,-6.0941,-6.0982,-6.1051,-6.1109,-6.1127,-6.1146,-6.1164,-6.1234,-6.1353,-6.1356,-6.1429,-6.1564,-5.1406,-5.1406,-5.1406,-5.1406,-5.1406,-5.1406,-5.1406,-5.1406,-5.1406,-5.1406,-5.1406,-5.1406,-5.1406,-5.1406,-5.1406,-5.1406,-5.1406,-5.1406,-5.1406,-5.1406,-5.1406,-5.1405,-5.1402,-5.1394,-5.1418,-5.1355,-5.1268,-5.1211,-5.1069,-5.102,-5.1012,-5.0929,-5.0975,-5.109,-5.109,-5.115,-5.134,-5.2084,-5.2394,-5.2478,-5.3418,-5.3817,-5.3913,-5.484,-5.519,-5.5307,-5.6125,-5.6406,-5.6422,-5.6422,-5.6446,-5.6511,-5.6511,-5.653,-5.6501,-5.6425,-5.641,-5.6407,-5.6429,-5.641,-5.6386,-5.6334,-5.6314,-5.6278,-5.6126,-5.6125,-5.607,-5.602,-5.6012,-5.5977,-5.5914,-5.5895,-5.5326,-5.3482,-5.3203,-5.2626,-5.0943,-4.924,-4.8202,-4.8202,-4.7471,-4.6962,-4.6962,-4.6962,-4.7317,-4.8125,-4.7509,-4.8163,-5.0673,-5.0827,-5.0904,-5.0981,-5.3318,-5.4972,-5.578,-5.6714,-5.7973,-5.9588,-6.0396,-6.0781,-6.0781,-6.0781,-6.0854,-6.0911,-6.0911,-6.0948,-6.1022,-6.107,-6.1155,-6.1199,-6.1289,-6.1361,-6.1394,-6.1466,-6.1525,-6.1609,-5.1406,-5.1406,-5.1406,-5.1406,-5.1406,-5.1406,-5.1406,-5.1406,-5.1406,-5.1406,-5.1406,-5.1406,-5.1406,-5.1406,-5.1406,-5.1406,-5.1406,-5.1406,-5.1406,-5.1406,-5.1406,-5.1406,-5.1406,-5.1405,-5.1401,-5.1389,-5.1308,-5.12,-5.1169,-5.1145,-5.1089,-5.1048,-5.1404,-5.2065,-5.2065,-5.2453,-5.3085,-5.3279,-5.3374,-5.3436,-5.4396,-5.4777,-5.4888,-5.5822,-5.6163,-5.6182,-5.6389,-5.6472,-5.6475,-5.6487,-5.6493,-5.6499,-5.6551,-5.6595,-5.6556,-5.6499,-5.6499,-5.6541,-5.6491,-5.6472,-5.6485,-5.6464,-5.6411,-5.6347,-5.6272,-5.6213,-5.6148,-5.6078,-5.6029,-5.5977,-5.5914,-5.5895,-5.5326,-5.3482,-5.3203,-5.2626,-5.0943,-4.9779,-4.9086,-4.9086,-4.8355,-4.7817,-4.7817,-4.7817,-4.8163,-4.9048,-4.8933,-4.9625,-5.151,-5.2241,-5.2895,-5.3587,-5.478,-5.5818,-5.6676,-5.8165,-5.9435,-6.0473,-6.0704,-6.0781,-6.0781,-6.0781,-6.0877,-6.0976,-6.0976,-6.1021,-6.1155,-6.1169,-6.1212,-6.1291,-6.1344,-6.1401,-6.1466,-6.1489,-6.1534,-6.1596,-5.1406,-5.1406,-5.1406,-5.1406,-5.1406,-5.1406,-5.1406,-5.1406,-5.1406,-5.1406,-5.1406,-5.1406,-5.1406,-5.1406,-5.1562,-5.1953,-5.1641,-5.1406,-5.1406,-5.1406,-5.1406,-5.1406,-5.1406,-5.1406,-5.1406,-5.1792,-5.2122,-5.2441,-5.239,-5.2383,-5.2336,-5.2302,-5.258,-5.3041,-5.3052,-5.3317,-5.3818,-5.4221,-5.439,-5.4441,-5.5354,-5.5723,-5.5783,-5.6313,-5.6523,-5.6534,-5.654,-5.6818,-5.7133,-5.7137,-5.7414,-5.7729,-5.7772,-5.7773,-5.7772,-5.773,-5.7183,-5.6598,-5.6555,-5.6545,-5.6528,-5.6503,-5.6461,-5.6368,-5.6303,-5.6265,-5.6178,-5.6094,-5.6037,-5.5977,-5.5914,-5.5895,-5.5326,-5.3482,-5.3203,-5.2626,-5.0943,-4.9933,-4.9394,-4.9394,-4.9317,-4.9279,-4.9279,-4.9625,-5.0202,-5.1087,-5.0779,-5.1279,-5.301,-5.3895,-5.4549,-5.5011,-5.5857,-5.6896,-5.8127,-5.9435,-6.0319,-6.0781,-6.0781,-6.0781,-6.0781,-6.0816,-6.0872,-6.0948,-6.098,-6.109,-6.1186,-6.1213,-6.1313,-6.1408,-6.1421,-6.1507,-6.1549,-6.156,-6.1573,-6.1653,-5.1406,-5.1406,-5.1406,-5.1406,-5.1406,-5.1406,-5.1406,-5.1406,-5.1445,-5.1562,-5.1601,-5.1641,-5.1797,-5.1797,-5.2109,-5.2812,-5.2226,-5.1797,-5.1797,-5.1797,-5.1797,-5.1797,-5.1797,-5.1797,-5.1797,-5.2538,-5.3234,-5.3906,-5.3865,-5.3834,-5.381,-5.3745,-5.3827,-5.4004,-5.4025,-5.4121,-5.4336,-5.509,-5.5408,-5.5491,-5.6358,-5.6721,-5.6731,-5.6857,-5.6942,-5.6985,-5.6985,-5.7457,-5.8084,-5.8084,-5.8593,-5.9219,-5.9219,-5.9219,-5.9219,-5.9219,-5.8164,-5.6992,-5.6991,-5.6988,-5.6981,-5.6916,-5.6845,-5.68,-5.6734,-5.664,-5.6534,-5.6335,-5.6239,-5.6132,-5.5962,-5.5914,-5.5297,-5.3512,-5.3223,-5.2646,-5.0952,-5.0067,-4.9634,-4.974,-5.0433,-5.0933,-5.1058,-5.1702,-5.2385,-5.3126,-5.25,-5.2856,-5.4587,-5.5318,-5.5895,-5.6242,-5.6973,-5.8127,-5.9665,-6.0435,-6.0781,-6.0781,-6.0781,-6.0831,-6.0843,-6.0861,-6.0927,-6.0951,-6.1012,-6.1125,-6.1268,-6.1303,-6.1408,-6.1507,-6.1525,-6.1556,-6.1615,-6.1609,-6.164,-6.1699,-5.1406,-5.1406,-5.1406,-5.1406,-5.1406,-5.1406,-5.1406,-5.1406,-5.1641,-5.2383,-5.25,-5.2773,-5.3516,-5.3594,-5.3633,-5.3789,-5.3672,-5.3594,-5.3594,-5.3594,-5.3594,-5.3594,-5.3594,-5.3594,-5.3594,-5.3749,-5.3863,-5.3973,-5.3916,-5.3899,-5.3886,-5.3871,-5.4261,-5.4978,-5.4981,-5.5384,-5.6105,-5.6224,-5.6346,-5.6469,-5.733,-5.7686,-5.7768,-5.8511,-5.8787,-5.8789,-5.8789,-5.8867,-5.8984,-5.8984,-5.9101,-5.9219,-5.9219,-5.9219,-5.9219,-5.9219,-5.9023,-5.8789,-5.8789,-5.8788,-5.8785,-5.8699,-5.8677,-5.8676,-5.8597,-5.8493,-5.8168,-5.7358,-5.7155,-5.6875,-5.6125,-5.5961,-5.5402,-5.358,-5.3262,-5.2665,-5.0923,-5.0576,-5.075,-5.1433,-5.1615,-5.201,-5.2741,-5.2933,-5.3049,-5.3203,-5.3087,-5.3741,-5.5434,-5.5626,-5.6703,-5.8858,-5.905,-5.9588,-6.0589,-6.0742,-6.0781,-6.0781,-6.0781,-6.0816,-6.09,-6.0916,-6.0982,-6.1155,-6.1169,-6.1283,-6.1453,-6.1456,-6.1505,-6.1586,-6.1576,-6.1638,-6.1693,-6.1696,-6.1679,-6.1697,-5.1406,-5.1797,-5.2109,-5.2109,-5.25,-5.2812,-5.2812,-5.2812,-5.293,-5.3359,-5.3398,-5.3555,-5.3945,-5.3984,-5.418,-5.4648,-5.4687,-5.4883,-5.5351,-5.4531,-5.3984,-5.3984,-5.3984,-5.4219,-5.4687,-5.4687,-5.4921,-5.5387,-5.5382,-5.5337,-5.5368,-5.5365,-5.556,-5.5954,-5.5959,-5.6199,-5.6594,-5.7065,-5.7262,-5.7381,-5.824,-5.8592,-5.8632,-5.9062,-5.9218,-5.9219,-5.9219,-5.9492,-5.9844,-5.9844,-6.0156,-6.0547,-6.0547,-6.0547,-6.0547,-6.0547,-5.9922,-5.9219,-5.9219,-5.9218,-5.9179,-5.9178,-5.9128,-5.9061,-5.903,-5.8939,-5.87,-5.8245,-5.8079,-5.7783,-5.6914,-5.6751,-5.6162,-5.4409,-5.41,-5.3649,-5.2343,-5.2115,-5.2232,-5.2598,-5.3031,-5.3472,-5.3857,-5.428,-5.4549,-5.4549,-5.4972,-5.5609,-5.641,-5.7296,-5.8346,-5.9573,-5.9969,-6.0396,-6.0781,-6.0854,-6.0827,-6.0827,-6.09,-6.0905,-6.0969,-6.1051,-6.1125,-6.126,-6.1327,-6.1421,-6.1554,-6.1543,-6.1573,-6.1638,-6.1654,-6.1666,-6.171,-6.172,-6.169,-6.1697,-5.1992,-5.2539,-5.3008,-5.3008,-5.3555,-5.3984,-5.3984,-5.3984,-5.4062,-5.4297,-5.4297,-5.4375,-5.457,-5.4609,-5.4883,-5.5547,-5.5586,-5.5898,-5.6562,-5.5351,-5.4609,-5.4609,-5.4609,-5.4922,-5.5586,-5.5586,-5.5937,-5.66,-5.66,-5.6599,-5.6597,-5.6597,-5.6714,-5.6909,-5.6912,-5.6991,-5.7264,-5.7929,-5.8203,-5.8281,-5.914,-5.9492,-5.9492,-5.9687,-5.9765,-5.9765,-5.9765,-6.0195,-6.0703,-6.0703,-6.1133,-6.1719,-6.1719,-6.1719,-6.1719,-6.1719,-6.0781,-5.9765,-5.9765,-5.9765,-5.9765,-5.9765,-5.9721,-5.9702,-5.9602,-5.9568,-5.9433,-5.9185,-5.9082,-5.876,-5.7914,-5.7758,-5.7162,-5.5411,-5.5133,-5.4754,-5.3622,-5.3409,-5.3424,-5.3581,-5.4293,-5.4878,-5.5049,-5.5818,-5.6291,-5.6302,-5.6939,-5.7433,-5.7716,-5.8971,-5.9783,-6.0036,-6.0558,-6.0839,-6.085,-6.0894,-6.0927,-6.0959,-6.099,-6.1051,-6.1079,-6.1161,-6.1268,-6.135,-6.1484,-6.1554,-6.1619,-6.1634,-6.1651,-6.1705,-6.1715,-6.1718,-6.1681,-6.169,-6.1694,-6.1694,-5.3828,-5.3867,-5.3906,-5.3906,-5.3945,-5.3984,-5.3984,-5.3984,-5.4297,-5.5117,-5.5195,-5.5508,-5.6328,-5.6406,-5.6445,-5.6484,-5.6484,-5.6523,-5.6601,-5.6484,-5.6406,-5.6406,-5.6406,-5.6445,-5.6484,-5.6484,-5.6523,-5.6601,-5.6601,-5.6601,-5.6601,-5.6601,-5.7031,-5.7812,-5.7812,-5.8242,-5.9023,-5.9062,-5.9101,-5.918,-6.0,-6.0312,-6.039,-6.1211,-6.1523,-6.1523,-6.1523,-6.1562,-6.1601,-6.1601,-6.164,-6.1719,-6.1719,-6.1719,-6.1719,-6.1719,-6.1601,-6.1523,-6.1523,-6.1523,-6.1523,-6.1523,-6.1518,-6.15,-6.1408,-6.1354,-6.1086,-6.0243,-6.0055,-5.9766,-5.8954,-5.8799,-5.8204,-5.6457,-5.6185,-5.5566,-5.3829,-5.3545,-5.3738,-5.4419,-5.52,-5.5997,-5.6753,-5.7588,-5.811,-5.8098,-5.8228,-5.8664,-5.9563,-5.9773,-6.0231,-6.1048,-6.1012,-6.1008,-6.0982,-6.0992,-6.1003,-6.1095,-6.1104,-6.1148,-6.1268,-6.1274,-6.1357,-6.1484,-6.1554,-6.1642,-6.1696,-6.1696,-6.1705,-6.1718,-6.1718,-6.1718,-6.1718,-6.1681,-6.1681,-6.1681,-5.3984,-5.4453,-5.4805,-5.4805,-5.5234,-5.5625,-5.5625,-5.5625,-5.5742,-5.6055,-5.6094,-5.6211,-5.6562,-5.6601,-5.6601,-5.6601,-5.6601,-5.6601,-5.6601,-5.6601,-5.6601,-5.6601,-5.6601,-5.6601,-5.6601,-5.6601,-5.6875,-5.7422,-5.7422,-5.7695,-5.8203,-5.8203,-5.8398,-5.8711,-5.8711,-5.8906,-5.9219,-5.9726,-5.9922,-6.0039,-6.0859,-6.1211,-6.125,-6.1562,-6.1719,-6.1719,-6.1719,-6.1719,-6.1719,-6.1719,-6.1719,-6.1719,-6.1719,-6.1719,-6.1719,-6.1719,-6.1719,-6.1719,-6.1719,-6.1719,-6.1719,-6.1719,-6.1717,-6.1671,-6.1663,-6.1598,-6.1481,-6.114,-6.1036,-6.0784,-5.9932,-5.9776,-5.9382,-5.8169,-5.796,-5.7731,-5.6996,-5.6802,-5.6839,-5.7116,-5.735,-5.7583,-5.7911,-5.8209,-5.8412,-5.8432,-5.8983,-5.9511,-5.9904,-6.0484,-6.0985,-6.133,-6.1274,-6.1197,-6.1104,-6.1169,-6.122,-6.1205,-6.1267,-6.1317,-6.1421,-6.1417,-6.1466,-6.1564,-6.1623,-6.1687,-6.1713,-6.1713,-6.1715,-6.1718,-6.1718,-6.1718,-6.1718,-6.1718,-6.1718,-6.1718,-5.4805,-5.5312,-5.5703,-5.5703,-5.6211,-5.6601,-5.6601,-5.6601,-5.6601,-5.6601,-5.6601,-5.6601,-5.6601,-5.6601,-5.6601,-5.6601,-5.6601,-5.6601,-5.6601,-5.6875,-5.6875,-5.6601,-5.6601,-5.6719,-5.6992,-5.6992,-5.7422,-5.832,-5.832,-5.8594,-5.9219,-5.9219,-5.9336,-5.957,-5.957,-5.9726,-6.0039,-6.0586,-6.082,-6.0859,-6.1445,-6.1719,-6.1719,-6.1719,-6.1719,-6.1719,-6.1719,-6.1719,-6.1719,-6.1719,-6.1719,-6.1719,-6.1719,-6.1719,-6.1719,-6.1719,-6.1719,-6.1719,-6.1719,-6.1719,-6.1719,-6.1719,-6.1718,-6.1716,-6.1712,-6.1663,-6.1647,-6.1627,-6.1612,-6.1442,-6.0854,-6.0733,-6.046,-5.9563,-5.9432,-5.9326,-5.8968,-5.8815,-5.8746,-5.8736,-5.8861,-5.897,-5.8961,-5.9184,-5.9348,-5.9366,-5.9993,-6.0429,-6.0501,-6.111,-6.1468,-6.1461,-6.1461,-6.1423,-6.1337,-6.1362,-6.1383,-6.1388,-6.1445,-6.1484,-6.1529,-6.1547,-6.1573,-6.1644,-6.1693,-6.1707,-6.1718,-6.1718,-6.1718,-6.1718,-6.1718,-6.1718,-6.1718,-6.1718,-6.1874,-6.211,-5.6601,-5.6601,-5.6601,-5.6601,-5.6601,-5.6601,-5.6601,-5.6601,-5.6601,-5.6601,-5.6601,-5.6601,-5.6601,-5.6601,-5.6601,-5.6601,-5.6601,-5.6601,-5.6601,-5.7422,-5.7539,-5.664,-5.6601,-5.7031,-5.789,-5.789,-5.8359,-5.9219,-5.9219,-5.9219,-5.9219,-5.9219,-5.9648,-6.039,-6.039,-6.0898,-6.1719,-6.1719,-6.1719,-6.1719,-6.1719,-6.1719,-6.1719,-6.1719,-6.1719,-6.1719,-6.1719,-6.1719,-6.1719,-6.1719,-6.1719,-6.1719,-6.1719,-6.1719,-6.1719,-6.1719,-6.1719,-6.1719,-6.1719,-6.1719,-6.1719,-6.1719,-6.1718,-6.1717,-6.1717,-6.1713,-6.1707,-6.1699,-6.1697,-6.1694,-6.1681,-6.1718,-6.1403,-6.0531,-6.0414,-6.009,-5.9159,-5.8957,-5.8904,-5.8842,-5.9509,-5.9995,-5.9917,-6.0685,-6.1244,-6.1322,-6.1356,-6.1456,-6.1599,-6.1603,-6.1612,-6.1595,-6.1598,-6.1598,-6.1598,-6.1534,-6.152,-6.1603,-6.1603,-6.1615,-6.1598,-6.1598,-6.1644,-6.1699,-6.1699,-6.1707,-6.1718,-6.1718,-6.1718,-6.1718,-6.1718,-6.1718,-6.1718,-6.1718,-6.2267,-6.3008,-5.6601,-5.6601,-5.6601,-5.6601,-5.6601,-5.6601,-5.6601,-5.6601,-5.6601,-5.6601,-5.6601,-5.6601,-5.6601,-5.6601,-5.6601,-5.6601,-5.6601,-5.6875,-5.7461,-5.7773,-5.8047,-5.8398,-5.8437,-5.8555,-5.8828,-5.8828,-5.9219,-6.0039,-6.0039,-6.0351,-6.0937,-6.0937,-6.1094,-6.1328,-6.1328,-6.1445,-6.1719,-6.1719,-6.1719,-6.1719,-6.1719,-6.1719,-6.1719,-6.1719,-6.1719,-6.1719,-6.1719,-6.1719,-6.1719,-6.1719,-6.1719,-6.1719,-6.1719,-6.1719,-6.1719,-6.1719,-6.1719,-6.1719,-6.1719,-6.1719,-6.1719,-6.1719,-6.1719,-6.1718,-6.1718,-6.1718,-6.1717,-6.1708,-6.1705,-6.1702,-6.1683,-6.1718,-6.1601,-6.1364,-6.1314,-6.1228,-6.0945,-6.0832,-6.0798,-6.0784,-6.0928,-6.105,-6.1038,-6.1271,-6.1427,-6.1439,-6.1489,-6.1586,-6.168,-6.1683,-6.1651,-6.1668,-6.1668,-6.1668,-6.1668,-6.1591,-6.1584,-6.1683,-6.1683,-6.1654,-6.1668,-6.1668,-6.1671,-6.1713,-6.1713,-6.1715,-6.1718,-6.1718,-6.1718,-6.1718,-6.1718,-6.2071,-6.2618,-6.2618,-6.3164,-6.3906,-5.6601,-5.6601,-5.6601,-5.6601,-5.6601,-5.6601,-5.6601,-5.6601,-5.6601,-5.6601,-5.6601,-5.6601,-5.6601,-5.6601,-5.6601,-5.6601,-5.6914,-5.7461,-5.8359,-5.8711,-5.9101,-5.9648,-6.0,-6.0039,-5.9687,-5.9687,-6.0078,-6.0898,-6.0898,-6.1172,-6.1719,-6.1719,-6.1719,-6.1719,-6.1719,-6.1719,-6.1719,-6.1719,-6.1719,-6.1719,-6.1719,-6.1719,-6.1719,-6.1719,-6.1719,-6.1719,-6.1719,-6.1719,-6.1719,-6.1719,-6.1719,-6.1719,-6.1719,-6.1719,-6.1719,-6.1719,-6.1719,-6.1719,-6.1719,-6.1719,-6.1719,-6.1719,-6.1719,-6.1719,-6.1719,-6.1719,-6.1718,-6.1711,-6.1709,-6.1704,-6.1683,-6.1718,-6.1718,-6.1718,-6.1713,-6.1707,-6.1707,-6.1683,-6.1627,-6.1627,-6.1599,-6.1539,-6.1539,-6.1539,-6.1543,-6.1591,-6.1615,-6.168,-6.1705,-6.1707,-6.171,-6.1718,-6.1718,-6.1718,-6.1718,-6.1663,-6.166,-6.1707,-6.1707,-6.171,-6.1718,-6.1718,-6.1718,-6.1718,-6.1718,-6.1718,-6.1718,-6.1718,-6.1718,-6.1718,-6.2071,-6.254,-6.3047,-6.3399,-6.4062,-6.4804,-5.6601,-5.6601,-5.6601,-5.6601,-5.6601,-5.6601,-5.6601,-5.6601,-5.6601,-5.6601,-5.6601,-5.6601,-5.6601,-5.668,-5.6719,-5.6719,-5.75,-5.8398,-5.9258,-6.0,-6.043,-6.0508,-6.1289,-6.1328,-6.0547,-6.0508,-6.0898,-6.1719,-6.1719,-6.1719,-6.1719,-6.1719,-6.1719,-6.1719,-6.1719,-6.1719,-6.1719,-6.1719,-6.1719,-6.1719,-6.1719,-6.1719,-6.1719,-6.1719,-6.1719,-6.1719,-6.1719,-6.1719,-6.1719,-6.1719,-6.1719,-6.1719,-6.1719,-6.1719,-6.1719,-6.1719,-6.1719,-6.1719,-6.1719,-6.1719,-6.1719,-6.1719,-6.1719,-6.1719,-6.1719,-6.1719,-6.1718,-6.1711,-6.1708,-6.1704,-6.1683,-6.1718,-6.1718,-6.1718,-6.1718,-6.1718,-6.1718,-6.1707,-6.1702,-6.1702,-6.1651,-6.1602,-6.1602,-6.1602,-6.1648,-6.1699,-6.1702,-6.1707,-6.1718,-6.1718,-6.1718,-6.1718,-6.1718,-6.1718,-6.1718,-6.1718,-6.1718,-6.1718,-6.1718,-6.1718,-6.1718,-6.1718,-6.1718,-6.1718,-6.1718,-6.1718,-6.1718,-6.1796,-6.1835,-6.1913,-6.2774,-6.3164,-6.3321,-6.4101,-6.496,-6.5702,-5.6601,-5.6601,-5.6601,-5.6601,-5.6601,-5.6601,-5.6601,-5.6601,-5.6601,-5.6601,-5.6601,-5.6601,-5.6601,-5.7226,-5.7617,-5.7617,-5.8437,-5.9258,-6.0078,-6.0312,-6.0703,-6.1406,-6.1601,-6.1601,-6.1406,-6.1406,-6.1523,-6.1719,-6.1719,-6.1719,-6.1719,-6.1719,-6.1719,-6.1719,-6.1719,-6.1719,-6.1719,-6.1719,-6.1719,-6.1719,-6.1719,-6.1719,-6.1719,-6.1719,-6.1719,-6.1719,-6.1719,-6.1719,-6.1719,-6.1719,-6.1719,-6.1719,-6.1719,-6.1719,-6.1719,-6.1719,-6.1719,-6.1719,-6.1719,-6.1719,-6.1719,-6.1719,-6.1719,-6.1719,-6.1719,-6.1718,-6.1716,-6.171,-6.1705,-6.1697,-6.1683,-6.1718,-6.1718,-6.1718,-6.1718,-6.1718,-6.1718,-6.1715,-6.1715,-6.1715,-6.1674,-6.1671,-6.1671,-6.1671,-6.1674,-6.1715,-6.1715,-6.1715,-6.1718,-6.1718,-6.1718,-6.1718,-6.1718,-6.1718,-6.1718,-6.1718,-6.1718,-6.1718,-6.1718,-6.1718,-6.1718,-6.1718,-6.1718,-6.1718,-6.1718,-6.1718,-6.1757,-6.2423,-6.2735,-6.2813,-6.3672,-6.4453,-6.5077,-6.5234,-6.5858,-6.6522,-5.6601,-5.6601,-5.6601,-5.6601,-5.6601,-5.6601,-5.6601,-5.6601,-5.6601,-5.6601,-5.6601,-5.6758,-5.7187,-5.7617,-5.8203,-5.9023,-5.9492,-6.0117,-6.0976,-6.1015,-6.1211,-6.168,-6.1719,-6.1719,-6.1719,-6.1719,-6.1719,-6.1719,-6.1719,-6.1719,-6.1719,-6.1719,-6.1719,-6.1719,-6.1719,-6.1719,-6.1719,-6.1719,-6.1719,-6.1719,-6.1719,-6.1719,-6.1719,-6.1719,-6.1719,-6.1719,-6.1719,-6.1719,-6.1719,-6.1719,-6.1719,-6.1719,-6.1719,-6.1719,-6.1719,-6.1719,-6.1719,-6.1719,-6.1719,-6.1719,-6.1719,-6.1719,-6.1718,-6.1718,-6.1718,-6.1717,-6.1715,-6.1707,-6.1701,-6.1694,-6.1681,-6.1718,-6.1718,-6.1718,-6.1718,-6.1718,-6.1718,-6.1718,-6.1718,-6.1718,-6.1718,-6.1718,-6.1718,-6.1718,-6.1718,-6.1718,-6.1718,-6.1718,-6.1718,-6.1718,-6.1718,-6.1718,-6.1718,-6.1718,-6.1718,-6.1718,-6.1718,-6.1718,-6.1718,-6.1718,-6.1718,-6.1718,-6.1913,-6.2306,-6.2306,-6.2579,-6.2969,-6.3438,-6.3633,-6.3711,-6.457,-6.5194,-6.5663,-6.6014,-6.6444,-6.6795,-5.6601,-5.6601,-5.6601,-5.6601,-5.6601,-5.6601,-5.6601,-5.6601,-5.6601,-5.6601,-5.6719,-5.7109,-5.7812,-5.8164,-5.8945,-6.0508,-6.0625,-6.0937,-6.164,-6.1719,-6.1719,-6.1719,-6.1719,-6.1719,-6.1719,-6.1719,-6.1719,-6.1719,-6.1719,-6.1719,-6.1719,-6.1719,-6.1719,-6.1719,-6.1719,-6.1719,-6.1719,-6.1719,-6.1719,-6.1719,-6.1719,-6.1719,-6.1719,-6.1719,-6.1719,-6.1719,-6.1719,-6.1719,-6.1719,-6.1719,-6.1719,-6.1719,-6.1719,-6.1719,-6.1719,-6.1719,-6.1719,-6.1719,-6.1719,-6.1719,-6.1719,-6.1719,-6.1718,-6.1716,-6.1715,-6.1715,-6.1712,-6.1701,-6.1696,-6.1692,-6.1681,-6.1718,-6.1718,-6.1718,-6.1718,-6.1718,-6.1718,-6.1718,-6.1718,-6.1718,-6.1718,-6.1718,-6.1718,-6.1718,-6.1718,-6.1718,-6.1718,-6.1718,-6.1718,-6.1718,-6.1718,-6.1718,-6.1718,-6.1718,-6.1718,-6.1835,-6.1913,-6.1913,-6.2071,-6.2071,-6.1913,-6.2071,-6.254,-6.3204,-6.3204,-6.3633,-6.4299,-6.4455,-6.4533,-6.4609,-6.5468,-6.5819,-6.5897,-6.6561,-6.6795,-6.6795,-5.6601,-5.6601,-5.6601,-5.6601,-5.6601,-5.6601,-5.6601,-5.6601,-5.6601,-5.6601,-5.7265,-5.7773,-5.789,-5.918,-6.0469,-6.1445,-6.1523,-6.1562,-6.168,-6.1719,-6.1719,-6.1719,-6.1719,-6.1719,-6.1719,-6.1719,-6.1719,-6.1719,-6.1719,-6.1719,-6.1719,-6.1719,-6.1719,-6.1719,-6.1719,-6.1719,-6.1719,-6.1719,-6.1719,-6.1719,-6.1719,-6.1719,-6.1719,-6.1719,-6.1719,-6.1719,-6.1719,-6.1719,-6.1719,-6.1719,-6.1719,-6.1719,-6.1719,-6.1719,-6.1719,-6.1719,-6.1719,-6.1719,-6.1719,-6.1719,-6.1719,-6.1718,-6.1717,-6.1715,-6.1705,-6.1701,-6.1701,-6.1699,-6.169,-6.1681,-6.1718,-6.1718,-6.1718,-6.1718,-6.1718,-6.1718,-6.1718,-6.1718,-6.1718,-6.1718,-6.1718,-6.1718,-6.1718,-6.1718,-6.1718,-6.1718,-6.1718,-6.1718,-6.1718,-6.1718,-6.1718,-6.1718,-6.1718,-6.1718,-6.1718,-6.2462,-6.2813,-6.2813,-6.3594,-6.3555,-6.2852,-6.3594,-6.4026,-6.4104,-6.4104,-6.4182,-6.4377,-6.5116,-6.5429,-6.5507,-6.6327,-6.6639,-6.6639,-6.6756,-6.6795,-6.6795,-5.6601,-5.6601,-5.6601,-5.6601,-5.6601,-5.6601,-5.6601,-5.6601,-5.6758,-5.7265,-5.7656,-5.8242,-5.918,-6.039,-6.1289,-6.168,-6.1719,-6.1719,-6.1719,-6.1719,-6.1719,-6.1719,-6.1719,-6.1719,-6.1719,-6.1719,-6.1719,-6.1719,-6.1719,-6.1719,-6.1719,-6.1719,-6.1719,-6.1719,-6.1719,-6.1719,-6.1719,-6.1719,-6.1719,-6.1719,-6.1719,-6.1719,-6.1719,-6.1719,-6.1719,-6.1719,-6.1719,-6.1719,-6.1719,-6.1719,-6.1719,-6.1719,-6.1719,-6.1719,-6.1719,-6.1719,-6.1719,-6.1719,-6.1719,-6.1719,-6.1719,-6.1717,-6.1715,-6.1711,-6.1701,-6.1694,-6.1688,-6.1688,-6.1683,-6.1718,-6.1718,-6.1718,-6.1718,-6.1718,-6.1718,-6.1718,-6.1718,-6.1718,-6.1718,-6.1718,-6.1718,-6.1718,-6.1718,-6.1718,-6.1718,-6.1718,-6.1718,-6.1718,-6.1718,-6.1718,-6.1913,-6.2423,-6.2423,-6.2657,-6.3164,-6.3516,-6.3711,-6.375,-6.4609,-6.457,-6.375,-6.4104,-6.457,-6.5038,-6.5038,-6.5273,-6.5743,-6.6092,-6.6288,-6.6327,-6.6678,-6.6795,-6.6795,-6.6795,-6.6795,-6.6795]},{"header":{"parameterUnit":"m.s-1","parameterCategory":1,"la1":30.6,"la2":28.766,"lo1":-90.7593,"lo2":-88.6598,"dy":0.0162,"dx":0.0183,"nx":116,"ny":114,"refTime":"2024-04-01T00:00:00:Z","depth":0,"parameterNumber":3,"parameterNumberName":"V-component_of_WINDS"},"data":[0.0,0.0,0.0,0.0,0.0,0.0,0.0,0.0,0.0,0.0,0.0,0.0,0.0,0.0,0.0,0.0,0.0,0.0,0.0,0.0,0.0,0.0,0.0,0.0,0.0,0.0,0.0,0.0,0.0,0.0,0.0,0.0,0.0,0.0,0.0,0.0,0.0,0.0,0.0,0.0,0.0,0.0,0.0,0.0,0.0,0.0,0.0,0.0,0.0,0.0,0.0,0.0,0.0,0.0,0.0,0.0,0.0,0.0,0.0,0.0,0.0,0.0,0.0,0.0,0.0,0.0,0.0,0.0,0.0,0.0,0.0,0.0,0.0,0.0,0.0,0.0,0.0,0.0,0.0,0.0,0.0,0.0,0.0,0.0,0.0,0.0,0.0,0.0,0.0,0.0,0.0,0.0,0.0,0.0,0.0,0.0,0.0,0.0,0.0,0.0,0.0,0.0,0.0,0.0,0.0,0.0,0.0,0.0,0.0,0.0,0.0,0.0,0.0,0.0,0.0,0.0,0.0,0.0,0.0,0.0,0.0,0.0,0.0,0.0,0.0,0.0,0.0,0.0,0.0,0.0,0.0,0.0,0.0,0.0,0.0,0.0,0.0,0.0,0.0,0.0,0.0,0.0,0.0,0.0,0.0,0.0,0.0,0.0,0.0,0.0,0.0,0.0,0.0,0.0,0.0,0.0,0.0,0.0,0.0,0.0,0.0,0.0,0.0,0.0,0.0,0.0,0.0,0.0,0.0,0.0,0.0,0.0,0.0,0.0,0.0,0.0,0.0,0.0,0.0,0.0,0.0,0.0,0.0,0.0,0.0,0.0,0.0,0.0,0.0,0.0,0.0,0.0,0.0,0.0,0.0,0.0,0.0,0.0,0.0,0.0,0.0,0.0,0.0,0.0,0.0,0.0,0.0,0.0,0.0,0.0,0.0,0.0,0.0,0.0,0.0,0.0,0.0,0.0,0.0,0.0,0.0,0.0,0.0,0.0,0.0,0.0,0.0,0.0,0.0,0.0,0.0,0.0,0.0,0.0,0.0,0.0,0.0,0.0,0.0,0.0,0.0,0.0,0.0,0.0,0.0,0.0,0.0,0.0,0.0,0.0,0.0,0.0,0.0,0.0,0.0,0.0,0.0,0.0,0.0,0.0,0.0,0.0,0.0,0.0,0.0,0.0,0.0,0.0,0.0,0.0,0.0,0.0,0.0,0.0,0.0,0.0,0.0,0.0,0.0,0.0,0.0,0.0,0.0,0.0,0.0,0.0,0.0,0.0,0.0,0.0,0.0,0.0,0.0,0.0,0.0,0.0,0.0,0.0,0.0,0.0,0.0,0.0,0.0,0.0,0.0,0.0,0.0,0.0,0.0,0.0,0.0,0.0,0.0,0.0,0.0,0.0,0.0,0.0,0.0,0.0,0.0,0.0,0.0,0.0,0.0,0.0,0.0,0.0,0.0,0.0,0.0,0.0,0.0,0.0,0.0,0.0,0.0,0.0,0.0,0.0,0.0,0.0,0.0,0.0,0.0,0.0,0.0,0.0,0.0,0.0,0.0,0.0,0.0,0.0,0.0,0.0,0.0,0.0,0.0,0.0,0.0,0.0,0.0,0.0,0.0,0.0,0.0,0.0,0.0,0.0,0.0,0.0,0.0,0.0,0.0,0.0,0.0,0.0,0.0,0.0,0.0,0.0,0.0,0.0,0.0,0.0,0.0,0.0,0.0,0.0,0.0,0.0,0.0,0.0,0.0,0.0,0.0,0.0,0.0,0.0,0.0,0.0,0.0,0.0,0.0,0.0,0.0,0.0,0.0,0.0,0.0,0.0,0.0,0.0,0.0,0.0,0.0,0.0,0.0,0.0,0.0,0.0,0.0,0.0,0.0,0.0,0.0,0.0,0.0,0.0,0.0,0.0,0.0,0.0,0.0,0.0,0.0,0.0,0.0,0.0,0.0,0.0,0.0,0.0,0.0,0.0,0.0,0.0,0.0,0.0,0.0,0.0,0.0,0.0,0.0,0.0,0.0,0.0,0.0,0.0,0.0,0.0,0.0,0.0,0.0,0.0,0.0,0.0,0.0,0.0,0.0,0.0,0.0,0.0,0.0,0.0,0.0,0.0,0.0,0.0,0.0,0.0,0.0,0.0,0.0,0.0,0.0,0.0,0.0,0.0,0.0,0.0,0.0,0.0,0.0,0.0,0.0,0.0,0.0,0.0,0.0,0.0,0.0,0.0,0.0,0.0,0.0,0.0,0.0,0.0,0.0,0.0,0.0,0.0,0.0,0.0,0.0,0.0,0.0,0.0,0.0,0.0,0.0,0.0,0.0,0.0,0.0,0.0,0.0,0.0,0.0,0.0,0.0,0.0,0.0,0.0,0.0,0.0,0.0,0.0,0.0,0.0,0.0,0.0,0.0,0.0,0.0,0.0,0.0,0.0,0.0,0.0,0.0,0.0,0.0,0.0,0.0,0.0,0.0,0.0,0.0,0.0,0.0,0.0,0.0,0.0,0.0,0.0,0.0,0.0,0.0,0.0,0.0,0.0,0.0,0.0,0.0,0.0,0.0,0.0,0.0,0.0,0.0,0.0,0.0,0.0,0.0,0.0,0.0,0.0,0.0,0.0,0.0,0.0,0.0,0.0,0.0,0.0,0.0,0.0,0.0,0.0,0.0,0.0,0.0,0.0,0.0,0.0,0.0,0.0,0.0,0.0,0.0,0.0,0.0,0.0,0.0,0.0,0.0,0.0,0.0,0.0,0.0,0.0,0.0,0.0,0.0,0.0,0.0,0.0,0.0,0.0,0.0,0.0,0.0,0.0,0.0,0.0,0.0,0.0,0.0,0.0,0.0,0.0,0.0,0.0,0.0,0.0,0.0,0.0,0.0,0.0,0.0,0.0,0.0,0.0,0.0,0.0,0.0,0.0,0.0,0.0,0.0,0.0,0.0,0.0,0.0,0.0,0.0,0.0,0.0,0.0,0.0,0.0,0.0,0.0,0.0,0.0,0.0,0.0,0.0,0.0,0.0,0.0,0.0,0.0,0.0,0.0,0.0,0.0,0.0,0.0,0.0,0.0,0.0,0.0,0.0,0.0,0.0,0.0,0.0,0.0,0.0,0.0,0.0,0.0,0.0,0.0,0.0,0.0,0.0,0.0,0.0,0.0,0.0,0.0,0.0,0.0,0.0,0.0,0.0,0.0,0.0,0.0,0.0,0.0,0.0,0.0,0.0,0.0,0.0,0.0,0.0,0.0,0.0,0.0,0.0,0.0,0.0,0.0,0.0,0.0,0.0,0.0,0.0,0.0,0.0,0.0,0.0,0.0,0.0,0.0,0.0,0.0,0.0,0.0,0.0,0.0,0.0,0.0,0.0,0.0,0.0,0.0,0.0,0.0,0.0,0.0,0.0,0.0,0.0,0.0,0.0,0.0,0.0,0.0,0.0,0.0,0.0,0.0,0.0,0.0,0.0,0.0,0.0,0.0,0.0,0.0,0.0,0.0,0.0,0.0,0.0,0.0,0.0,0.0,0.0,0.0,0.0,0.0,0.0,0.0,0.0,0.0,0.0,0.0,0.0,0.0,0.0,0.0,0.0,0.0,0.0,0.0,0.0,0.0,0.0,0.0,0.0,0.0,0.0,0.0,0.0,0.0,0.0,0.0,0.0,0.0,0.0,0.0,0.0,0.0,0.0,0.0,0.0,0.0,0.0,0.0,0.0,0.0,0.0,0.0,0.0,0.0,0.0,0.0,0.0,0.0,0.0,0.0,0.0,0.0,0.0,0.0,0.0,0.0,0.0,0.0,0.0,0.0,0.0,0.0,0.0,0.0,0.0,0.0,0.0,0.0,0.0,0.0,0.0,0.0,0.0,0.0,0.0,0.0,0.0,0.0,0.0,0.0,0.0,0.0,0.0,0.0,0.0,0.0,0.0,0.0,0.0,0.0,0.0,0.0,0.0,0.0,0.0,0.0,0.0,0.0,0.0,0.0,0.0,0.0,0.0,0.0,0.0,0.0,0.0,0.0,0.0,0.0,0.0,0.0,0.0,0.0,0.0,0.0,0.0,0.0,0.0,0.0,0.0,0.0,0.0,0.0,0.0,0.0,0.0,0.0,0.0,0.0,0.0,0.0,0.0,0.0,0.0,0.0,0.0,0.0,0.0,0.0,0.0,0.0,0.0,0.0,0.0,0.0,0.0,0.0,0.0,0.0,0.0,0.0,0.0,0.0,0.0,0.0,0.0,0.0,0.0,0.0,0.0,0.0,0.0,0.0,0.0,0.0,0.0,0.0,0.0,0.0,0.0,0.0,0.0,0.0,0.0,0.0,0.0,0.0,0.0,0.0,0.0,0.0,0.0,0.0,0.0,0.0,0.0,0.0,0.0,0.0,0.0,0.0,0.0,0.0,0.0,0.0,0.0,0.0,0.0,0.0,0.0,0.0,0.0,0.0,0.0,0.0,0.0,0.0,0.0,0.0,0.0,0.0,0.0,0.0,0.0,0.0,0.0,0.0,0.0,0.0,0.0,0.0,0.0,0.0,0.0,0.0,0.0,0.0,0.0,0.0,0.0,0.0,0.0,0.0,0.0,0.0,0.0,0.0,0.0,0.0,0.0,0.0,0.0,0.0,0.0,0.0,0.0,0.0,0.0,0.0,0.0,0.0,0.0,0.0,0.0,0.0,0.0,0.0,0.0,0.0,0.0,0.0,0.0,0.0,0.0,0.0,0.0,0.0,0.0,0.0,0.0,0.0,0.0,0.0,0.0,0.0,0.0,0.0,0.0,0.0,0.0,0.0,0.0,0.0,0.0,0.0,0.0,0.0,0.0,0.0,0.0,0.0,0.0,0.0,0.0,0.0,0.0,0.0,0.0,0.0,0.0,0.0,0.0,0.0,0.0,0.0,0.0,0.0,0.0,0.0,0.0,0.0,0.0,0.0,0.0,0.0,0.0,0.0,0.0,0.0,0.0,0.0,0.0,0.0,0.0,0.0,0.0,0.0,0.0,0.0,0.0,0.0,0.0,0.0,0.0,0.0,0.0,0.0,0.0,0.0,0.0,0.0,0.0,0.0,0.0,0.0,0.0,0.0,0.0,0.0,0.0,0.0,0.0,0.0,0.0,0.0,0.0,0.0,0.0,0.0,0.0,0.0,0.0,0.0,0.0,0.0,0.0,0.0,0.0,0.0,0.0,0.0,0.0,0.0,0.0,0.0,0.0,0.0,0.0,0.0,0.0,0.0,0.0,0.0,0.0,0.0,0.0,0.0,0.0,0.0,0.0,0.0,0.0,0.0,0.0,0.0,0.0,0.0,0.0,0.0,0.0,0.0,0.0,0.0,0.0,0.0,0.0,0.0,0.0,0.0,0.0,0.0,0.0,0.0,0.0,0.0,0.0,0.0,0.0,0.0,0.0,0.0,0.0,0.0,0.0,0.0,0.0,0.0,0.0,0.0,0.0,0.0,0.0,0.0,0.0,0.0,0.0,0.0,0.0,0.0,0.0,0.0,0.0,0.0,0.0,0.0,0.0,0.0,0.0,0.0,0.0,0.0,0.0,0.0,0.0,0.0,0.0,0.0,0.0,0.0,0.0,0.0,0.0,0.0,0.0,0.0,0.0,0.0,0.0,0.0,0.0,0.0,0.0,0.0,0.0,0.0,0.0,0.0,0.0,0.0,0.0,0.0,0.0,0.0,0.0,0.0,0.0,0.0,0.0,0.0,0.0,0.0,0.0,0.0,0.0,0.0,0.0,0.0,0.0,0.0,0.0,0.0,0.0,0.0,0.0,0.0,0.0,0.0,0.0,0.0,0.0,0.0,0.0,0.0,0.0,0.0,0.0,0.0,0.0,0.0,0.0,0.0,0.0,0.0,0.0,0.0,0.0,0.0,0.0,0.0,0.0,0.0,0.0,0.0,0.0,0.0,0.0,0.0,0.0,0.0,0.0,0.0,0.0,0.0,0.0,0.0,0.0,0.0,0.0,0.0,0.0,0.0,0.0,0.0,0.0,0.0,0.0,0.0,0.0,0.0,0.0,0.0,0.0,0.0,0.0,0.0,0.0,0.0,0.0,0.0,0.0,0.0,0.0,0.0,0.0,0.0,0.0,0.0,0.0,0.0,-0.7813,-0.8065,0.0,0.0,0.0,0.0,0.0,0.0,0.0,0.0,0.0,0.0,0.0,0.0,0.0,0.0,0.0,0.0,0.0,0.0,0.0,0.0,0.0,0.0,0.0,-1.3854,-1.4252,-1.4111,-1.3982,-1.3853,-1.3638,0.0,0.0,0.0,0.0,0.0,-1.2312,-1.2059,-1.1946,-1.2067,-1.2067,-1.2373,-1.2892,-1.2868,-1.2662,-1.23,0.0,0.0,0.0,0.0,0.0,0.0,0.0,0.0,0.0,0.0,0.0,0.0,0.0,0.0,0.0,0.0,0.0,0.0,0.0,0.0,0.0,0.0,0.0,0.0,0.0,0.0,0.0,0.0,0.0,0.0,0.0,0.0,0.0,0.0,0.0,0.0,0.0,0.0,0.0,0.0,0.0,0.0,0.0,0.0,0.0,0.0,0.0,0.0,0.0,0.0,0.0,0.0,0.0,0.0,0.0,0.0,0.0,0.0,0.0,0.0,0.0,0.0,0.0,0.0,0.0,0.0,0.0,0.0,0.0,0.0,-0.7304,-0.7392,0.0,0.0,0.0,0.0,0.0,0.0,0.0,0.0,0.0,0.0,0.0,0.0,0.0,0.0,0.0,0.0,0.0,0.0,0.0,0.0,0.0,-1.3253,-1.336,-1.4055,-1.4475,-1.4348,-1.4265,-1.4076,-1.373,-1.3343,0.0,0.0,-1.2518,-1.2385,-1.2385,-1.2216,-1.2264,-1.253,-1.2711,-1.3169,-1.387,-1.4352,-1.4111,-1.3254,-1.3061,0.0,0.0,0.0,0.0,0.0,0.0,0.0,0.0,0.0,0.0,0.0,0.0,0.0,0.0,0.0,0.0,0.0,0.0,0.0,0.0,0.0,0.0,0.0,0.0,0.0,0.0,0.0,0.0,0.0,0.0,0.0,0.0,0.0,0.0,0.0,0.0,0.0,0.0,0.0,0.0,0.0,0.0,0.0,0.0,0.0,0.0,0.0,0.0,0.0,0.0,0.0,0.0,0.0,0.0,0.0,0.0,0.0,0.0,0.0,0.0,0.0,0.0,0.0,-0.7298,-0.7308,-0.7308,-0.7355,-0.7342,-0.7325,-0.7067,-0.6904,-0.6855,-0.6967,0.0,0.0,0.0,0.0,0.0,0.0,0.0,0.0,0.0,0.0,0.0,0.0,0.0,0.0,0.0,0.0,0.0,0.0,0.0,-1.34,-1.3921,-1.4295,-1.4679,-1.5185,-1.4579,-1.4314,-1.4511,-1.3651,-1.3073,-1.3073,-1.2795,-1.265,-1.265,-1.2856,-1.3053,-1.335,-1.428,-1.4908,-1.5246,-1.5547,-1.5608,-1.5427,-1.4497,-1.3809,-1.3383,0.0,0.0,0.0,0.0,0.0,0.0,0.0,0.0,0.0,0.0,0.0,0.0,0.0,0.0,0.0,0.0,0.0,0.0,0.0,0.0,0.0,0.0,0.0,0.0,0.0,0.0,0.0,0.0,0.0,0.0,0.0,0.0,0.0,0.0,0.0,0.0,0.0,0.0,0.0,0.0,0.0,-0.7582,-0.7741,0.0,0.0,0.0,0.0,0.0,0.0,0.0,0.0,0.0,0.0,0.0,0.0,0.0,-0.6725,-0.6837,-0.712,-0.735,-0.747,-0.7578,-0.7627,-0.7627,-0.7644,-0.7655,-0.7644,-0.7491,0.0,-0.7161,-0.7144,0.0,0.0,0.0,0.0,0.0,0.0,0.0,0.0,0.0,0.0,0.0,0.0,0.0,0.0,0.0,0.0,0.0,0.0,0.0,0.0,0.0,-1.4883,-1.5325,-1.5655,-1.5197,-1.487,-1.4691,-1.3958,-1.3435,-1.3089,-1.3,-1.294,-1.294,-1.3206,-1.3688,-1.4413,-1.5475,-1.6066,-1.6187,-1.6598,-1.6779,-1.6754,-1.6139,-1.533,-1.4389,-1.4584,0.0,0.0,0.0,0.0,0.0,0.0,0.0,0.0,0.0,0.0,0.0,0.0,0.0,0.0,0.0,0.0,0.0,0.0,0.0,0.0,0.0,0.0,0.0,0.0,0.0,0.0,0.0,0.0,0.0,0.0,0.0,0.0,0.0,0.0,0.0,0.0,0.0,0.0,0.0,-0.7357,-0.6995,-0.7077,-0.6929,-0.6632,0.0,0.0,0.0,0.0,0.0,0.0,0.0,0.0,0.0,-0.6261,-0.6537,-0.6789,-0.6895,-0.7075,-0.719,-0.7306,-0.7418,-0.7505,-0.7692,-0.7692,-0.7779,-0.7894,-0.7845,-0.7682,-0.7453,-0.7312,-0.7154,-0.6991,0.0,0.0,0.0,0.0,-0.7031,-0.709,0.0,0.0,0.0,0.0,0.0,0.0,0.0,0.0,0.0,0.0,0.0,0.0,-1.4776,-1.5578,-1.6109,-1.6318,-1.6108,-1.5732,-1.5269,-1.4629,-1.3999,-1.3447,-1.3302,-1.3209,-1.3282,-1.3785,-1.4545,-1.562,-1.6477,-1.6972,-1.7117,-1.7503,-1.7684,-1.7684,-1.7491,-1.6694,-1.5487,-1.5582,-1.5048,-1.4053,0.0,0.0,0.0,0.0,0.0,0.0,0.0,0.0,0.0,0.0,0.0,0.0,0.0,0.0,0.0,0.0,0.0,0.0,0.0,0.0,0.0,0.0,0.0,0.0,0.0,0.0,0.0,0.0,0.0,0.0,0.0,0.0,0.0,0.0,0.0,0.0,0.0,-0.6881,-0.6721,-0.673,-0.6569,-0.6354,0.0,0.0,0.0,0.0,0.0,0.0,-0.6105,-0.6223,-0.6328,-0.6341,-0.6561,-0.6751,-0.6899,-0.7025,-0.7126,-0.7207,-0.7236,-0.7379,-0.7577,-0.7577,-0.7783,-0.8012,-0.7953,-0.783,-0.7653,-0.7471,-0.7355,-0.7241,-0.7154,-0.7067,-0.6986,-0.6986,-0.6986,-0.6986,0.0,0.0,0.0,0.0,0.0,0.0,0.0,0.0,0.0,0.0,0.0,-1.4759,-1.5624,-1.6299,-1.6887,-1.7462,-1.7266,-1.7002,-1.6713,-1.5695,-1.4887,-1.4256,-1.3761,-1.3616,-1.3857,-1.4871,-1.5922,-1.6996,-1.7298,-1.7708,-1.8215,-1.8239,-1.8251,-1.8251,-1.8239,-1.7636,-1.6629,-1.6358,-1.5732,-1.4896,-1.4581,0.0,0.0,0.0,0.0,0.0,0.0,0.0,0.0,0.0,0.0,0.0,0.0,0.0,0.0,0.0,0.0,0.0,0.0,0.0,0.0,0.0,0.0,0.0,0.0,0.0,0.0,0.0,0.0,0.0,0.0,0.0,0.0,0.0,0.0,0.0,0.0,0.0,0.0,-0.6791,-0.6583,0.0,0.0,0.0,0.0,-0.5553,-0.5573,-0.5663,-0.5817,-0.5929,-0.6027,-0.6035,-0.6438,-0.6682,-0.669,-0.7011,-0.7203,-0.7207,-0.7247,-0.7294,-0.7294,-0.7294,-0.7551,-0.7922,-0.7648,-0.7551,-0.7583,-0.7659,-0.7611,-0.7502,-0.7491,-0.7486,-0.7481,-0.7481,-0.7481,-0.7481,0.0,0.0,0.0,0.0,0.0,-1.2358,-1.2596,-1.2717,-1.3065,-1.3828,-1.4442,-1.5217,-1.6273,-1.7088,-1.7716,-1.813,-1.8123,-1.765,-1.6827,-1.626,-1.548,-1.4328,-1.4292,-1.4485,-1.492,-1.5982,-1.6791,-1.7346,-1.7962,-1.836,-1.8553,-1.8722,-1.8794,-1.8794,-1.8613,-1.8336,-1.7973,-1.7333,-1.6712,-1.6024,-1.533,-1.4718,0.0,0.0,0.0,0.0,0.0,0.0,0.0,0.0,0.0,0.0,0.0,0.0,0.0,0.0,0.0,0.0,0.0,0.0,0.0,0.0,0.0,0.0,0.0,0.0,0.0,0.0,0.0,0.0,0.0,0.0,0.0,0.0,0.0,0.0,0.0,0.0,0.0,-0.6387,-0.6237,0.0,-0.5772,-0.5827,-0.5827,-0.5765,-0.5794,-0.5945,-0.6035,-0.61,-0.6161,-0.6223,-0.6385,-0.6496,-0.6555,-0.6687,-0.6753,-0.6753,-0.6519,-0.6535,-0.6805,-0.6535,-0.6568,-0.6836,-0.6766,-0.6664,-0.6545,-0.6598,-0.6775,-0.6981,-0.6981,-0.6936,-0.6871,-0.711,-0.7168,-0.7232,0.0,0.0,0.0,0.0,-1.2562,-1.2398,-1.2744,-1.2958,-1.3373,-1.4311,-1.5115,-1.5965,-1.7034,-1.7943,-1.8557,-1.8771,-1.888,-1.8442,-1.7296,-1.6886,-1.6103,-1.4887,-1.5018,-1.5403,-1.6018,-1.6815,-1.7443,-1.7889,-1.842,-1.8734,-1.8819,-1.9,-1.9072,-1.9072,-1.8891,-1.8819,-1.8833,-1.8275,-1.769,-1.7038,-1.6369,-1.5822,-1.537,0.0,0.0,0.0,0.0,0.0,0.0,0.0,0.0,0.0,0.0,0.0,0.0,0.0,0.0,0.0,0.0,0.0,0.0,0.0,0.0,0.0,0.0,0.0,0.0,0.0,0.0,0.0,0.0,0.0,0.0,0.0,0.0,0.0,0.0,-0.6619,-0.6508,-0.625,-0.6124,-0.5974,-0.5823,-0.588,-0.5941,-0.6002,-0.6092,-0.6166,-0.6223,-0.6255,-0.6235,-0.6159,-0.6163,-0.6125,-0.6116,-0.625,-0.625,-0.6116,-0.5848,-0.5711,-0.5711,-0.5376,-0.5282,-0.5433,-0.5537,-0.5451,-0.5196,-0.5301,-0.5397,-0.5516,-0.6185,-0.6326,-0.6208,-0.6629,-0.6812,-0.6867,0.0,0.0,0.0,-1.2893,-1.2576,-1.2412,-1.2757,-1.3267,-1.3933,-1.4901,-1.5992,-1.7048,-1.7902,-1.8851,-1.9386,-1.9386,-1.9639,-1.9322,-1.821,-1.7553,-1.6832,-1.5989,-1.5948,-1.6296,-1.708,-1.7382,-1.7901,-1.8686,-1.8698,-1.8831,-1.9072,-1.9072,-1.9072,-1.9072,-1.9072,-1.9072,-1.9124,-1.9173,-1.8749,-1.7938,-1.7644,-1.7055,-1.6273,0.0,0.0,0.0,0.0,0.0,0.0,0.0,0.0,0.0,0.0,0.0,0.0,0.0,0.0,0.0,0.0,0.0,0.0,0.0,0.0,0.0,0.0,0.0,0.0,0.0,0.0,0.0,0.0,0.0,0.0,0.0,0.0,0.0,-0.6649,-0.657,-0.6487,-0.6385,-0.6185,-0.6025,-0.6174,-0.6182,-0.6186,-0.6186,-0.6268,-0.6321,-0.6321,-0.6406,-0.6317,-0.5912,-0.5912,-0.5711,-0.5379,-0.5714,-0.5714,-0.5379,-0.5379,-0.4977,-0.4233,-0.39,-0.3698,-0.3758,-0.3907,-0.3849,-0.3534,-0.3807,-0.3498,-0.3141,-0.5046,-0.5602,-0.5421,-0.6096,-0.6342,-0.6464,0.0,0.0,-1.309,-1.2929,-1.2777,-1.277,-1.3039,-1.3587,-1.4282,-1.5164,-1.6112,-1.7128,-1.825,-1.9158,-1.9679,-1.9679,-1.9947,-1.9615,-1.8455,-1.7986,-1.739,-1.6502,-1.6677,-1.696,-1.737,-1.8022,-1.8469,-1.8686,-1.8879,-1.9,-1.9072,-1.9072,-1.9072,-1.9072,-1.9072,-1.9072,-1.9136,-1.937,-1.9375,-1.9165,-1.8668,-1.8266,-1.7809,0.0,0.0,0.0,0.0,0.0,0.0,0.0,0.0,0.0,0.0,0.0,0.0,0.0,0.0,0.0,0.0,0.0,0.0,0.0,0.0,0.0,0.0,0.0,0.0,0.0,0.0,0.0,0.0,0.0,0.0,0.0,-0.6715,-0.6594,-0.6478,-0.645,-0.6372,-0.6127,-0.6155,-0.6153,-0.6178,-0.6239,-0.628,-0.628,-0.6366,-0.6415,-0.6415,-0.6506,-0.6317,-0.5912,-0.5912,-0.5711,-0.5379,-0.5513,-0.5312,-0.4977,-0.444,-0.3833,-0.3092,-0.2487,-0.2084,-0.1814,-0.1874,-0.1845,-0.1739,-0.1797,-0.1704,-0.1725,-0.3202,-0.3879,-0.4127,-0.4739,-0.554,-0.6403,0.0,-1.3631,-1.3312,-1.3089,-1.2999,-1.3039,-1.3347,-1.3895,-1.4589,-1.5458,-1.6446,-1.7475,-1.8557,-1.9345,-1.98,-1.98,-1.996,-1.9674,-1.8731,-1.8236,-1.7767,-1.7261,-1.7402,-1.7599,-1.7974,-1.8444,-1.8746,-1.8843,-1.9,-1.9072,-1.9072,-1.9072,-1.9072,-1.9072,-1.9072,-1.92,-1.9328,-1.9647,-1.9941,-2.0078,-1.9868,-1.9489,-1.8971,-1.837,-1.7755,-1.7069,-1.6125,-1.5519,-1.5096,-1.423,0.0,0.0,0.0,0.0,0.0,0.0,0.0,0.0,0.0,0.0,0.0,0.0,0.0,0.0,0.0,0.0,0.0,0.0,0.0,0.0,0.0,0.0,0.0,0.0,-0.6751,-0.6565,-0.6422,-0.6454,-0.6393,-0.6149,-0.6243,-0.6296,-0.6296,-0.6345,-0.6374,-0.6374,-0.6423,-0.6522,-0.6522,-0.6522,-0.625,-0.5714,-0.5714,-0.5446,-0.491,-0.5111,-0.491,-0.437,-0.3833,-0.3026,-0.2018,-0.1277,-0.0672,-0.0202,-0.0336,-0.0331,-0.0193,-0.0322,-0.038,-0.0493,0.0,0.0,0.0,0.0,-0.4558,-0.5602,-1.4154,-1.3873,-1.3601,-1.3397,-1.3287,-1.3347,-1.356,-1.4133,-1.487,-1.5678,-1.6847,-1.7929,-1.8824,-1.9426,-1.9746,-1.9746,-1.9746,-1.9546,-1.8994,-1.8383,-1.8109,-1.8105,-1.8008,-1.8191,-1.8674,-1.871,-1.8843,-1.9072,-1.9072,-1.9072,-1.9072,-1.9072,-1.9072,-1.9072,-1.9136,-1.9328,-1.9635,-1.9979,-2.0361,-2.0615,-2.0982,-2.0628,-1.984,-1.9319,-1.8861,-1.8404,-1.7319,-1.6873,-1.6587,-1.5606,0.0,0.0,0.0,0.0,0.0,0.0,0.0,0.0,0.0,0.0,0.0,0.0,0.0,0.0,0.0,0.0,0.0,0.0,0.0,0.0,0.0,0.0,0.0,0.0,-0.6652,-0.651,-0.6469,-0.646,-0.6455,-0.6296,-0.6398,-0.6522,-0.6522,-0.6522,-0.6522,-0.6522,-0.6522,-0.6522,-0.6522,-0.6522,0.0,0.0,0.0,-0.5111,-0.4442,-0.4708,-0.4504,-0.3835,-0.3362,-0.2422,-0.1077,-0.0269,0.0471,0.1144,0.0808,0.0861,0.1096,0.0774,0.0634,0.0432,-0.0863,-0.1418,-0.1541,-0.2467,-0.3389,-0.4247,-1.4298,-1.4097,-1.3928,-1.3733,-1.36,-1.3533,-1.36,-1.4349,-1.511,-1.5704,-1.6847,-1.7929,-1.8824,-1.9239,-1.9511,-1.9511,-1.9511,-1.9376,-1.9246,-1.8847,-1.8618,-1.8665,-1.8569,-1.8577,-1.8686,-1.8891,-1.9024,-1.9072,-1.9072,-1.9072,-1.9072,-1.9072,-1.9072,-1.9136,-1.9392,-1.9507,-1.9647,-2.0221,-2.0539,-2.0615,-2.0982,-2.0869,-2.0494,-2.0388,-1.97,-1.877,-1.8537,-1.786,-1.6984,-1.6556,-1.6247,-1.5922,-1.5065,-1.4835,0.0,0.0,0.0,0.0,0.0,0.0,0.0,0.0,0.0,0.0,0.0,0.0,0.0,0.0,0.0,0.0,0.0,0.0,0.0,-0.6949,-0.6881,-0.6789,-0.6679,-0.6468,-0.6341,-0.6313,-0.6398,-0.6522,-0.6522,-0.6522,-0.6522,-0.6522,-0.6522,-0.6522,-0.6522,-0.6522,-0.6317,-0.5845,-0.5778,-0.558,-0.5181,-0.491,-0.4574,-0.4174,-0.3228,0.0,-0.1077,-0.0067,0.0808,0.1548,0.175,0.1855,0.1871,0.1806,0.1458,0.0803,-0.0247,-0.0864,-0.1172,-0.1604,-0.2219,-0.2897,-1.4628,-1.4471,-1.4294,-1.4095,-1.3954,-1.3868,-1.3868,-1.4496,-1.5124,-1.5551,-1.6633,-1.7648,-1.8183,-1.8664,-1.8931,-1.8931,-1.9065,-1.9274,-1.9523,-1.9382,-1.936,-1.9458,-1.9299,-1.9132,-1.9132,-1.9139,-1.9072,-1.9072,-1.9072,-1.9072,-1.9072,-1.9072,-1.92,-1.9392,-1.952,-1.9775,-2.0094,-2.0475,-2.0666,-2.0856,-2.1046,-2.1029,-2.0882,-2.0548,-2.0064,-1.9485,-1.8981,-1.8367,-1.7689,-1.7235,-1.6923,-1.6585,-1.5922,-1.5608,-1.5366,0.0,0.0,0.0,0.0,0.0,0.0,0.0,0.0,0.0,0.0,0.0,0.0,0.0,0.0,-0.7287,-0.7212,0.0,-0.7243,-0.7005,-0.6935,-0.6858,-0.655,-0.6353,-0.6333,-0.6382,-0.6494,-0.6522,-0.6522,-0.6522,-0.6522,-0.6522,-0.6522,-0.6522,-0.6522,-0.6522,-0.6317,-0.5912,-0.5912,-0.5711,-0.5379,-0.5178,-0.491,-0.4507,-0.3698,-0.269,-0.1615,-0.074,0.0202,0.1077,0.1077,0.1192,0.1288,0.0952,0.0563,0.0185,-0.0494,-0.0617,-0.0556,-0.0864,-0.1296,-0.1789,-1.4988,-1.4784,-1.4581,-1.4418,-1.4213,-1.4082,-1.4082,-1.4579,-1.5003,-1.5351,-1.6375,-1.7166,-1.7514,-1.7929,-1.825,-1.8303,-1.8584,-1.9052,-1.9746,-1.9719,-1.985,-2.025,-1.9903,-1.9711,-1.9711,-1.9392,-1.92,-1.92,-1.9136,-1.9072,-1.9072,-1.92,-1.9328,-1.9647,-1.9775,-2.0094,-2.0602,-2.0666,-2.0856,-2.1109,-2.1109,-2.1109,-2.1019,-2.0417,-2.0201,-2.005,-1.9137,-1.8618,-1.8286,-1.7766,-1.7382,-1.708,-1.661,-1.6308,-1.6006,-1.5427,-1.4705,0.0,0.0,0.0,0.0,0.0,0.0,0.0,0.0,0.0,-0.7574,-0.7397,-0.738,-0.7364,-0.7292,-0.7437,-0.7482,-0.7082,-0.7031,-0.6914,-0.6492,-0.6399,-0.637,-0.6514,-0.6522,-0.6522,-0.6522,-0.6522,-0.6522,-0.6522,-0.6522,-0.6522,-0.6522,-0.6522,-0.6317,-0.6046,-0.6046,-0.5915,-0.5647,-0.5513,-0.5312,-0.4973,-0.4305,-0.3497,-0.2487,-0.1749,-0.0875,0.0067,-0.0134,-0.0066,0.0064,-0.0562,-0.0802,-0.0925,-0.1234,-0.1049,-0.0555,-0.0617,-0.0741,-0.0926,0.0,-1.4991,-1.4685,-1.4643,-1.4349,-1.4082,-1.4082,-1.4362,-1.4763,-1.5324,-1.5965,-1.663,-1.7192,-1.7313,-1.746,-1.7662,-1.7969,-1.8555,-1.9733,-1.9719,-1.9941,-2.0537,-2.0221,-2.0043,-2.0043,-1.9711,-1.9507,-1.9507,-1.9264,-1.9072,-1.9136,-1.9392,-1.9571,-1.9635,-2.0221,-2.0539,-2.0602,-2.0919,-2.1046,-2.1109,-2.1109,-2.1109,-2.1046,-2.0386,-2.0119,-2.0017,-1.9362,-1.8778,-1.8264,-1.7986,-1.766,-1.7382,-1.7092,-1.6984,-1.6803,-1.603,0.0,-1.482,-1.4032,-1.2251,-1.0339,-0.9153,-0.8443,-0.7994,0.0,0.0,-0.7456,-0.7572,-0.7427,-0.7366,-0.76,-0.7747,-0.7755,-0.7583,-0.7395,-0.7145,-0.6845,-0.6655,-0.651,-0.6518,-0.6522,-0.6522,-0.6522,-0.6522,-0.6522,-0.6522,-0.6522,-0.6522,-0.6522,-0.6522,-0.6455,-0.6451,-0.6451,-0.6384,-0.6388,-0.6049,-0.5845,-0.5778,-0.5041,-0.4303,-0.3566,-0.2825,-0.2084,-0.1343,-0.1048,-0.1034,-0.1285,-0.1685,-0.2034,-0.2341,-0.2648,-0.271,-0.2525,-0.1357,-0.0803,-0.0556,0.0,-1.5033,-1.4699,-1.4699,-1.4377,-1.4082,-1.4082,-1.4335,-1.4669,-1.5084,-1.5658,-1.6179,-1.6643,-1.6844,-1.7074,-1.7542,-1.7862,-1.8488,-1.972,-1.99,-2.0249,-2.0829,-2.0539,-2.0425,-2.0425,-2.0043,-1.9903,-1.9903,-1.9724,-1.966,-1.9724,-1.9851,-1.9966,-2.0221,-2.0475,-2.0729,-2.0919,-2.1046,-2.1109,-2.1109,-2.1109,-2.1109,-2.1019,-2.0168,-1.975,-1.9536,-1.8927,-1.8301,0.0,-1.7503,-1.7249,-1.7008,-1.6899,-1.6754,-1.6549,-1.6211,-1.563,0.0,-1.3298,-1.1864,-1.0412,0.0,-0.8295,-0.7877,-0.7442,-0.7432,-0.7477,-0.7532,-0.7522,-0.7578,-0.7682,-0.785,-0.7957,0.0,-0.7657,-0.7515,-0.7053,-0.6894,-0.6719,-0.6522,-0.6522,-0.6522,-0.6522,-0.6522,-0.6522,-0.6522,-0.6522,-0.6522,-0.6522,-0.6522,-0.6522,-0.6522,-0.6522,-0.6522,-0.6522,-0.6317,-0.625,-0.625,-0.5711,-0.5175,-0.4708,-0.4168,-0.3763,-0.3423,-0.3195,-0.3284,-0.3596,-0.368,-0.3756,-0.394,-0.4063,-0.4125,-0.394,-0.2404,-0.1666,-0.1296,0.0,-1.5033,-1.4699,-1.4699,-1.4377,-1.4082,-1.4082,-1.4269,-1.4536,-1.4955,-1.5324,-1.5738,-1.6112,-1.6339,-1.67,-1.7288,-1.7622,-1.8303,-1.9479,-1.9907,-2.0374,-2.0962,-2.0816,-2.0729,-2.0729,-2.0425,-2.0234,-2.0234,-2.017,-2.0106,-2.0106,-2.017,-2.0361,-2.0602,-2.0666,-2.0856,-2.1109,-2.1109,-2.1109,-2.1109,-2.1109,-2.1069,-2.0899,-2.0063,-1.9456,-1.8965,-1.8313,-1.772,-1.7225,-1.696,-1.6694,-1.6477,-1.6477,-1.6344,-1.6163,-1.6091,-1.5417,-1.4369,-1.2693,-1.1458,-1.0306,-0.8923,-0.8175,-0.7718,-0.7359,-0.7415,-0.7568,-0.7568,-0.7665,-0.7747,-0.7747,-0.7915,-0.8032,-0.7837,-0.7881,-0.7731,-0.724,-0.7054,-0.6853,-0.6518,-0.6522,-0.6522,-0.6522,-0.6522,-0.6522,-0.6522,-0.6522,-0.6522,-0.6522,-0.6522,-0.6522,-0.6522,-0.6522,-0.6522,-0.6522,-0.6522,-0.6522,-0.6522,-0.6183,-0.5848,-0.5513,-0.5242,-0.5175,-0.5235,-0.5086,-0.5215,-0.5525,-0.5361,-0.5356,-0.5479,-0.5479,-0.5479,-0.5295,-0.3943,-0.302,-0.2342,0.0,0.0,-1.4699,-1.4699,-1.4377,-1.4082,-1.4082,-1.4095,-1.4309,-1.4928,-1.5022,-1.5204,-1.5778,-1.5798,-1.6086,-1.6673,-1.7058,-1.7728,-1.8878,-1.9492,-2.008,-2.0668,-2.0962,-2.1109,-2.1109,-2.0729,-2.0615,-2.0615,-2.0234,-2.0106,-2.0106,-2.0425,-2.0602,-2.0602,-2.0919,-2.1109,-2.1109,-2.1109,-2.1109,-2.1109,-2.1109,-2.0935,-2.0633,-1.9985,-1.9226,-1.8453,-1.7738,-1.7165,-1.6682,-1.6404,-1.6127,-1.591,-1.591,-1.591,0.0,-1.5596,-1.4728,-1.3646,-1.2675,-1.1147,-0.9658,-0.8871,-0.8004,-0.7361,-0.7481,-0.7606,-0.7698,-0.7698,-0.7785,-0.7867,-0.7867,-0.8032,-0.8095,-0.8151,-0.8011,-0.7797,-0.7512,-0.7187,-0.6853,-0.6518,-0.6522,-0.6522,0.0,-0.6522,-0.6522,-0.6522,-0.6522,-0.6522,-0.6522,-0.6522,-0.6522,-0.6522,-0.6522,-0.6522,-0.6522,-0.6522,-0.6522,-0.6522,-0.6522,-0.625,-0.5912,-0.5845,-0.6046,-0.6376,-0.6194,-0.631,-0.6622,-0.6421,-0.6526,-0.6837,-0.6837,-0.6837,-0.6775,-0.6039,-0.4807,-0.3389,0.0,0.0,0.0,0.0,0.0,-1.4713,-1.4713,-1.4496,-1.4589,-1.5177,-1.5418,0.0,0.0,0.0,0.0,0.0,-1.6911,-1.7488,-1.8235,-1.9078,-1.9773,-2.0361,-2.0668,-2.0909,-2.1109,-2.0982,-2.0919,-2.0919,-2.0792,-2.0729,-2.0792,-2.0856,-2.0919,-2.0919,-2.1046,-2.1109,-2.1109,-2.1109,-2.1109,-2.1096,-2.0895,-2.0762,-2.0553,-1.9352,-1.8499,-1.7792,0.0,-1.6054,-1.5837,-1.539,-1.5185,-1.5113,-1.5113,-1.5234,-1.539,-1.5475,-1.4926,-1.4228,-1.3634,-1.2294,-1.0899,-1.0003,-0.8968,-0.8113,-0.7982,-0.7911,-0.7812,-0.7812,-0.7845,-0.7872,-0.7872,-0.8032,-0.813,-0.8106,-0.8221,-0.8099,-0.7807,-0.7545,-0.7165,-0.6837,-0.6564,0.0,0.0,0.0,-0.6522,-0.6522,-0.6522,-0.6522,-0.6522,-0.6522,-0.6522,-0.6522,-0.6522,-0.6522,-0.6522,-0.6522,-0.6522,-0.6522,-0.6719,-0.6786,-0.6648,-0.7121,-0.7388,-0.7512,-0.7557,-0.7591,-0.7704,-0.7475,-0.7444,-0.7566,-0.7566,-0.7566,-0.7505,-0.7082,-0.628,-0.5233,0.0,0.0,0.0,0.0,0.0,0.0,0.0,0.0,0.0,0.0,0.0,0.0,0.0,0.0,0.0,0.0,0.0,-1.7141,-1.7836,-1.8517,-1.9199,-1.9893,-2.0201,-2.0494,-2.0788,-2.0802,-2.0802,-2.0802,-2.0802,-2.0802,-2.0802,-2.0802,-2.0802,-2.0802,-2.0802,-2.0802,-2.0802,-2.0802,-2.0802,-2.0775,-2.0481,-2.0307,-2.006,-1.8706,-1.7835,0.0,-1.5707,-1.5149,-1.5016,-1.4678,-1.4497,-1.4449,-1.4533,-1.4751,-1.5016,-1.5282,-1.5018,-1.452,-1.4088,-1.2907,-1.1541,-1.0751,-0.97,-0.8719,-0.8474,-0.8242,-0.8044,-0.7878,-0.7812,-0.7796,-0.7752,-0.7845,-0.8004,-0.8043,-0.8193,-0.8237,-0.7948,-0.7786,-0.7569,-0.7172,-0.6898,-0.667,0.0,0.0,0.0,-0.6473,-0.6502,-0.6522,-0.6522,-0.6522,-0.6522,-0.6522,-0.6522,-0.6522,-0.6522,-0.6522,-0.6589,-0.6652,-0.692,-0.7121,-0.7388,-0.7856,-0.8169,-0.8188,-0.8194,-0.8209,-0.8155,-0.7954,-0.7811,-0.775,-0.775,-0.7627,-0.7505,-0.7138,-0.6709,-0.6035,0.0,0.0,0.0,0.0,0.0,0.0,0.0,0.0,0.0,0.0,0.0,0.0,0.0,0.0,0.0,0.0,0.0,0.0,-1.7488,-1.7836,-1.841,-1.9279,-1.9599,-1.9893,-2.0127,-2.0187,-2.0187,-2.0187,-2.0187,-2.0187,-2.0187,-2.0187,-2.0187,-2.0187,-2.0187,-2.0187,-2.0187,-2.0187,-2.0187,-2.016,-1.9853,-1.9573,-1.9194,-1.8035,-1.7236,-1.6596,-1.5219,-1.4509,-1.428,0.0,0.0,0.0,-1.4232,-1.4509,-1.4787,-1.5065,-1.4926,-1.4559,-1.4217,-1.2975,-1.1744,-1.1232,-1.0206,-0.9228,-0.8945,-0.8665,-0.8326,-0.7845,-0.7758,-0.7655,0.0,0.0,-0.7731,-0.7845,-0.8068,-0.814,-0.7927,-0.8046,-0.7922,0.0,0.0,0.0,0.0,0.0,0.0,-0.639,-0.6469,-0.6522,-0.6522,-0.6522,-0.6522,-0.6522,-0.6522,-0.6522,-0.6522,-0.6522,-0.6652,-0.6982,-0.7054,-0.7455,-0.8123,-0.8123,-0.8199,-0.841,-0.8291,-0.8166,-0.8046,-0.7921,-0.7689,-0.7327,-0.7327,-0.7143,-0.6775,-0.6464,-0.6101,-0.5794,0.0,0.0,0.0,0.0,0.0,0.0,0.0,0.0,0.0,0.0,0.0,0.0,0.0,0.0,0.0,0.0,0.0,0.0,-1.6914,-1.7408,-1.8009,-1.8691,-1.8998,-1.9292,-1.9586,-1.9586,-1.9586,-1.9586,-1.9586,-1.9586,-1.9586,-1.9586,-1.9586,-1.9586,-1.9586,-1.9586,-1.9586,-1.9586,-1.9586,-1.9546,-1.9025,-1.8784,-1.8624,-1.7381,-1.6639,-1.6049,-1.5071,-1.4375,0.0,0.0,0.0,0.0,0.0,-1.4787,-1.5101,-1.5559,-1.547,-1.5286,-1.5287,-1.4452,-1.3499,-1.2839,-1.1867,-1.0914,-1.0415,-0.9794,-0.9108,-0.854,-0.8154,-0.7844,0.0,0.0,0.0,-0.7725,-0.7943,0.0,-0.8135,-0.8131,0.0,-0.7807,0.0,-0.7379,-0.7233,-0.7294,0.0,-0.7107,-0.6734,-0.6522,-0.6522,-0.6522,-0.6522,-0.6522,-0.6522,-0.6522,-0.6522,-0.6719,-0.692,-0.6982,-0.7588,-0.7922,-0.8123,-0.839,-0.8458,-0.841,-0.8291,-0.8039,-0.7734,-0.7557,-0.7199,-0.6648,-0.6648,-0.628,-0.579,-0.5667,-0.5298,-0.4745,0.0,0.0,0.0,0.0,0.0,0.0,0.0,0.0,0.0,0.0,0.0,0.0,0.0,0.0,0.0,0.0,0.0,0.0,0.0,-1.7259,-1.7662,-1.8263,-1.8395,-1.8677,-1.8971,-1.8985,-1.8918,-1.8784,-1.8784,-1.8718,-1.8584,-1.8584,-1.8584,-1.8584,-1.8584,-1.8584,-1.8584,-1.8584,-1.8584,0.0,0.0,-1.7903,-1.7822,-1.6741,-1.611,-1.5655,-1.4808,0.0,0.0,0.0,0.0,-1.4545,-1.4944,-1.5246,-1.5535,-1.5946,0.0,-1.5958,-1.5874,-1.5358,-1.4693,-1.4004,-1.3195,-1.2329,-1.1467,-1.0718,-0.9964,-0.9078,-0.8466,0.0,-0.7601,-0.7462,0.0,0.0,0.0,0.0,-0.822,-0.8246,-0.8296,0.0,-0.8025,0.0,-0.7677,-0.7666,-0.7634,-0.7436,-0.716,-0.6924,-0.6924,-0.6924,-0.6924,-0.6924,-0.6924,-0.6924,-0.6924,-0.7121,-0.7321,-0.7455,-0.7722,-0.7927,-0.8123,-0.8123,-0.8127,-0.8144,-0.8033,-0.7854,-0.7546,-0.7306,-0.6709,-0.5912,-0.5663,-0.5111,-0.4558,-0.4373,-0.4004,-0.3576,0.0,0.0,0.0,0.0,0.0,0.0,0.0,0.0,0.0,0.0,-1.6607,-1.686,0.0,0.0,0.0,0.0,0.0,0.0,0.0,0.0,-1.7395,-1.7902,-1.7929,-1.8103,-1.8357,-1.837,-1.8223,-1.7876,-1.7876,-1.7769,-1.7462,-1.7462,-1.7462,-1.7462,-1.7462,-1.7462,-1.7462,-1.7462,-1.7462,-1.7435,-1.7206,-1.7085,-1.6981,0.0,-1.5784,-1.539,0.0,0.0,0.0,0.0,-1.4847,-1.4956,-1.5403,-1.5753,-1.6054,-1.6332,-1.6506,-1.6621,-1.6322,-1.6015,-1.5639,-1.4927,-1.4312,-1.352,-1.2393,-1.1561,-1.0682,-0.9482,0.0,-0.8132,-0.7683,-0.7415,-0.7355,-0.7497,0.0,-0.8062,-0.8214,-0.8426,-0.8568,-0.8584,-0.859,-0.8456,-0.8189,-0.8189,-0.7989,-0.766,-0.766,-0.7593,-0.7526,-0.7526,-0.7526,-0.7526,-0.7526,-0.7526,-0.7526,-0.7526,-0.7727,-0.8123,-0.7727,-0.7794,-0.8056,-0.766,-0.7663,-0.7883,-0.7791,-0.7673,-0.7483,-0.7074,-0.6228,-0.5176,-0.4555,-0.394,-0.3328,-0.3018,-0.2773,-0.2529,0.0,0.0,0.0,0.0,0.0,0.0,0.0,0.0,0.0,0.0,-1.7099,-1.7152,0.0,0.0,0.0,0.0,0.0,0.0,0.0,0.0,0.0,-1.7649,-1.7662,-1.7689,-1.7742,-1.7742,-1.7595,-1.7353,-1.7353,-1.7154,-1.686,-1.686,-1.686,-1.686,-1.686,-1.686,-1.686,-1.686,-1.686,-1.6834,-1.654,-1.6482,-1.6469,-1.6313,0.0,0.0,0.0,0.0,0.0,0.0,-1.5511,-1.5704,-1.5789,-1.6163,-1.661,-1.6875,-1.6963,-1.6968,-1.6891,-1.6809,-1.6537,-1.565,-1.5039,-1.4356,-1.3372,-1.2188,0.0,0.0,-0.9161,-0.8295,-0.7721,-0.7399,-0.7258,-0.7481,0.0,0.0,0.0,0.0,-0.8481,0.0,0.0,0.0,0.0,-0.8523,0.0,0.0,-0.839,-0.8123,-0.7526,-0.7526,-0.7526,-0.7526,-0.7526,-0.7526,-0.7526,-0.7861,-0.8056,-0.8123,-0.8056,-0.8056,-0.8056,-0.766,-0.7663,-0.7883,-0.7867,-0.7611,-0.7176,-0.6781,-0.5858,-0.4561,-0.4127,-0.3451,-0.265,-0.2589,-0.2529,-0.2467,0.0,0.0,0.0,0.0,0.0,0.0,0.0,-1.7152,-1.7474,-1.7582,-1.7742,-1.7782,-1.746,-1.7649,-1.7702,0.0,0.0,0.0,0.0,0.0,0.0,0.0,0.0,0.0,-1.7582,-1.7582,-1.7487,-1.7206,0.0,-1.6965,-1.6486,-1.6486,-1.6393,-1.6246,-1.6246,-1.6246,-1.6246,-1.6246,-1.6246,-1.6246,-1.6273,-1.6321,-1.6335,0.0,0.0,0.0,0.0,0.0,0.0,0.0,-1.5765,-1.6115,-1.6272,-1.6585,-1.696,-1.7213,-1.7298,-1.7322,-1.7279,-1.7256,-1.7079,-1.6242,-1.5711,-1.495,-1.367,0.0,0.0,0.0,-0.9022,-0.8217,-0.7615,0.0,0.0,0.0,0.0,0.0,0.0,0.0,0.0,0.0,0.0,0.0,0.0,-0.859,-0.859,-0.859,-0.859,-0.8456,-0.8123,-0.8056,-0.8056,-0.8056,-0.8056,-0.8056,-0.8056,-0.8256,-0.839,-0.8323,-0.7989,-0.7794,-0.7794,-0.7259,-0.7231,-0.771,-0.7585,-0.7437,-0.7207,-0.6783,-0.5773,-0.4425,-0.3712,-0.3022,-0.2467,-0.2282,-0.2344,-0.2529,0.0,0.0,0.0,0.0,0.0,0.0,-1.7206,-1.7595,-1.7969,-1.8263,-1.8637,-1.8637,-1.8036,-1.8009,-1.7889,0.0,0.0,0.0,0.0,0.0,0.0,0.0,0.0,0.0,0.0,0.0,0.0,-1.7206,-1.7206,0.0,0.0,0.0,0.0,0.0,-1.5925,-1.5885,-1.5784,-1.5784,-1.5784,0.0,0.0,-1.6321,0.0,0.0,0.0,0.0,0.0,0.0,0.0,0.0,-1.5897,-1.632,-1.6537,-1.6791,-1.7056,-1.7322,-1.7394,-1.7406,-1.7467,-1.7479,-1.7349,-1.6586,-1.6042,-1.5213,-1.3613,-1.2302,0.0,0.0,-0.8761,-0.8062,-0.7522,0.0,-0.7192,0.0,0.0,0.0,0.0,0.0,0.0,0.0,0.0,0.0,0.0,-0.859,0.0,-0.859,-0.859,-0.859,-0.859,-0.859,-0.859,-0.859,-0.859,-0.859,-0.859,-0.859,-0.859,-0.859,-0.7922,-0.766,-0.7593,-0.6991,-0.7058,-0.7655,-0.7502,-0.7454,-0.7486,-0.6869,-0.597,-0.4744,-0.3753,-0.3175,-0.28,-0.2543,-0.2725,-0.3158,0.0,0.0,0.0,0.0,0.0,0.0,-1.7448,-1.8263,-1.8905,-1.9199,-1.9733,-1.9853,-1.9265,-1.8504,-1.7982,0.0,0.0,0.0,0.0,0.0,0.0,0.0,0.0,0.0,0.0,0.0,0.0,-1.7206,-1.7206,0.0,0.0,0.0,0.0,0.0,0.0,-1.6086,-1.5784,-1.5784,0.0,0.0,0.0,0.0,0.0,0.0,0.0,0.0,0.0,0.0,0.0,0.0,0.0,-1.6284,-1.6308,-1.6513,-1.6791,-1.7044,0.0,0.0,-1.7418,-1.7479,-1.7313,-1.6437,-1.5669,-1.4681,-1.3337,0.0,0.0,-0.9564,-0.8594,-0.784,-0.7468,-0.7292,-0.7192,0.0,0.0,-0.7491,0.0,0.0,0.0,0.0,0.0,0.0,0.0,-0.859,-0.859,-0.859,-0.859,-0.859,-0.859,-0.859,-0.859,-0.859,-0.859,-0.859,-0.859,-0.859,-0.859,-0.859,-0.8256,-0.8056,-0.8056,-0.7593,-0.766,-0.8056,-0.8046,-0.7985,-0.7817,-0.7145,-0.6369,-0.5522,-0.4811,-0.4363,-0.4037,-0.392,-0.4338,-0.4831,0.0,0.0,0.0,0.0,0.0,0.0,-1.8009,-1.8437,-1.8838,-1.9305,-1.972,-1.9813,-1.947,-1.9052,-1.8624,-1.8035,0.0,0.0,0.0,0.0,0.0,0.0,0.0,0.0,0.0,0.0,-1.7528,-1.746,-1.746,0.0,0.0,0.0,0.0,0.0,0.0,-1.6206,-1.6086,-1.5912,0.0,0.0,0.0,0.0,0.0,0.0,0.0,0.0,0.0,0.0,0.0,0.0,0.0,0.0,-1.5861,-1.5994,0.0,0.0,-1.6972,-1.7117,-1.7213,-1.7358,-1.7301,-1.6634,-1.5864,-1.4874,-1.3351,0.0,-1.0363,-0.9144,-0.8335,-0.7678,-0.7251,-0.7188,-0.7226,-0.722,-0.729,0.0,0.0,0.0,0.0,0.0,0.0,0.0,0.0,0.0,-0.859,-0.859,-0.859,-0.859,-0.859,-0.859,-0.859,-0.859,-0.859,-0.859,-0.859,-0.859,-0.859,-0.859,-0.8256,-0.8123,-0.8056,-0.766,-0.7727,-0.8123,-0.8123,-0.8097,-0.7985,-0.7459,-0.6753,-0.6061,-0.53,-0.4897,-0.483,-0.4989,-0.5361,-0.5795,0.0,0.0,0.0,0.0,0.0,-1.7474,-1.8237,-1.8437,-1.8704,-1.935,-1.9626,-1.972,-1.9519,-1.947,-1.9052,-1.825,-1.7903,0.0,0.0,0.0,0.0,0.0,0.0,0.0,0.0,0.0,-1.7622,-1.7716,-1.7716,-1.7609,0.0,0.0,-1.7208,-1.6834,0.0,0.0,0.0,0.0,0.0,0.0,0.0,0.0,0.0,0.0,0.0,0.0,0.0,0.0,0.0,0.0,0.0,0.0,0.0,0.0,0.0,0.0,-1.6646,-1.6887,-1.7044,-1.7225,-1.724,-1.6689,-1.5921,-1.4975,0.0,0.0,-1.0363,-0.8829,-0.8068,-0.7516,-0.7094,-0.7133,-0.721,-0.721,0.0,-0.7366,-0.7611,0.0,0.0,0.0,0.0,-0.8432,0.0,-0.8541,-0.859,-0.859,-0.859,-0.859,-0.859,-0.859,-0.859,-0.859,-0.859,-0.859,-0.859,-0.859,-0.859,-0.859,-0.839,-0.8256,-0.8256,-0.7922,-0.7989,-0.8256,-0.8256,-0.8256,-0.8184,-0.7776,-0.7346,-0.681,-0.6153,-0.587,-0.5931,-0.6098,-0.6412,-0.6786,0.0,0.0,0.0,0.0,0.0,-1.7407,-1.7902,-1.8303,-1.8704,-1.935,-1.9626,-1.98,-1.98,-1.9546,-1.9189,-1.8544,-1.821,0.0,0.0,0.0,0.0,0.0,0.0,0.0,0.0,0.0,-1.7729,-1.7995,-1.7995,-1.7982,-1.7982,-1.7982,-1.7716,-1.7192,0.0,0.0,0.0,0.0,0.0,0.0,0.0,0.0,0.0,0.0,0.0,0.0,0.0,0.0,0.0,0.0,0.0,0.0,0.0,-1.5885,-1.5885,0.0,-1.6091,-1.6404,-1.6948,-1.7092,-1.6975,-1.6428,-1.5851,-1.4931,0.0,0.0,-1.0105,-0.8776,-0.7908,-0.7305,-0.704,-0.7133,-0.721,-0.721,-0.721,0.0,-0.7486,0.0,0.0,0.0,0.0,-0.8459,-0.8573,-0.859,-0.859,-0.859,-0.859,-0.859,-0.859,-0.859,-0.859,-0.859,-0.859,-0.859,-0.859,-0.859,-0.859,-0.859,-0.859,-0.859,-0.859,-0.859,-0.859,-0.859,-0.859,-0.859,-0.859,-0.8256,-0.8056,-0.8056,-0.7655,-0.7455,-0.7445,-0.7407,-0.7626,-0.7867,0.0,0.0,0.0,0.0,0.0,0.0,-1.7929,-1.8075,-1.833,-1.8718,-1.9199,-1.9345,-1.8945,-1.9185,-1.9052,-1.8263,-1.8049,0.0,0.0,0.0,0.0,0.0,0.0,0.0,0.0,-1.7796,-1.7889,-1.7995,-1.825,-1.8343,-1.8343,-1.8089,-1.7889,-1.7742,-1.738,-1.7152,0.0,0.0,0.0,0.0,0.0,0.0,-1.6537,0.0,0.0,0.0,0.0,0.0,0.0,0.0,0.0,0.0,0.0,0.0,0.0,-1.5463,-1.5801,-1.632,-1.6489,-1.6682,-1.6754,-1.6366,-1.5864,-1.4977,-1.3437,0.0,-1.0862,-0.9396,-0.8442,-0.7706,-0.7436,-0.7299,-0.721,-0.721,-0.721,0.0,0.0,0.0,0.0,0.0,-0.8291,-0.8465,0.0,0.0,-0.859,-0.859,-0.859,-0.859,-0.859,-0.859,-0.859,-0.859,-0.859,-0.859,-0.859,-0.859,-0.859,-0.859,-0.859,-0.859,-0.859,-0.859,-0.859,-0.859,-0.859,-0.859,-0.859,-0.8256,-0.8123,-0.8061,-0.766,-0.7526,-0.7522,-0.7754,-0.7939,-0.8056,0.0,0.0,0.0,0.0,0.0,0.0,-1.7836,-1.7876,-1.7983,-1.829,-1.8637,-1.8771,-1.8517,-1.8811,-1.8771,-1.8049,-1.7995,0.0,0.0,0.0,0.0,0.0,0.0,0.0,-1.7582,-1.7889,-1.8049,-1.821,-1.8624,-1.8758,-1.8651,-1.8584,-1.837,-1.7969,-1.7662,-1.7474,0.0,0.0,0.0,0.0,0.0,0.0,-1.6271,0.0,0.0,0.0,0.0,0.0,0.0,0.0,0.0,0.0,0.0,0.0,0.0,0.0,-1.5535,-1.5885,0.0,-1.6332,-1.6501,-1.632,-1.5846,0.0,0.0,0.0,-1.119,-0.9706,-0.8768,-0.8048,-0.766,-0.7438,-0.7321,-0.721,-0.7192,-0.729,0.0,0.0,0.0,0.0,0.0,0.0,0.0,-0.859,-0.859,-0.859,-0.859,-0.859,-0.859,-0.859,-0.859,-0.859,-0.859,-0.859,-0.859,-0.859,-0.859,-0.859,-0.859,-0.859,-0.859,-0.859,-0.859,-0.859,-0.859,-0.859,0.0,-0.839,-0.8256,-0.8256,-0.7989,-0.7922,-0.7922,-0.8189,-0.8256,-0.8312,0.0,0.0,0.0,0.0,0.0,0.0,0.0,-1.7582,-1.7689,-1.7916,-1.7982,-1.8089,-1.8397,-1.845,-1.8343,-1.7982,-1.7955,0.0,0.0,0.0,0.0,0.0,0.0,0.0,-1.7582,-1.7903,-1.821,-1.849,-1.9105,-1.9239,-1.8958,-1.9239,-1.8905,-1.8022,-1.8009,-1.7876,-1.7582,-1.7582,-1.7437,-1.712,-1.6789,-1.6524,0.0,0.0,0.0,0.0,0.0,0.0,0.0,0.0,0.0,0.0,0.0,0.0,0.0,0.0,0.0,0.0,0.0,-1.6006,-1.6223,-1.6169,-1.5732,-1.491,-1.3586,0.0,0.0,0.0,-0.8913,-0.8312,-0.7771,-0.7604,-0.7493,-0.7265,-0.7247,-0.7366,0.0,0.0,0.0,0.0,-0.8519,0.0,-0.859,-0.859,-0.859,-0.859,-0.859,-0.859,-0.859,-0.859,-0.859,-0.859,-0.859,-0.859,-0.859,-0.859,-0.859,-0.859,-0.859,-0.859,-0.859,-0.859,-0.859,-0.859,-0.859,-0.859,-0.859,-0.859,-0.859,-0.859,-0.859,-0.859,-0.859,-0.859,-0.859,-0.859,0.0,0.0,0.0,0.0,0.0,0.0,0.0,0.0,0.0,0.0,-1.7849,-1.7929,-1.7809,-1.8009,-1.7969,0.0,0.0,0.0,0.0,0.0,0.0,0.0,0.0,0.0,-1.7582,-1.8116,-1.8424,-1.849,-1.9305,-1.9546,-1.9265,-1.9332,-1.9011,-1.837,-1.8089,-1.7876,-1.7582,-1.7384,-1.712,-1.6789,-1.6537,-1.6217,0.0,0.0,0.0,0.0,-1.5885,-1.5885,0.0,0.0,0.0,0.0,0.0,0.0,0.0,0.0,-1.4996,-1.4784,-1.4702,0.0,-1.5311,-1.5112,-1.4688,-1.3976,0.0,0.0,0.0,0.0,0.0,0.0,0.0,-0.7937,-0.7604,-0.7493,-0.7349,-0.7274,-0.7486,0.0,0.0,-0.8399,-0.8519,-0.859,-0.859,-0.859,-0.859,-0.859,-0.859,-0.859,-0.859,-0.859,-0.859,-0.859,-0.859,-0.859,-0.859,-0.859,-0.859,-0.859,-0.859,-0.859,-0.859,-0.859,-0.859,-0.859,-0.859,-0.859,-0.859,-0.859,-0.859,-0.859,-0.859,-0.859,-0.859,-0.859,-0.859,-0.859,0.0,0.0,0.0,0.0,0.0,0.0,0.0,0.0,0.0,0.0,-1.7729,-1.7769,-1.7595,-1.7729,-1.7769,0.0,0.0,0.0,0.0,0.0,0.0,0.0,0.0,-1.7582,-1.7582,-1.8183,-1.849,-1.849,-1.9506,-1.9853,-1.9573,-1.9706,-1.9452,-1.8865,-1.8249,-1.7769,-1.7437,-1.7279,-1.6961,-1.6471,-1.6377,0.0,0.0,0.0,0.0,0.0,-1.5885,-1.5885,0.0,-1.5885,-1.5885,-1.5873,0.0,0.0,0.0,0.0,-1.4636,-1.4269,-1.3872,-1.4155,-1.4482,-1.4234,-1.3756,-1.308,-1.213,0.0,0.0,0.0,0.0,0.0,0.0,0.0,0.0,0.0,-0.785,0.0,0.0,0.0,0.0,-0.8475,-0.8552,-0.859,-0.859,-0.859,-0.859,-0.859,-0.859,-0.859,-0.859,-0.859,-0.859,-0.859,-0.859,-0.859,-0.859,-0.859,-0.859,-0.859,-0.859,-0.859,-0.859,-0.859,-0.859,-0.859,-0.859,-0.859,-0.859,-0.859,-0.859,-0.859,-0.859,-0.859,-0.859,-0.859,-0.859,-0.859,0.0,0.0,0.0,0.0,0.0,0.0,0.0,0.0,0.0,0.0,0.0,0.0,0.0,0.0,0.0,0.0,0.0,0.0,0.0,0.0,0.0,0.0,-1.7649,-1.7649,-1.7649,-1.825,-1.8584,-1.8624,-1.9706,-2.0107,-1.9867,-2.012,-1.988,-1.9199,-1.8342,-1.7661,-1.7173,-1.712,-1.6749,-1.6324,-1.6271,0.0,0.0,0.0,0.0,0.0,0.0,0.0,0.0,-1.5813,-1.5801,-1.5741,-1.5559,0.0,0.0,0.0,0.0,0.0,-1.3244,-1.332,-1.3456,-1.3295,-1.2833,-1.2164,-1.1182,0.0,0.0,0.0,0.0,0.0,0.0,0.0,0.0,0.0,0.0,0.0,0.0,-0.8823,-0.8792,-0.8695,-0.8651,-0.8656,-0.859,-0.859,-0.859,-0.859,-0.859,-0.859,-0.859,-0.859,-0.859,-0.859,-0.859,-0.859,-0.859,-0.859,-0.859,-0.859,-0.859,-0.859,-0.859,-0.859,-0.859,-0.859,-0.859,-0.859,-0.859,-0.859,-0.859,-0.859,-0.859,-0.859,-0.859,-0.859,-0.859,-0.859,0.0,0.0,0.0,0.0,0.0,0.0,0.0,0.0,0.0,0.0,0.0,0.0,0.0,0.0,0.0,0.0,0.0,0.0,0.0,0.0,0.0,-1.7916,-1.7916,-1.7916,-1.7916,-1.8557,-1.8985,-1.9239,-1.9907,-2.0153,-2.0174,-2.0153,-1.9653,-1.8611,-1.7937,-1.75,-1.7173,-1.6643,-1.6377,-1.6271,-1.6057,0.0,0.0,0.0,0.0,0.0,0.0,0.0,0.0,-1.5487,-1.5415,-1.5258,-1.5439,0.0,0.0,0.0,0.0,0.0,-1.3195,-1.2449,-1.1839,-1.2023,-1.1657,-1.1088,-1.0473,0.0,0.0,0.0,0.0,0.0,0.0,-0.8657,-0.8678,0.0,0.0,-0.8897,0.0,0.0,-0.9288,-0.9033,-0.905,-0.8917,-0.8651,-0.859,-0.859,-0.859,-0.859,-0.859,-0.859,-0.859,-0.859,-0.859,-0.859,-0.859,-0.859,-0.859,-0.859,-0.859,-0.859,-0.859,-0.859,-0.859,-0.859,-0.859,-0.859,-0.859,-0.859,-0.859,-0.859,-0.859,-0.859,-0.859,-0.859,-0.859,-0.859,-0.859,0.0,0.0,0.0,0.0,0.0,0.0,0.0,0.0,0.0,0.0,0.0,0.0,0.0,0.0,0.0,0.0,0.0,0.0,0.0,0.0,-1.7903,-1.7982,-1.8288,-1.845,-1.829,-1.8865,-1.9225,-1.943,-2.0107,-2.0468,-2.0468,-2.0307,-1.9613,-1.849,-1.8,-1.7469,-1.6895,-1.6483,-1.6217,-1.6057,0.0,0.0,0.0,0.0,0.0,0.0,0.0,0.0,0.0,0.0,-1.5209,-1.5101,-1.5077,0.0,0.0,0.0,0.0,0.0,-1.305,-1.2173,-1.128,-1.0966,-1.0577,-1.016,-0.9638,-0.9161,0.0,0.0,0.0,0.0,0.0,0.0,-0.906,-0.9241,0.0,-0.9645,-0.9652,-0.9741,-0.9698,-0.9437,-0.925,-0.905,-0.8917,-0.8717,-0.859,-0.859,-0.859,-0.859,-0.859,-0.859,-0.859,-0.859,-0.859,-0.859,-0.859,-0.859,-0.859,-0.859,-0.859,-0.859,-0.859,-0.859,-0.859,-0.859,-0.859,-0.859,-0.859,-0.859,-0.859,-0.859,-0.859,-0.859,-0.859,-0.859,-0.859,-0.859,0.0,0.0,0.0,0.0,0.0,0.0,0.0,0.0,0.0,0.0,0.0,0.0,0.0,0.0,0.0,0.0,0.0,0.0,0.0,-1.7876,-1.8022,-1.8089,-1.8651,-1.8851,-1.8704,-1.9199,-1.9573,-1.9773,-2.0388,-2.0641,-2.0561,-2.0267,-1.9487,-1.838,-1.801,-1.7316,-1.6524,-1.6217,-1.5951,-1.5672,0.0,0.0,0.0,0.0,0.0,0.0,0.0,0.0,0.0,0.0,0.0,0.0,0.0,0.0,0.0,-1.4268,-1.3823,-1.3292,-1.2759,-1.1864,-1.0871,-1.0196,-0.9774,-0.9437,-0.8969,-0.8864,-0.8804,0.0,0.0,0.0,0.0,-0.9164,0.0,-0.9863,-1.0154,-1.0314,-1.0202,-1.0156,-1.0064,-0.9848,-0.9522,-0.9316,-0.9117,-0.8851,-0.8651,-0.859,-0.859,-0.859,-0.859,-0.859,-0.859,-0.859,-0.859,-0.859,-0.859,-0.859,-0.859,-0.859,-0.859,-0.859,-0.859,-0.859,-0.859,-0.859,-0.859,-0.859,-0.859,-0.859,-0.859,-0.859,-0.859,-0.859,-0.859,-0.859,-0.859,-0.859,0.0,0.0,0.0,0.0,0.0,0.0,0.0,0.0,0.0,0.0,0.0,0.0,0.0,0.0,0.0,0.0,0.0,0.0,0.0,-1.7876,-1.8115,-1.845,-1.8758,-1.9038,-1.935,-1.9613,-2.0174,-2.0989,-2.0775,-2.0535,-2.0254,-1.996,-1.9229,-1.8076,-1.7528,-1.6746,-1.5939,-1.5684,-1.5374,-1.5041,-1.5041,0.0,0.0,0.0,0.0,0.0,0.0,0.0,0.0,0.0,0.0,0.0,0.0,0.0,-1.428,-1.4027,-1.3534,-1.2953,-1.2273,-1.12,-1.0196,-0.9808,-0.9489,-0.9126,-0.8804,-0.8696,0.0,-0.8696,0.0,0.0,0.0,-0.9483,-0.9876,-1.0195,-1.0378,-1.0527,-1.0617,-1.0638,-1.0512,-1.0193,-1.0127,-0.9854,-0.9183,-0.905,-0.8917,-0.8656,-0.859,-0.859,-0.859,-0.859,-0.859,-0.859,-0.859,-0.859,-0.859,-0.859,-0.859,-0.859,-0.859,-0.859,-0.859,-0.859,-0.859,-0.859,-0.859,-0.859,-0.859,-0.859,-0.859,-0.859,-0.859,-0.859,-0.859,-0.859,-0.859,-0.859,0.0,0.0,0.0,0.0,0.0,0.0,0.0,0.0,0.0,0.0,0.0,0.0,0.0,0.0,0.0,0.0,0.0,0.0,-1.7054,-1.7326,-1.7624,-1.7922,-1.842,-1.8937,-1.9608,-1.9893,-2.0321,-2.0842,-2.0909,-2.0695,-2.0167,-1.9939,-1.9213,-1.8089,-1.724,-1.6448,-1.5618,-1.5148,-1.4654,-1.4169,-1.4169,-1.4083,0.0,0.0,0.0,0.0,0.0,0.0,0.0,0.0,-1.4389,-1.4316,-1.4425,-1.4389,-1.4256,-1.3979,-1.3534,-1.2905,-1.198,-1.0992,-1.0077,-0.9592,-0.9186,0.0,0.0,-0.8988,-0.9015,-0.911,-0.9218,0.0,0.0,0.0,-1.0148,-1.0263,-1.048,-1.0656,-1.0711,-1.0717,-1.0651,-1.0518,-1.0326,-0.9994,-0.9522,-0.925,-0.8984,-0.8651,-0.859,-0.859,-0.859,-0.859,-0.859,-0.859,-0.859,-0.859,-0.859,-0.859,-0.859,-0.859,-0.859,-0.859,-0.859,-0.859,-0.859,-0.859,-0.859,-0.859,-0.859,-0.859,-0.859,-0.859,-0.859,-0.859,-0.859,-0.859,-0.859,-0.859,0.0,0.0,0.0,0.0,0.0,0.0,0.0,0.0,0.0,0.0,0.0,0.0,0.0,0.0,0.0,0.0,0.0,0.0,-1.6471,-1.6842,-1.7081,-1.7172,-1.7772,-1.8455,-1.9228,-1.9541,-2.0098,-2.0949,-2.1056,-2.0753,-2.0045,-1.9693,-1.8842,-1.7631,-1.682,-1.5857,-1.4911,-1.432,-1.3727,-1.3132,-1.3078,-1.2856,0.0,0.0,0.0,0.0,0.0,0.0,0.0,0.0,-1.416,-1.4208,-1.4244,-1.4292,-1.4256,-1.3883,-1.34,-1.2759,-1.1639,-1.0744,-0.9925,-0.9339,0.0,0.0,-0.9214,-0.9316,-0.934,-0.949,-0.9598,-0.97,-0.9802,0.0,0.0,0.0,-1.0555,-1.0717,-1.0717,-1.0717,-1.0717,-1.0717,-1.0525,-1.0259,-0.9861,-0.9522,-0.9123,-0.8784,-0.8656,-0.859,-0.859,-0.859,-0.859,-0.859,-0.859,-0.859,-0.859,-0.859,-0.859,-0.859,-0.859,-0.859,-0.859,-0.859,-0.859,-0.859,-0.859,-0.859,-0.859,-0.859,-0.859,-0.859,-0.859,-0.859,-0.859,-0.859,-0.859,-0.859,0.0,0.0,0.0,0.0,0.0,0.0,0.0,0.0,-1.2491,-1.2827,-1.2881,0.0,0.0,0.0,0.0,0.0,0.0,0.0,-1.5885,-1.641,-1.6624,-1.6284,-1.687,-1.7446,-1.7981,-1.8311,-1.9538,-2.1601,-2.1243,-2.0615,-1.9802,-1.9155,-1.811,-1.6658,-1.6141,-1.5051,-1.3673,-1.3132,-1.2536,-1.1946,-1.1682,-1.1335,-1.1045,0.0,0.0,0.0,0.0,0.0,0.0,0.0,-1.3883,-1.3931,-1.4208,-1.4292,-1.4208,-1.363,-1.3158,-1.2516,-1.1149,-1.0295,-0.967,0.0,0.0,0.0,-0.9313,-0.9503,-0.9652,-0.9795,-1.0066,-1.0283,-1.0283,-1.0399,-1.0493,-1.0493,-1.0622,-1.0717,-1.0717,-1.0717,-1.0717,-1.0717,-1.0717,-1.0591,-1.0259,-0.9927,-0.9528,-0.9117,-0.8784,-0.859,-0.859,-0.859,-0.859,-0.859,-0.859,-0.859,-0.8584,-0.8584,-0.8584,-0.8584,-0.8584,-0.8584,-0.859,-0.859,-0.859,-0.859,-0.859,-0.859,-0.859,-0.859,-0.859,-0.859,-0.859,-0.859,-0.859,-0.859,-0.859,-0.859,0.0,0.0,0.0,0.0,0.0,0.0,0.0,0.0,-1.1236,-1.1345,-1.1509,0.0,0.0,0.0,0.0,0.0,0.0,0.0,-1.4708,-1.4883,-1.4886,-1.4779,-1.5132,-1.5829,-1.6738,-1.7841,-1.8972,-1.9996,-1.9856,-1.9624,-1.9142,-1.8486,-1.7642,-1.6537,-1.5152,-1.3963,-1.2966,-1.2,-1.1291,-1.0806,-1.0696,-1.0423,-1.0108,0.0,0.0,0.0,0.0,0.0,0.0,0.0,0.0,0.0,-1.363,-1.3727,-1.363,-1.3147,-1.2613,-1.1932,-1.0609,-0.9904,0.0,-0.8758,0.0,0.0,0.0,-0.9578,0.0,0.0,-1.0215,-1.0283,-1.0283,-1.0399,-1.0493,-1.0493,-1.0622,-1.0717,-1.0717,-1.0717,-1.0717,-1.0717,-1.0717,-1.0591,-1.0259,-0.9927,-0.9528,-0.9117,-0.8784,-0.859,-0.859,-0.859,-0.859,-0.859,-0.859,-0.8552,-0.847,-0.847,-0.8426,-0.8339,-0.8339,-0.8426,-0.859,-0.859,-0.859,-0.859,-0.859,-0.859,-0.859,-0.859,-0.859,-0.859,-0.859,-0.859,-0.859,-0.859,-0.859,-0.859,0.0,0.0,0.0,0.0,0.0,0.0,0.0,0.0,-1.0366,-1.0366,-1.0468,-1.0743,0.0,0.0,0.0,0.0,0.0,0.0,-1.3521,-1.3457,-1.341,-1.3267,-1.3542,-1.4166,-1.5185,-1.6175,-1.6924,-1.7399,-1.8212,-1.8476,-1.8195,-1.7552,-1.6739,-1.5803,-1.4292,-1.3097,-1.2107,-1.1037,-1.0366,-0.9926,-0.9816,-0.9507,-0.9272,0.0,0.0,0.0,0.0,0.0,0.0,0.0,0.0,0.0,-1.2807,-1.2905,-1.2807,-1.2419,-1.2029,-1.1413,-1.0252,-0.9758,0.0,-0.8821,-0.8893,-0.9225,-0.9646,0.0,0.0,0.0,-1.0453,-1.0453,-1.0453,-1.0527,-1.0582,-1.0582,-1.0663,-1.0717,-1.0717,-1.0717,-1.0717,-1.0717,-1.0717,-1.0591,-1.0392,-1.0127,-0.9728,-0.9389,-0.8989,-0.8717,-0.859,-0.8546,-0.8519,-0.8519,-0.8475,-0.8416,-0.8345,-0.8345,-0.8307,-0.8172,-0.8172,-0.8312,-0.8448,-0.8497,-0.8519,-0.8524,-0.8568,-0.859,-0.859,-0.859,-0.859,-0.859,-0.859,-0.859,-0.859,-0.859,-0.859,-0.859,0.0,0.0,-1.0962,-1.0696,0.0,0.0,0.0,0.0,-0.9706,-0.9706,-0.9706,-0.9871,0.0,0.0,0.0,0.0,0.0,0.0,0.0,-1.2264,-1.2155,-1.1837,-1.2119,-1.264,-1.3497,-1.3794,-1.4019,-1.4282,-1.6298,-1.7172,-1.6868,-1.631,-1.5514,-1.4597,-1.3432,-1.2314,-1.1237,-1.0145,-0.9574,-0.9299,-0.901,-0.8723,-0.8518,-0.8734,0.0,0.0,0.0,0.0,0.0,0.0,0.0,0.0,-1.1785,-1.1834,-1.1785,-1.1541,-1.1247,-1.0842,-0.9987,0.0,0.0,-0.903,-0.9171,0.0,-1.0148,-1.0283,-1.0365,-1.0656,0.0,-1.0717,-1.0717,-1.0717,-1.0717,-1.0717,-1.0717,-1.0717,-1.0717,-1.0717,-1.0717,-1.0717,-1.0717,-1.0717,-1.0717,-1.0392,-1.006,-0.9728,-0.931,-0.8967,-0.8573,-0.8465,-0.8399,-0.8399,-0.8291,-0.8167,-0.822,-0.822,-0.8214,-0.8204,-0.8204,-0.8204,-0.8209,-0.8339,-0.8399,-0.8405,-0.8508,-0.8557,-0.8557,-0.8557,-0.8557,-0.8557,-0.8568,-0.8573,-0.8573,-0.8584,-0.859,-0.859,0.0,0.0,-1.0366,-1.0036,0.0,0.0,0.0,0.0,0.0,-0.9106,0.0,0.0,0.0,0.0,0.0,0.0,0.0,0.0,0.0,-1.1072,-1.0962,-1.0696,-1.1095,-1.1522,-1.1957,-1.2427,-1.2625,-1.2468,-1.4256,-1.5259,-1.5442,-1.494,-1.4364,-1.3654,-1.2281,-1.1257,-1.0448,-0.9416,-0.8919,-0.8858,-0.8681,-0.8472,-0.8368,-0.8419,-0.8454,0.0,0.0,0.0,0.0,0.0,0.0,0.0,-1.0659,-1.0757,-1.0708,-1.0413,-1.0158,-0.9846,-0.938,-0.9235,0.0,0.0,-0.9252,-0.9686,-1.0168,-1.0283,-1.0365,-1.0656,-1.0717,-1.0717,-1.0717,-1.0717,-1.0717,-1.0717,-1.0717,-1.0717,-1.0717,-1.0717,-1.0717,-1.0717,-1.0717,-1.0717,-1.0717,-1.0392,-1.006,-0.9728,-0.9228,-0.8782,-0.8454,-0.8339,-0.8274,-0.8274,-0.8183,-0.8187,-0.8095,-0.8095,-0.8046,-0.7948,-0.7948,-0.7948,-0.7959,-0.8176,-0.8274,-0.8274,-0.8301,-0.8312,-0.8312,-0.8312,-0.8312,-0.8323,-0.8416,-0.8454,-0.8465,-0.8557,-0.859,-0.859,0.0,0.0,0.0,0.0,0.0,0.0,0.0,0.0,0.0,0.0,0.0,0.0,0.0,0.0,0.0,0.0,-1.0147,0.0,0.0,-1.0147,-1.0036,-0.9871,-1.0113,-1.0381,-1.0659,-1.0971,-1.1083,-1.1104,-1.2033,-1.2861,-1.3529,-1.307,-1.2715,-1.2342,-1.1233,-1.0429,-0.9822,-0.9057,-0.8669,-0.8594,-0.8407,-0.8202,-0.8015,-0.7958,-0.7918,-0.7869,-0.8111,0.0,0.0,0.0,0.0,0.0,0.0,0.0,-0.9616,-0.9468,-0.932,-0.9176,0.0,0.0,0.0,-0.9118,0.0,-0.9903,-1.0209,-1.0331,-1.0446,-1.067,-1.0717,-1.0717,-1.0717,-1.0717,-1.0717,-1.0717,-1.0717,-1.0717,-1.0717,-1.0717,-1.0717,-1.0717,-1.0717,-1.0717,-1.0717,-1.0518,-1.0293,-0.9899,-0.9431,-0.8974,-0.8593,-0.8278,-0.8149,-0.8149,-0.8089,-0.803,-0.8026,-0.8026,-0.7993,-0.7872,-0.7872,-0.7872,-0.7877,-0.8062,-0.8182,-0.8172,-0.8172,-0.8172,-0.8172,-0.8172,-0.8172,-0.8178,-0.8307,-0.8367,-0.8426,-0.8486,-0.8541,-0.859,0.0,0.0,0.0,0.0,0.0,0.0,0.0,0.0,0.0,0.0,0.0,0.0,0.0,0.0,-0.8995,0.0,0.0,0.0,0.0,0.0,0.0,-0.9327,-0.9327,-0.943,-0.9651,-0.9651,-0.9761,-1.0036,-1.0036,-1.0493,-1.1355,-1.1268,-1.1199,-1.1052,-1.0311,-0.972,-0.9306,-0.8831,-0.8547,-0.8352,-0.8073,-0.7801,-0.7575,-0.7526,-0.7324,-0.7167,-0.7456,-0.7726,-0.8028,-0.8104,0.0,0.0,0.0,0.0,-0.8676,-0.8676,-0.8676,-0.8692,0.0,0.0,-0.9007,-0.9344,-0.972,0.0,-1.0209,-1.0351,-1.05,-1.0649,-1.0704,-1.0717,-1.0717,-1.0717,-1.0717,-1.0717,-1.0717,-1.0717,-1.0717,-1.0717,-1.0717,-1.0717,-1.0717,-1.0717,-1.0717,-1.0697,-1.0498,-1.0045,-0.967,-0.9209,-0.8713,-0.8272,-0.8086,-0.8086,-0.7988,-0.7872,-0.7872,-0.7872,-0.7872,-0.7872,-0.7872,-0.7872,-0.7872,-0.8037,-0.8079,-0.8171,-0.8171,-0.8171,-0.8171,-0.8171,-0.8171,-0.8176,-0.8198,-0.828,-0.8388,-0.841,-0.8492,-0.859,0.0,0.0,0.0,0.0,0.0,0.0,0.0,0.0,0.0,0.0,-0.8885,-0.8885,0.0,0.0,0.0,-0.894,-0.8995,-0.8995,-0.8995,0.0,0.0,-0.8995,-0.8995,-0.8995,-0.8995,-0.9051,-0.9051,-0.9106,-0.9106,-0.9168,-0.93,-1.0212,-1.0457,-1.0134,-0.9698,-0.9286,-0.8968,-0.8506,-0.8139,-0.7792,-0.7618,-0.7372,-0.6994,-0.6994,-0.6969,-0.6985,-0.7167,-0.7274,-0.7401,-0.7719,-0.7876,0.0,0.0,0.0,-0.8088,-0.8088,-0.8088,-0.8129,0.0,0.0,0.0,0.0,-0.972,-0.989,0.0,0.0,-1.0351,0.0,-1.0629,-1.0717,-1.0717,-1.0717,-1.0717,-1.0717,-1.0717,-1.0717,-1.0717,-1.0717,-1.0717,-1.0717,-1.0717,-1.0717,-1.0717,-1.0602,-1.0384,-1.0039,-0.9488,-0.8967,-0.8574,-0.8144,-0.7955,-0.7955,-0.7877,-0.7872,-0.7872,-0.7872,-0.7872,-0.7872,-0.7872,-0.7872,-0.7872,-0.7949,-0.7905,-0.7921,-0.7921,-0.7921,-0.7921,-0.7921,-0.7921,-0.7932,-0.8097,-0.8155,-0.8274,-0.8378,-0.8492,-0.859,0.0,0.0,0.0,0.0,0.0,0.0,0.0,0.0,0.0,0.0,0.0,-0.8885,0.0,0.0,0.0,-0.8811,-0.873,-0.8682,-0.8682,-0.8764,-0.8811,-0.8811,-0.8838,-0.8844,-0.8811,-0.8811,-0.8771,-0.8682,-0.8771,-0.8811,-0.8811,-0.9348,-0.9531,-0.9356,-0.9092,-0.8872,-0.8662,-0.8296,-0.7909,-0.7566,-0.7225,-0.6897,-0.6548,-0.6548,-0.6501,-0.6481,-0.6839,-0.7027,-0.7158,-0.7449,-0.7624,-0.7706,-0.7773,0.0,0.0,0.0,-0.7794,0.0,-0.8187,0.0,0.0,0.0,0.0,-0.9761,-0.9936,0.0,-1.0215,-1.0446,-1.0548,-1.0616,-1.0704,-1.0717,-1.0717,-1.0717,-1.0717,-1.0717,-1.0717,-1.0717,-1.0717,-1.0717,-1.0717,-1.0683,-1.0602,-1.0527,-1.0361,-1.0002,-0.9431,-0.9019,-0.8761,-0.8206,-0.7872,-0.7872,-0.7872,-0.7872,-0.7872,-0.7872,-0.7872,-0.7872,-0.7872,-0.7872,-0.7872,-0.7872,-0.7872,-0.7872,-0.7872,-0.7872,-0.7872,-0.7872,-0.7872,-0.7877,-0.7993,-0.8068,-0.8178,-0.8296,-0.8432,-0.859,0.0,0.0,0.0,0.0,0.0,0.0,0.0,0.0,0.0,0.0,0.0,0.0,0.0,0.0,0.0,0.0,-0.8547,-0.8479,-0.8479,-0.8587,-0.8669,-0.871,-0.8818,-0.8825,-0.871,-0.871,-0.8635,-0.8479,-0.8594,-0.8669,-0.871,-0.8825,-0.8844,-0.8871,-0.8737,-0.8587,-0.8459,-0.8076,-0.7651,-0.7321,-0.6881,-0.6526,-0.6184,-0.6219,-0.615,-0.6087,-0.6534,-0.6757,-0.6911,-0.7177,-0.7402,-0.755,-0.759,-0.7597,0.0,0.0,0.0,0.0,0.0,0.0,0.0,0.0,0.0,0.0,0.0,0.0,-1.0051,0.0,-1.0412,-1.0473,-1.0588,-1.067,-1.0717,-1.0717,-1.0717,-1.0704,-1.067,-1.0663,-1.0649,-1.0616,-1.0609,-1.0561,-1.0453,-1.0399,-1.029,-1.0004,-0.9398,-0.9026,-0.8922,-0.8238,-0.7872,-0.7872,-0.7872,-0.7872,-0.7872,-0.7872,-0.7872,-0.7872,-0.7872,-0.7872,-0.7872,-0.7872,-0.7872,-0.7872,-0.7872,-0.7872,-0.7872,-0.7872,-0.7872,-0.7872,-0.7872,-0.8019,-0.8172,-0.8172,-0.8383,-0.859,0.0,0.0,0.0,0.0,0.0,0.0,0.0,0.0,0.0,0.0,0.0,0.0,-0.8737,-0.8716,-0.8655,-0.8506,-0.8486,-0.8479,-0.8479,-0.8486,-0.856,-0.8703,-0.8716,0.0,-0.871,-0.871,-0.8635,-0.8479,-0.8492,-0.8567,-0.871,-0.8716,-0.8798,-0.8871,-0.8628,-0.8486,-0.8452,-0.7819,-0.7315,-0.6897,-0.6602,-0.6287,-0.5915,-0.6081,-0.6048,-0.5939,-0.6219,-0.637,-0.6503,-0.6872,-0.7197,-0.7453,-0.7556,-0.7597,-0.7597,0.0,0.0,0.0,0.0,0.0,0.0,0.0,0.0,0.0,0.0,0.0,-0.999,-1.0004,-1.0188,-1.0297,-1.0304,-1.0534,-1.0717,-1.0717,-1.0717,-1.067,-1.0521,-1.0507,-1.0453,-1.0317,-1.0304,-1.0297,-1.029,-1.0161,-1.0004,-0.999,-0.9303,-0.8922,-0.8915,-0.8238,-0.7872,-0.7872,-0.7872,-0.7872,-0.7872,-0.7872,-0.7872,-0.7872,-0.7872,-0.7872,-0.7872,-0.7872,-0.7872,-0.7872,-0.7872,-0.7872,-0.7872,-0.7872,-0.7872,-0.7872,-0.7872,-0.8019,-0.8172,-0.8172,-0.8383,-0.859,0.0,0.0,0.0,0.0,0.0,0.0,0.0,0.0,0.0,0.0,0.0,0.0,0.0,-0.8621,-0.8506,-0.8357,-0.8255,-0.8201,-0.8201,-0.8289,-0.837,-0.8425,-0.8513,-0.852,-0.8431,-0.8431,-0.835,-0.8201,-0.8296,-0.8377,-0.8431,-0.852,-0.8594,-0.8642,-0.8533,-0.8433,-0.8197,-0.7657,-0.716,-0.6768,-0.6537,-0.6291,-0.6024,-0.6067,-0.6062,-0.6065,-0.6298,-0.6502,-0.6691,-0.6929,-0.7191,-0.7366,-0.7319,-0.726,0.0,0.0,0.0,0.0,0.0,0.0,0.0,0.0,0.0,-0.9252,-0.9544,-0.9693,-0.9822,-0.995,-1.0031,-1.0161,-1.0263,-1.0365,-1.0439,-1.0439,-1.0439,-1.0419,-1.0365,-1.0358,-1.0337,-1.0283,-1.0283,-1.0243,-1.0141,-1.0017,-0.995,-0.9849,-0.9429,-0.9098,-0.8915,-0.8488,-0.8122,-0.7933,-0.7872,-0.7872,-0.7872,-0.7872,-0.7872,-0.7872,-0.7872,-0.7872,-0.7872,-0.7872,-0.7872,-0.7872,-0.7872,-0.7872,-0.7872,-0.7872,-0.7872,-0.7877,-0.8021,-0.8089,-0.8183,-0.8323,-0.8454,-0.859,0.0,0.0,0.0,0.0,0.0,-0.8831,-0.873,-0.8798,-0.8825,-0.8723,0.0,0.0,0.0,0.0,-0.8404,-0.8208,-0.8099,-0.7988,-0.7988,-0.8133,-0.8214,-0.832,-0.8364,-0.837,-0.8327,-0.832,-0.8167,-0.7914,-0.8065,-0.814,-0.8194,-0.8289,-0.8364,-0.8411,-0.8305,-0.8157,-0.8021,-0.7489,-0.7088,-0.6694,-0.6463,-0.6286,-0.6154,-0.6192,-0.6181,-0.6196,-0.6334,-0.6496,-0.6685,-0.6879,-0.7093,-0.7262,-0.7206,-0.7139,0.0,0.0,0.0,0.0,-0.7495,0.0,0.0,0.0,0.0,-0.8959,-0.9313,0.0,-0.9605,-0.9849,-0.9842,-0.9951,-1.01,-1.0127,-1.0161,-1.0263,-1.0283,-1.0263,-1.0209,-1.0202,-1.0181,-1.0134,-1.0127,-1.0086,-0.9923,-0.9909,-0.9869,-0.9829,-0.9518,-0.9153,-0.8915,-0.861,-0.8244,-0.7933,-0.7872,-0.7872,-0.7872,-0.7872,-0.7872,-0.7872,-0.7872,-0.7872,-0.7872,-0.7872,-0.7872,-0.7872,-0.7872,-0.7872,-0.7872,-0.7872,-0.7872,-0.7883,-0.807,-0.8127,-0.8188,-0.8372,-0.8492,-0.859,0.0,0.0,-0.8885,-0.8885,-0.8885,-0.8831,-0.873,-0.871,-0.871,-0.8703,0.0,0.0,0.0,0.0,0.0,-0.8022,-0.7988,-0.7988,-0.7988,-0.7988,-0.8106,-0.8306,-0.8313,-0.8313,-0.8313,-0.8313,-0.8113,-0.7814,-0.7814,-0.7882,-0.7975,-0.7975,-0.8106,-0.8241,-0.7848,-0.7761,-0.7814,-0.7291,-0.6937,-0.6651,-0.6414,-0.6322,-0.6333,-0.6393,-0.6372,-0.6322,-0.6322,-0.6336,-0.6467,-0.6703,-0.6904,-0.7067,-0.7328,0.0,0.0,0.0,0.0,0.0,0.0,0.0,0.0,0.0,0.0,0.0,-0.8871,-0.9157,-0.9408,-0.9564,-0.9605,-0.9652,-0.9788,-0.9815,-0.9917,-1.0215,-1.027,-1.0215,-1.0004,-0.9977,-0.9923,-0.9836,-0.9822,-0.9822,-0.9822,-0.9822,-0.9822,-0.9822,-0.9518,-0.9214,-0.8915,-0.8549,-0.8244,-0.7933,-0.7872,-0.7872,-0.7872,-0.7872,-0.7872,-0.7872,-0.7872,-0.7872,-0.7872,-0.7872,-0.7872,-0.7872,-0.7872,-0.7872,-0.7872,-0.7872,-0.7872,-0.7883,-0.807,-0.8133,-0.8188,-0.8378,-0.8492,-0.859,0.0,-0.8885,-0.8885,-0.8885,-0.8885,-0.8852,-0.8587,-0.8635,-0.8669,0.0,0.0,0.0,-0.8655,-0.8459,-0.8296,-0.8214,-0.8106,-0.7988,-0.7988,-0.7988,-0.8008,-0.8099,-0.8106,-0.8106,-0.8106,-0.8106,-0.8004,-0.7814,-0.7814,-0.778,-0.7719,-0.7719,-0.7746,-0.778,-0.75,-0.726,-0.7106,-0.6882,-0.6651,-0.642,-0.6405,-0.6388,-0.6393,-0.6376,-0.6365,-0.6388,-0.6388,-0.652,-0.6721,-0.6876,-0.711,-0.7326,-0.7395,0.0,0.0,0.0,0.0,0.0,-0.7204,0.0,0.0,0.0,0.0,0.0,-0.8723,-0.8927,-0.9103,-0.9252,-0.9456,-0.9618,-0.9659,-0.9754,-0.9849,-0.9937,-0.9951,-0.993,-0.989,-0.9883,-0.9869,-0.9829,-0.9822,-0.9822,-0.9822,-0.9822,-0.9822,-0.9822,-0.97,-0.9457,-0.8915,-0.836,-0.7994,-0.7933,-0.7872,-0.7872,-0.7872,-0.7872,-0.7872,-0.7872,-0.7872,-0.7872,-0.7872,-0.7872,-0.7872,-0.7872,-0.7872,-0.7872,-0.7872,-0.7872,-0.7872,-0.7894,-0.81,-0.8204,-0.8194,-0.8465,-0.8562,-0.859,-0.8825,-0.8838,-0.8885,-0.8885,-0.8885,-0.8804,-0.8615,-0.8655,-0.8676,0.0,0.0,0.0,-0.871,-0.8499,-0.8336,-0.8327,-0.8187,-0.8079,-0.7907,-0.7894,-0.7894,-0.7894,-0.7894,-0.7928,-0.7988,-0.7928,-0.7868,-0.7726,-0.7658,-0.7584,-0.7502,-0.7502,-0.7456,-0.7323,-0.7084,-0.6814,-0.6495,-0.6391,-0.6286,-0.6203,-0.6317,-0.6366,-0.6372,-0.6371,-0.6387,-0.6387,-0.6387,-0.6487,-0.6681,-0.686,-0.7137,-0.7382,-0.7422,0.0,0.0,0.0,0.0,0.0,0.0,0.0,0.0,-0.7787,0.0,0.0,-0.8486,-0.8642,-0.8804,-0.9022,-0.9205,-0.9367,-0.949,-0.9632,-0.9734,-0.9734,-0.9781,-0.9822,-0.9822,-0.9822,-0.9822,-0.9822,-0.9822,-0.9822,-0.9822,-0.9822,-0.9822,-0.9822,-0.9822,-0.9518,-0.8915,-0.8238,-0.7872,-0.7872,-0.7872,-0.7872,-0.7872,-0.7872,-0.7872,-0.7872,-0.7872,-0.7872,-0.7872,-0.7872,-0.7872,-0.7872,-0.7872,-0.7872,-0.7872,-0.7872,-0.796,-0.8026,-0.816,-0.8263,-0.8334,-0.8519,-0.859,-0.859,0.0,-0.8818,-0.8865,-0.8878,-0.8885,-0.8831,-0.8683,-0.8656,-0.8656,0.0,-0.8615,-0.8629,-0.8629,-0.8481,-0.8327,-0.8258,-0.8211,-0.8069,-0.7731,-0.7766,-0.7759,-0.7739,-0.7752,-0.7875,-0.7961,-0.7882,-0.774,-0.7597,-0.7448,-0.7405,-0.7346,-0.7346,-0.721,-0.6989,-0.6755,-0.646,-0.6091,-0.5929,-0.5947,-0.6062,-0.6257,-0.6322,-0.6295,-0.6399,-0.6387,-0.6387,-0.6387,-0.6387,-0.6437,-0.6692,-0.7057,-0.734,-0.7409,-0.7407,-0.7394,0.0,-0.7439,0.0,0.0,0.0,0.0,-0.7814,-0.8031,0.0,-0.8248,-0.8357,-0.8533,-0.8811,-0.8838,-0.9001,-0.9279,-0.9456,-0.9564,-0.9585,-0.9707,-0.9802,-0.9822,-0.9822,-0.9822,-0.9822,-0.9822,-0.9822,-0.9822,-0.9822,-0.9822,-0.9822,-0.9761,-0.9457,-0.8915,-0.8238,-0.7872,-0.7872,-0.7872,-0.7872,-0.7872,-0.7872,-0.7872,-0.7872,-0.7872,-0.7872,-0.7872,-0.7872,-0.7872,-0.7872,-0.7872,-0.7872,-0.7872,-0.7872,-0.8004,-0.813,-0.8187,-0.8312,-0.8432,-0.8546,-0.859,-0.859,-0.8662,-0.8737,-0.8791,-0.8865,-0.8885,-0.8776,-0.8412,-0.8393,-0.8278,-0.8002,-0.8047,-0.8115,-0.8115,-0.7898,-0.7744,-0.7719,-0.7559,-0.736,-0.724,-0.7379,-0.7424,-0.7307,-0.765,-0.7828,-0.7855,-0.7828,-0.774,-0.7597,-0.7448,-0.7305,-0.7139,-0.7139,-0.7057,-0.6834,-0.656,-0.6326,-0.6086,-0.5847,-0.5734,-0.5828,-0.6143,-0.6323,-0.6404,-0.6376,-0.6387,-0.6387,-0.6387,-0.6387,-0.6437,-0.6692,-0.6909,-0.713,-0.7315,-0.7313,-0.7269,-0.751,-0.7556,0.0,0.0,0.0,-0.7814,-0.7814,-0.795,0.0,-0.8085,-0.8201,-0.833,-0.8391,-0.8587,-0.8811,-0.8994,-0.9144,-0.9344,-0.9408,-0.9551,-0.9693,-0.9802,-0.9822,-0.9822,-0.9822,-0.9822,-0.9822,-0.9822,-0.9822,-0.9822,-0.9822,-0.9335,-0.9037,-0.8915,-0.8238,-0.7872,-0.7872,-0.7872,-0.7872,-0.7872,-0.7872,-0.7872,-0.7872,-0.7872,-0.7872,-0.7872,-0.7872,-0.7872,-0.7872,-0.7872,-0.7872,-0.7872,-0.7872,-0.8004,-0.813,-0.8187,-0.8312,-0.8432,-0.8546,-0.859,-0.859,-0.8465,-0.8441,-0.8434,-0.858,-0.8497,-0.8327,-0.8169,-0.8169,-0.8108,-0.7944,-0.795,-0.7962,-0.795,-0.7822,-0.7693,-0.7559,-0.7418,-0.7223,-0.6954,-0.7037,-0.707,-0.6972,-0.7229,-0.7435,-0.7508,-0.7584,-0.7556,-0.7489,-0.7333,-0.7217,-0.7098,-0.701,-0.6833,-0.6612,-0.6346,-0.6124,-0.5908,-0.578,-0.5723,-0.5839,-0.6078,-0.6208,-0.6274,-0.6344,-0.6387,-0.6387,-0.6387,-0.6387,-0.6437,-0.6692,-0.6851,-0.6935,-0.7113,-0.7141,-0.7133,-0.7419,-0.7515,-0.7535,-0.7752,-0.7868,-0.7874,-0.7874,-0.7934,0.0,0.0,-0.8099,-0.8174,-0.8255,-0.8391,-0.8533,-0.8682,-0.8832,-0.8981,-0.9137,-0.9286,-0.9435,-0.9585,-0.9727,-0.9822,-0.9822,-0.9822,-0.9822,-0.9822,-0.9822,-0.9822,-0.9822,-0.9335,-0.9037,-0.8915,-0.8427,-0.8055,-0.7933,-0.7872,-0.7872,-0.7872,-0.7872,-0.7872,-0.7872,-0.7872,-0.7872,-0.7872,-0.7872,-0.7872,-0.7872,-0.7872,-0.7872,-0.7872,-0.7872,-0.7981,-0.8149,-0.8209,-0.8345,-0.8508,-0.8568,-0.859,-0.859,-0.8153,-0.8053,-0.8019,-0.8167,-0.8025,-0.7852,-0.7877,-0.7895,-0.7852,-0.7875,-0.782,-0.7834,-0.7786,-0.775,-0.7642,-0.7401,-0.7358,-0.7133,-0.6715,-0.6715,-0.6689,-0.6642,-0.6825,-0.7014,-0.7123,-0.7198,-0.7282,-0.7282,-0.7083,-0.6966,-0.6966,-0.6789,-0.6567,-0.634,-0.6169,-0.5952,-0.5691,0.0,0.0,-0.5882,-0.6029,-0.61,-0.6143,-0.6355,-0.6387,-0.6387,-0.6387,-0.6387,-0.6437,-0.6642,-0.6742,-0.6775,-0.6923,-0.6936,-0.7034,-0.7277,-0.7368,-0.7443,-0.7806,-0.7939,-0.7939,-0.7988,-0.7988,-0.7988,0.0,0.0,0.0,-0.8201,-0.8228,-0.8269,0.0,0.0,-0.8676,-0.8825,-0.8974,-0.9166,-0.9232,-0.9483,-0.9673,-0.9727,-0.9734,-0.9747,-0.9774,-0.9781,-0.9781,-0.9781,-0.9479,-0.9115,-0.8878,-0.8538,-0.8244,-0.7933,-0.7872,-0.7872,-0.7872,-0.7872,-0.7872,-0.7872,-0.7872,-0.7872,-0.7872,-0.7872,-0.7872,-0.7872,-0.7872,-0.7872,-0.7872,-0.7872,-0.8013,-0.8172,-0.8172,-0.8378,-0.859,-0.859,-0.859,-0.859,-0.7528,-0.7564,-0.7613,-0.7756,-0.7728,-0.7665,-0.7468,-0.7491,-0.7417,-0.731,-0.7265,-0.7315,-0.7299,-0.7155,-0.7039,-0.6901,-0.6785,-0.6614,-0.636,-0.6429,-0.6403,-0.6328,-0.6597,-0.6734,-0.6752,-0.6786,-0.6773,-0.6773,-0.6591,-0.6473,-0.6473,-0.6473,-0.6346,-0.6124,-0.613,-0.5952,0.0,0.0,-0.5696,0.0,-0.5996,-0.6149,-0.6311,-0.6388,-0.6387,-0.6387,-0.6387,-0.6387,-0.6387,-0.6437,-0.6437,-0.6487,-0.6725,-0.6825,-0.6874,-0.7167,0.0,0.0,-0.759,-0.7646,-0.7696,-0.7939,-0.7988,-0.7988,-0.7988,0.0,-0.7995,-0.8015,0.0,-0.8113,-0.8269,0.0,0.0,-0.8513,-0.8662,-0.8764,-0.8784,-0.8933,-0.9137,-0.9401,-0.9429,-0.9483,-0.9618,-0.9632,-0.9632,-0.9632,-0.9327,-0.897,-0.8671,-0.8484,-0.8244,-0.7933,-0.7872,-0.7872,-0.7872,-0.7872,-0.7872,-0.7872,-0.7872,-0.7872,-0.7872,-0.7872,-0.7872,-0.7872,-0.7872,-0.7872,-0.7872,-0.7872,-0.8013,-0.8172,-0.8172,-0.8378,-0.859,-0.859,-0.859,-0.859,-0.7113,-0.7106,-0.7054,-0.7133,-0.7119,-0.7049,-0.7074,-0.7098,-0.7187,-0.7193,-0.721,-0.7182,-0.7117,-0.7013,0.0,0.0,0.0,-0.6627,0.0,-0.6366,-0.6347,-0.6205,-0.6363,-0.6459,-0.6459,-0.6512,-0.652,-0.652,-0.6459,-0.6384,-0.6384,-0.6302,-0.6169,-0.6086,-0.5952,0.0,-0.5833,0.0,-0.5871,0.0,-0.6121,-0.6273,-0.6328,-0.6393,-0.6387,-0.6387,-0.6387,-0.643,-0.6489,-0.6489,-0.6589,-0.6638,-0.6669,-0.6748,-0.6844,-0.7026,0.0,0.0,-0.7506,-0.7465,-0.7459,-0.7787,-0.7805,-0.7796,-0.7939,-0.7988,-0.7988,-0.7988,0.0,0.0,0.0,0.0,0.0,0.0,-0.8411,-0.8486,-0.8567,-0.8635,-0.8818,-0.9262,-0.9309,-0.9306,-0.9462,-0.9476,-0.9476,-0.9476,-0.9359,-0.9059,-0.8524,-0.848,-0.8311,-0.7774,-0.7839,-0.7872,-0.7872,-0.7872,-0.7872,-0.7872,-0.7872,-0.7872,-0.7872,-0.7872,-0.7872,-0.7872,-0.7872,-0.7872,-0.7877,-0.801,-0.8079,-0.8178,-0.8312,-0.8443,-0.859,-0.859,-0.859,-0.859,-0.645,0.0,-0.6532,-0.6623,-0.6542,-0.6573,-0.673,-0.6883,-0.7013,-0.715,-0.7188,-0.7177,-0.704,-0.7029,0.0,0.0,-0.6855,-0.6752,0.0,-0.6408,-0.6344,-0.6143,-0.6211,-0.6219,-0.6184,-0.6223,-0.6248,-0.6213,-0.6213,-0.6213,-0.6213,-0.6035,-0.5997,-0.5997,-0.5807,-0.5822,-0.5904,0.0,-0.6002,-0.6094,-0.6268,-0.6285,-0.6323,-0.6404,-0.6387,-0.6387,-0.6387,-0.6462,-0.6622,-0.6622,-0.6703,-0.6785,-0.6698,-0.673,-0.6837,0.0,0.0,0.0,-0.741,-0.7343,-0.7262,-0.7629,-0.7592,-0.754,-0.7739,-0.7806,-0.7905,-0.7935,-0.7965,0.0,0.0,0.0,-0.8029,-0.8187,0.0,-0.8241,-0.8343,-0.8323,-0.8465,-0.8968,-0.9098,-0.9157,-0.9306,-0.932,-0.932,-0.932,-0.932,-0.9025,-0.839,-0.8496,-0.8349,-0.7703,-0.7812,-0.7872,-0.7872,-0.7872,-0.7872,-0.7872,-0.7872,-0.7872,-0.7872,-0.7872,-0.7872,-0.7872,-0.7872,-0.7872,-0.7883,-0.8065,-0.8127,-0.8183,-0.8372,-0.8486,-0.859,-0.859,-0.859,-0.859,-0.5384,-0.5793,0.0,-0.6147,-0.6246,-0.6361,-0.6589,-0.6828,-0.6986,-0.6991,-0.7144,-0.721,0.0,0.0,0.0,0.0,0.0,-0.6877,-0.6632,0.0,-0.6382,-0.6317,-0.6191,-0.6024,-0.5904,-0.5899,-0.5844,-0.573,-0.573,-0.573,-0.573,-0.5735,-0.5735,-0.5735,-0.585,-0.5899,-0.5909,-0.6029,-0.6083,-0.6094,-0.6268,-0.6333,-0.6381,-0.6387,-0.6387,-0.6387,-0.6387,-0.6462,-0.6622,-0.6622,-0.6703,-0.6801,-0.6796,-0.6801,-0.6801,-0.6796,-0.6796,-0.6848,-0.7112,-0.7211,-0.7229,-0.737,-0.7288,-0.7235,-0.7235,-0.7383,-0.7615,-0.7839,-0.7938,-0.8035,-0.8235,-0.814,-0.7988,-0.7995,-0.7995,0.0,0.0,-0.7923,-0.7997,-0.8452,-0.8764,-0.9001,-0.92,-0.9214,-0.9214,-0.9214,-0.9214,-0.8937,-0.8256,-0.8448,-0.8349,-0.7703,-0.7812,-0.7872,-0.7872,-0.7872,-0.7872,-0.7872,-0.7872,-0.7872,-0.7872,-0.7872,-0.7872,-0.7872,-0.7872,-0.7872,-0.7883,-0.8065,-0.8127,-0.8183,-0.8372,-0.8486,-0.859,-0.859,-0.859,-0.859,-0.4884,-0.4935,-0.5096,0.0,-0.5751,-0.5852,-0.6021,-0.639,-0.6621,-0.6699,-0.7038,0.0,0.0,-0.735,-0.735,0.0,0.0,-0.7116,-0.6877,-0.6823,0.0,-0.6507,-0.6382,-0.6263,0.0,-0.5986,-0.5882,-0.5844,-0.5723,-0.5691,-0.5691,-0.5691,-0.5691,-0.5696,-0.585,-0.5947,0.0,0.0,0.0,0.0,0.0,-0.6404,-0.6387,-0.6387,-0.6387,-0.6398,-0.6478,-0.6638,-0.6752,-0.6834,-0.6937,-0.7024,-0.6948,-0.6975,-0.7018,-0.6948,-0.6921,-0.6991,-0.7176,-0.7082,-0.7018,-0.7328,-0.7229,-0.7122,-0.7274,-0.7389,-0.7535,-0.7833,-0.7936,-0.8092,-0.8404,-0.837,-0.8303,-0.8208,-0.8194,-0.8119,0.0,-0.7767,-0.7801,-0.8147,-0.8452,-0.8655,-0.8703,-0.8763,-0.8763,-0.8763,-0.8804,-0.8694,-0.8317,-0.8386,-0.8284,-0.7931,-0.7889,-0.7872,-0.7872,-0.7872,-0.7872,-0.7872,-0.7872,-0.7872,-0.7872,-0.7872,-0.7872,-0.7872,-0.7872,-0.7872,-0.7888,-0.8089,-0.8198,-0.8188,-0.8454,-0.8552,-0.859,-0.859,-0.859,-0.859,-0.4039,-0.392,-0.4093,-0.5115,-0.5251,-0.5295,-0.556,-0.5912,-0.624,0.0,-0.6882,0.0,-0.7277,0.0,-0.7486,0.0,-0.7304,-0.7252,-0.7056,-0.7008,0.0,-0.6692,-0.6605,-0.6491,0.0,0.0,-0.6051,-0.5969,-0.585,-0.575,-0.575,-0.5707,-0.5691,-0.5696,-0.5899,-0.6013,-0.6094,-0.6257,-0.6372,0.0,0.0,-0.6387,-0.6392,-0.6435,-0.6452,-0.6462,-0.6589,-0.6725,-0.6877,-0.6959,-0.7117,-0.7199,-0.7122,-0.715,-0.7193,-0.7122,-0.7078,-0.7127,-0.7198,-0.7138,-0.7117,-0.732,-0.7195,-0.7066,-0.7223,-0.7257,-0.737,-0.7825,-0.7928,-0.8131,-0.8501,-0.852,-0.8438,-0.8347,-0.832,-0.8147,0.0,-0.7658,-0.7672,-0.7862,-0.8147,-0.8364,-0.8472,-0.8479,-0.8479,-0.8479,-0.8621,-0.8602,-0.8339,-0.8301,-0.8229,-0.7979,-0.7888,-0.7828,-0.7872,-0.7872,-0.7872,-0.7872,-0.7872,-0.7872,-0.7872,-0.7872,-0.7872,-0.7872,-0.7872,-0.7955,-0.8015,-0.8155,-0.8194,-0.8318,-0.8513,-0.859,-0.859,-0.859,-0.859,-0.859,-0.2838,-0.2833,-0.3199,-0.4358,-0.4589,-0.4732,-0.5031,-0.5356,-0.5739,0.0,-0.6624,-0.6951,-0.7231,-0.7401,-0.7476,-0.7471,-0.7358,-0.7239,-0.7171,-0.7056,0.0,0.0,-0.6812,-0.6698,-0.6408,0.0,0.0,0.0,0.0,-0.5904,-0.5899,-0.5739,-0.5691,-0.5696,-0.598,0.0,-0.61,-0.6339,-0.6387,-0.6387,-0.6387,-0.6392,-0.6408,-0.6573,-0.6627,-0.6638,-0.6638,-0.6785,-0.6986,-0.6991,-0.7122,-0.721,-0.721,-0.721,-0.721,-0.721,-0.7241,-0.7277,-0.7277,-0.7426,-0.7491,-0.7315,-0.7171,-0.7002,-0.7002,-0.704,-0.7194,-0.7809,-0.7974,-0.8136,-0.8649,-0.8608,-0.8459,-0.8354,-0.8306,-0.8085,-0.7658,-0.759,-0.7584,-0.7597,-0.7848,-0.8133,0.0,-0.8459,-0.8459,-0.8459,-0.8601,-0.8588,-0.8326,-0.8208,-0.8133,-0.8038,-0.7816,-0.7758,-0.7872,-0.7872,-0.7872,-0.7872,-0.7872,-0.7872,-0.7872,-0.7872,-0.7872,-0.7872,-0.7877,-0.801,-0.8125,-0.8193,-0.8312,-0.8432,-0.8546,-0.859,-0.859,-0.859,-0.859,-0.859,-0.2068,-0.2124,-0.2174,-0.232,-0.2971,-0.3521,-0.3483,-0.4142,-0.4752,0.0,-0.5834,-0.642,-0.6773,-0.6946,-0.703,-0.6886,-0.7013,0.0,0.0,0.0,0.0,-0.6942,-0.6937,-0.6866,-0.6714,-0.6478,-0.6354,-0.6344,0.0,0.0,-0.5899,0.0,0.0,0.0,0.0,-0.6083,-0.61,-0.6339,-0.6387,-0.6387,-0.6387,-0.6441,-0.6578,-0.6605,-0.673,-0.6893,-0.6893,-0.6931,-0.6997,-0.7139,-0.7188,-0.721,-0.721,-0.721,-0.721,-0.721,-0.7241,-0.7277,-0.7277,-0.7426,-0.7513,-0.7481,-0.7361,-0.7247,-0.7247,-0.7198,-0.7393,-0.8077,-0.8177,-0.8326,-0.8979,-0.892,-0.8737,-0.8472,0.0,0.0,-0.7617,-0.74,-0.7346,-0.757,-0.7665,-0.7828,-0.8126,-0.8153,-0.8153,-0.8153,-0.8296,-0.8431,-0.8434,-0.8169,-0.815,-0.8317,-0.7929,-0.7758,-0.7872,-0.7872,-0.7872,-0.7872,-0.7872,-0.7872,-0.7872,-0.7872,-0.7872,-0.7877,-0.8026,-0.8086,-0.8136,-0.8285,-0.8388,-0.8432,-0.8546,-0.859,-0.859,-0.859,-0.859,-0.859,-0.1221,-0.1298,-0.1332,-0.1054,-0.161,-0.2178,-0.2482,-0.3125,-0.3727,-0.4144,-0.4817,-0.542,-0.5752,-0.6069,-0.6276,-0.6323,-0.6492,0.0,-0.6849,0.0,0.0,-0.7062,-0.7111,-0.7002,-0.6883,-0.6692,0.0,-0.6387,0.0,0.0,-0.5899,0.0,0.0,0.0,0.0,-0.6034,-0.61,-0.6339,-0.6387,-0.6392,-0.6441,-0.6556,0.0,-0.6741,-0.6866,-0.6991,-0.704,-0.7111,-0.7122,-0.7188,-0.721,-0.721,-0.721,-0.721,-0.7221,-0.722,-0.7323,-0.7426,-0.7481,-0.7584,-0.7671,-0.7671,-0.7584,-0.7497,-0.7497,-0.7453,-0.753,-0.8048,-0.822,-0.8431,-0.888,-0.9033,-0.8913,0.0,-0.8038,-0.7692,-0.7692,-0.7489,-0.7428,-0.7665,-0.7692,-0.778,-0.7968,-0.7988,-0.7988,-0.7988,-0.818,-0.8278,-0.8262,-0.8056,-0.7991,-0.82,-0.7819,-0.7703,-0.7872,-0.7872,-0.7872,-0.7872,-0.7872,-0.7872,-0.7872,-0.7872,-0.7872,-0.7877,-0.8065,-0.8147,-0.8149,-0.8339,-0.8448,-0.8497,-0.8562,-0.859,-0.859,-0.859,-0.859,-0.859,-0.0384,-0.0535,-0.0598,0.0,-0.052,-0.0939,-0.1619,-0.2145,-0.2627,-0.3124,-0.3661,-0.4098,-0.4399,-0.4829,-0.5207,-0.5594,-0.58,-0.6165,-0.6818,-0.6786,-0.6826,-0.721,-0.721,-0.7161,-0.7008,-0.6872,-0.6687,0.0,0.0,0.0,0.0,0.0,0.0,0.0,0.0,0.0,0.0,-0.6344,-0.6387,-0.6398,-0.6567,-0.6627,-0.6671,-0.6899,-0.6997,-0.7018,-0.7177,-0.721,-0.721,-0.721,-0.721,-0.721,-0.721,-0.7221,-0.7198,-0.7307,-0.7432,-0.7568,-0.7671,-0.7785,-0.7872,-0.7872,-0.7796,-0.7725,-0.7725,-0.7644,-0.7621,-0.7973,-0.8248,-0.8485,-0.8698,-0.8967,-0.9016,0.0,-0.8119,-0.7834,-0.7814,-0.7692,0.0,0.0,-0.7814,0.0,-0.7975,-0.7975,-0.7961,-0.7961,-0.8133,-0.8173,-0.7949,-0.7843,-0.7834,-0.7945,-0.7682,-0.7633,-0.7867,-0.7872,-0.7872,-0.7872,-0.7872,-0.7872,-0.7872,-0.7872,-0.7939,-0.796,-0.8086,-0.8144,-0.8269,-0.8388,-0.8497,-0.859,-0.859,-0.859,-0.859,-0.859,-0.859,-0.859,-0.0147,-0.0099,0.0,0.0,-0.0105,-0.0213,-0.0325,-0.1035,-0.1649,-0.2006,-0.244,-0.283,-0.3113,-0.3279,-0.3633,-0.4183,-0.4608,-0.5229,-0.6116,-0.6502,-0.6826,-0.721,-0.721,-0.7199,-0.7182,-0.6915,-0.673,-0.6589,-0.6252,-0.6024,-0.5899,-0.5739,0.0,0.0,0.0,0.0,-0.6295,-0.6377,-0.6387,-0.6398,-0.6567,-0.6681,-0.6785,-0.6931,-0.7046,-0.7182,-0.7204,-0.721,-0.721,-0.721,-0.721,-0.721,-0.721,-0.7225,-0.7307,-0.7271,-0.7497,-0.7676,-0.7698,-0.7785,-0.7872,-0.7872,-0.7856,-0.7839,-0.7839,-0.7823,-0.7933,-0.8242,-0.8456,-0.8632,-0.8845,-0.8818,-0.8723,-0.8513,-0.8214,-0.7907,-0.7828,-0.7692,0.0,0.0,-0.7814,-0.7868,-0.7975,-0.7874,-0.7848,-0.7848,-0.7875,-0.7809,-0.7661,-0.7651,-0.7702,-0.7812,-0.7638,-0.7633,-0.7867,-0.7872,-0.7872,-0.7872,-0.7872,-0.7872,-0.7872,-0.7872,-0.7988,-0.8092,-0.8149,-0.8274,-0.8394,-0.8508,-0.8568,-0.859,-0.859,-0.859,-0.859,-0.859,-0.859,-0.859,0.0,0.0,0.0,0.0,0.0,0.0,0.0,-0.0333,-0.0722,-0.1009,-0.1411,-0.1656,-0.1799,-0.2049,-0.2426,-0.3065,-0.3592,-0.4354,-0.5458,-0.5842,-0.632,-0.6932,-0.6932,-0.7043,-0.721,-0.6921,-0.6741,-0.6622,-0.6263,-0.6024,-0.5899,-0.5739,0.0,0.0,0.0,-0.61,0.0,-0.6458,-0.6478,-0.6545,-0.6736,-0.6844,-0.691,-0.7029,-0.7161,-0.721,-0.721,-0.721,-0.721,-0.721,-0.721,-0.7221,-0.723,-0.729,-0.7304,-0.7486,-0.7611,-0.7714,-0.7774,-0.7828,-0.7872,-0.7872,-0.7872,-0.7872,-0.7872,-0.7872,-0.7933,-0.8122,-0.8314,-0.8576,-0.8838,-0.8851,-0.8777,-0.8628,-0.835,-0.8133,-0.8058,-0.7923,-0.7855,0.0,0.0,0.0,-0.7874,-0.7787,-0.7733,-0.7807,-0.7814,-0.768,-0.7385,-0.7498,-0.7582,-0.7511,-0.7478,-0.7606,-0.778,-0.7839,-0.7872,-0.7872,-0.7872,-0.7872,-0.7872,-0.7999,-0.8059,-0.8125,-0.8247,-0.8361,-0.8426,-0.8541,-0.859,-0.859,-0.859,-0.859,-0.859,-0.859,-0.859,-0.859,0.0,0.0,0.0,0.0,0.0,0.0,0.0,0.0,-0.0056,-0.028,-0.0561,-0.0733,-0.0689,-0.092,-0.1389,-0.2058,-0.2609,-0.3444,-0.4704,-0.5085,-0.5652,-0.6492,-0.6659,-0.6826,-0.7099,-0.6948,-0.6768,-0.6622,-0.6312,-0.6072,-0.5899,-0.5812,-0.5723,-0.5734,-0.6018,-0.6192,-0.6317,-0.6529,-0.6632,-0.6676,-0.6899,-0.6986,-0.6997,-0.7166,-0.721,-0.721,-0.721,-0.7226,-0.7192,-0.7192,-0.7192,-0.7209,-0.7307,-0.7315,-0.7453,-0.7644,-0.772,-0.7758,-0.7845,-0.7872,-0.7872,-0.7872,-0.7872,-0.7872,-0.7872,-0.7872,-0.7872,-0.7872,-0.816,-0.8558,-0.8851,-0.8937,-0.8927,-0.8743,-0.8513,-0.8343,-0.8333,-0.8167,-0.8029,0.0,0.0,0.0,-0.7828,-0.7685,-0.7631,-0.7712,-0.7719,-0.7539,-0.7193,-0.7463,-0.7487,-0.7276,-0.7413,-0.761,-0.7698,-0.7812,-0.7872,-0.7872,-0.7872,-0.7883,-0.7977,-0.807,-0.8147,-0.8144,-0.8334,-0.8432,-0.8459,-0.8552,-0.859,-0.859,-0.859,-0.859,-0.859,-0.859,-0.859,-0.8523,0.0,0.0,0.0,0.0,0.0,0.0,0.0,0.0,0.0,-0.0056,-0.0056,-0.0056,-0.0057,-0.0115,-0.0405,-0.1059,-0.1625,-0.2471,-0.3728,-0.4521,-0.521,-0.5875,-0.6437,-0.6715,-0.6771,-0.6926,-0.6855,-0.6622,-0.6425,-0.623,-0.5904,-0.5893,-0.5888,-0.5899,-0.6143,-0.6317,-0.6381,-0.6562,-0.6681,-0.6796,-0.6931,-0.6986,-0.6997,-0.7166,-0.721,-0.721,-0.721,-0.7225,-0.7317,-0.7317,-0.7317,-0.7323,-0.7277,-0.7486,-0.7671,-0.7693,-0.7774,-0.7856,-0.7867,-0.7872,-0.7872,-0.7872,-0.7872,-0.7872,-0.7872,-0.7872,-0.7872,-0.7872,-0.8268,-0.8622,-0.889,-0.9074,-0.9098,-0.8757,-0.8689,-0.8574,-0.8361,-0.8306,-0.8201,-0.8008,0.0,0.0,-0.7828,-0.7685,-0.755,-0.7467,-0.746,-0.7382,-0.7199,-0.7432,-0.7513,-0.7365,-0.7567,-0.7702,-0.7698,-0.7812,-0.7872,-0.7872,-0.7872,-0.7988,-0.8097,-0.8108,-0.8176,-0.8388,-0.841,-0.8475,-0.8573,-0.8584,-0.859,-0.859,-0.859,-0.859,-0.859,-0.859,-0.839,-0.8123,0.0,0.0,0.0,0.0,0.0,0.0,0.0,0.0,0.0,0.0,0.0,0.0,0.0,0.0,-0.017,-0.0629,-0.1024,-0.1642,-0.2491,-0.3204,-0.3918,-0.47,-0.5318,-0.5768,-0.6158,-0.6493,-0.6662,-0.6515,-0.6465,-0.6317,-0.6182,-0.6083,-0.6089,-0.6225,-0.6328,-0.6475,-0.6665,-0.6785,-0.6866,-0.6921,-0.704,-0.7144,-0.715,-0.7193,-0.7198,-0.7263,-0.7263,-0.7339,-0.7448,-0.7448,-0.7448,-0.7459,-0.7535,-0.7622,-0.7714,-0.7785,-0.7834,-0.7872,-0.7872,-0.7872,-0.7872,-0.7872,-0.7872,-0.7872,-0.7872,-0.7872,-0.7872,-0.7872,-0.8199,-0.8552,-0.8716,-0.8871,-0.8997,-0.9008,-0.8825,-0.8669,-0.8554,-0.8384,-0.8248,-0.8187,0.0,-0.7841,-0.7699,-0.755,-0.7441,-0.7419,-0.7455,-0.7436,-0.7208,-0.7596,-0.7767,-0.7511,-0.7921,-0.8125,-0.8113,-0.8383,-0.8488,-0.8488,-0.8564,-0.8629,-0.8688,-0.8585,-0.8556,-0.8519,-0.8519,-0.8546,-0.859,-0.859,-0.859,-0.859,-0.859,-0.8456,-0.8323,-0.8323,-0.7922,-0.7388,0.0,0.0,0.0,0.0,0.0,0.0,0.0,0.0,0.0,0.0,0.0,0.0,0.0,0.0,-0.0056,-0.028,-0.0561,-0.0953,-0.1514,-0.2074,-0.28,-0.3583,-0.4257,-0.4927,-0.5545,-0.6028,-0.6359,-0.6487,-0.6459,-0.646,-0.6446,-0.6323,-0.6333,-0.6441,-0.6478,-0.666,-0.6861,-0.6948,-0.7008,-0.704,-0.7177,-0.7154,-0.7049,-0.7081,-0.7038,-0.7054,-0.7034,-0.7174,-0.7279,-0.7279,-0.7241,-0.7218,-0.7443,-0.7485,-0.7467,-0.7606,-0.7627,-0.7627,-0.7627,-0.7627,-0.7627,-0.775,-0.775,-0.775,-0.7872,-0.7872,-0.7872,-0.7872,-0.8183,-0.8447,-0.8552,-0.8809,-0.9033,-0.9184,-0.8981,-0.8811,-0.8723,-0.8492,-0.8368,-0.8327,-0.8038,-0.7821,-0.7678,-0.7563,-0.7482,-0.7441,-0.7577,-0.7563,-0.7367,-0.7798,-0.793,-0.775,-0.8239,-0.846,-0.8381,-0.8714,-0.8934,-0.8977,-0.9075,-0.9162,-0.9184,-0.9151,-0.8976,-0.8717,-0.8717,-0.8717,-0.859,-0.859,-0.859,-0.859,-0.859,-0.839,-0.8056,-0.7989,-0.7383,-0.6581,0.0,0.0,0.0,0.0,0.0,0.0,0.0,0.0,0.0,0.0,0.0,0.0,0.0,0.0,0.0,0.0,-0.0224,-0.0561,-0.0897,-0.1458,-0.2074,-0.2688,-0.3527,-0.4309,-0.4875,-0.5485,-0.6047,-0.6487,-0.6482,-0.6531,-0.6616,-0.6616,-0.6616,-0.6622,-0.6741,-0.6866,-0.698,-0.6986,-0.7051,-0.721,-0.721,-0.6988,-0.6725,-0.6781,-0.665,-0.6436,-0.6483,-0.6587,-0.6736,-0.6736,-0.6566,-0.6503,-0.701,-0.7054,-0.6898,-0.6898,-0.6903,-0.6903,-0.6903,-0.6903,-0.7021,-0.7327,-0.7388,-0.7505,-0.7811,-0.7872,-0.7872,-0.7872,-0.8183,-0.8447,-0.8552,-0.8885,-0.9144,-0.9198,-0.9207,-0.9098,-0.875,-0.8574,-0.8425,-0.834,-0.8133,-0.7928,-0.7821,-0.7807,-0.7746,-0.7604,-0.7726,-0.7807,-0.7807,-0.7907,-0.7978,-0.8006,-0.8423,-0.8597,-0.8381,-0.8714,-0.8983,-0.9118,-0.9118,-0.926,-0.9525,-0.966,-0.9455,-0.9117,-0.9117,-0.8917,-0.859,-0.859,-0.859,-0.859,-0.859,-0.839,-0.8056,-0.765,-0.6844,-0.5778,0.0,0.0,0.0,0.0,0.0,0.0,0.0,0.0,0.0,0.0,0.0,0.0,0.0,0.0,0.0,0.0,-0.0056,-0.0168,-0.028,-0.0617,-0.1009,-0.1458,-0.213,-0.28,-0.336,-0.4369,-0.5083,-0.5388,-0.6146,-0.6572,-0.6747,-0.6747,-0.679,-0.6872,-0.691,-0.6991,-0.7155,-0.7155,-0.7177,-0.716,-0.7022,-0.6884,-0.6729,-0.6378,-0.6282,-0.6223,-0.6022,-0.6034,-0.6111,-0.5867,-0.5643,-0.5352,-0.5021,-0.5399,-0.5851,-0.5851,-0.5728,-0.5605,-0.579,-0.6035,-0.6276,-0.6648,-0.6898,-0.7082,-0.7204,-0.7388,-0.7627,-0.7872,-0.7994,-0.8227,-0.8733,-0.8768,-0.8887,-0.9283,-0.9275,-0.9139,-0.8893,-0.8642,-0.8465,-0.8418,-0.8099,-0.7862,-0.7814,-0.7726,-0.7733,-0.784,-0.7894,-0.7921,-0.7921,-0.8201,-0.8426,-0.8621,-0.8961,-0.9207,-0.9235,-0.9525,-0.9695,-0.9741,-0.9939,-1.0006,-0.999,-1.0041,-0.9721,-0.9117,-0.9117,-0.8917,-0.859,-0.859,-0.859,-0.859,-0.859,-0.8256,-0.7593,-0.6982,-0.5908,-0.4702,0.0,0.0,0.0,0.0,0.0,0.0,0.0,0.0,0.0,0.0,0.0,0.0,0.0,0.0,0.0,0.0,0.0,0.0,0.0,-0.0168,-0.0393,-0.0673,-0.1177,-0.1738,-0.2354,-0.3304,-0.4145,-0.476,-0.5978,-0.6627,-0.6775,-0.6883,-0.6921,-0.6887,-0.6887,-0.6869,-0.6882,-0.6868,-0.6883,-0.6894,-0.6613,-0.6369,-0.6089,-0.5663,-0.5431,-0.5298,-0.509,-0.5011,-0.4984,-0.4742,-0.4373,-0.3943,-0.3512,-0.3635,-0.4004,-0.4373,-0.4373,-0.4247,-0.4619,-0.4926,-0.5233,-0.5724,-0.6158,-0.6653,-0.7021,-0.7266,-0.7505,-0.7811,-0.7872,-0.8116,-0.8793,-0.8787,-0.8844,-0.9298,-0.9357,-0.9171,-0.8912,-0.8676,-0.8479,-0.8479,-0.8187,-0.7984,-0.7984,-0.7902,-0.795,-0.8187,-0.8153,-0.8201,-0.8319,-0.8554,-0.8743,-0.8878,-0.9279,-0.9537,-0.9686,-0.9869,-1.0044,-1.0222,-1.046,-1.0498,-1.0392,-1.0392,-1.0054,-0.9516,-0.9516,-0.925,-0.8784,-0.8656,-0.8523,-0.839,-0.8256,-0.7722,-0.7058,-0.6313,-0.5104,-0.3765,0.0,0.0,0.0,0.0,0.0,0.0,0.0,0.0,0.0,0.0,0.0,0.0,0.0,0.0,0.0,0.0,0.0,0.0,0.0,0.0,-0.0112,-0.0336,-0.0673,-0.1121,-0.1683,-0.2298,-0.3192,-0.448,-0.5875,-0.6604,-0.6659,-0.6988,-0.6937,-0.6669,-0.6669,-0.6507,-0.6247,-0.628,-0.6317,-0.6269,-0.5968,-0.5538,-0.4954,-0.4677,-0.4222,-0.3686,-0.374,-0.3635,-0.3389,-0.3389,-0.2958,-0.2406,-0.2406,-0.1912,-0.1603,-0.2587,-0.2895,-0.2956,-0.3266,-0.3574,-0.3943,-0.4619,-0.5298,-0.6039,-0.7016,-0.7327,-0.7444,-0.7811,-0.7872,-0.8116,-0.8793,-0.8915,-0.901,-0.937,-0.9381,-0.9279,-0.8925,-0.8682,-0.8499,-0.8499,-0.837,-0.8333,-0.8333,-0.8333,-0.8343,-0.8486,-0.8377,-0.8492,-0.8878,-0.8905,-0.8919,-0.8932,-0.9401,-0.9693,-0.9836,-0.9936,-1.0222,-1.0507,-1.0649,-1.0717,-1.0717,-1.0717,-1.0525,-1.0193,-1.0193,-0.9721,-0.8984,-0.8651,-0.8323,-0.7989,-0.7593,-0.6991,-0.6317,-0.558,-0.437,-0.2959,0.0,0.0,0.0,0.0,0.0,0.0,0.0,0.0,0.0,0.0,0.0,0.0,0.0,0.0,0.0,0.0,0.0,0.0,0.0,0.0,-0.0056,-0.0112,-0.0168,-0.0393,-0.0729,-0.1346,-0.2464,-0.4142,-0.4927,-0.5545,-0.6047,-0.6381,-0.6369,-0.6105,-0.6105,-0.5802,-0.5404,-0.5424,-0.5257,-0.5028,-0.4819,-0.4491,-0.4079,-0.3598,-0.3128,-0.276,-0.2524,-0.2404,-0.2342,-0.2034,-0.1849,-0.1665,-0.1111,-0.0864,-0.0864,-0.1665,-0.1665,-0.1542,-0.1911,-0.2404,-0.296,-0.333,-0.413,-0.493,-0.5728,-0.628,-0.6832,-0.7383,-0.775,-0.8116,-0.8793,-0.8915,-0.901,-0.937,-0.9381,-0.9279,-0.8925,-0.8777,-0.8655,-0.8655,-0.8526,-0.8431,-0.8431,-0.8431,-0.8492,-0.8648,-0.8628,-0.875,-0.9083,-0.9211,-0.9327,-0.9449,-0.9659,-0.9842,-0.993,-1.0256,-1.048,-1.0663,-1.0704,-1.0717,-1.0717,-1.0717,-1.0392,-0.9794,-0.9794,-0.9256,-0.8323,-0.7917,-0.7584,-0.7254,-0.6786,-0.625,-0.558,-0.4839,-0.3629,-0.2353,0.0,0.0,0.0,0.0,0.0,0.0,0.0,0.0,0.0,0.0,0.0,0.0,0.0,0.0,0.0,0.0,0.0,0.0,0.0,0.0,0.0,0.0,0.0,-0.0056,-0.0224,-0.0678,-0.1649,-0.3207,-0.3951,-0.4525,-0.5039,-0.5382,-0.5352,-0.5049,-0.4933,-0.4606,-0.4236,-0.4089,-0.3923,-0.3747,-0.3567,-0.3286,-0.2923,-0.2459,-0.2097,-0.1789,-0.1604,-0.1426,-0.1309,-0.1122,-0.094,-0.0756,-0.0378,-0.0252,-0.0315,-0.0693,-0.0686,-0.0617,-0.0925,-0.1419,-0.1974,-0.259,-0.3391,-0.4189,-0.4988,-0.579,-0.6587,-0.7261,-0.7689,-0.8116,-0.8793,-0.8915,-0.901,-0.937,-0.9381,-0.9279,-0.8925,-0.8804,-0.871,-0.871,-0.8696,-0.8689,-0.8689,-0.875,-0.8852,-0.9008,-0.8954,-0.9042,-0.9347,-0.9503,-0.9618,-0.97,-0.9849,-1.0032,-1.0249,-1.048,-1.0636,-1.0717,-1.0717,-1.0717,-1.0717,-1.0518,-1.0187,-0.9721,-0.9522,-0.879,-0.7784,-0.7245,-0.6715,-0.6183,-0.5644,-0.5111,-0.4574,-0.3833,-0.289,-0.1816,0.0,0.0,0.0,0.0,0.0,0.0,0.0,0.0,0.0,0.0,0.0,0.0,0.0,0.0,0.0,0.0,0.0,0.0,0.0,0.0,0.0,0.0,0.0,0.0,0.0,-0.0287,-0.0929,-0.2059,-0.2941,-0.3469,-0.3822,-0.4171,-0.4118,-0.3836,-0.3541,-0.3251,-0.2907,-0.2706,-0.2601,-0.2483,-0.2337,-0.2043,-0.1733,-0.1427,-0.1118,-0.087,-0.087,-0.0689,-0.0444,-0.0444,-0.0256,0.0,0.0,0.0,0.0,0.0,0.0,-0.0062,-0.0373,-0.0684,-0.1119,-0.205,-0.2793,-0.3598,-0.4527,-0.5579,-0.6566,-0.7229,-0.7654,-0.8139,-0.8738,-0.8793,-0.8944,-0.9195,-0.9265,-0.9164,-0.887,-0.8716,-0.8696,-0.8771,-0.8893,-0.8981,-0.8946,-0.9117,-0.9296,-0.9367,-0.9316,-0.932,-0.9625,-0.9754,-0.9856,-0.9917,-1.0046,-1.0249,-1.0521,-1.0656,-1.0717,-1.0717,-1.0717,-1.0658,-1.0591,-1.0253,-0.9854,-0.9449,-0.905,-0.8251,-0.7116,-0.6443,-0.5778,-0.5111,-0.437,-0.39,-0.3566,-0.2959,-0.222,-0.1548,0.0,0.0,0.0,0.0,0.0,0.0,0.0,0.0,0.0,0.0,0.0,0.0,0.0,0.0,0.0,0.0,0.0,0.0,0.0,0.0,0.0,0.0,0.0,0.0,0.0,-0.0235,-0.0646,-0.1119,-0.1765,-0.2235,-0.2529,-0.2823,-0.2844,-0.2581,-0.2521,-0.2237,-0.1775,-0.1718,-0.1537,-0.1294,-0.1251,-0.1007,-0.0756,-0.0702,-0.0449,-0.0128,-0.0128,-0.0128,-0.0064,-0.0064,-0.0064,0.0,0.0,0.0,0.0,0.0,0.0,0.0,-0.0064,-0.0321,-0.0705,-0.1153,-0.1985,-0.2947,-0.3648,-0.5053,-0.637,-0.6916,-0.7588,-0.8183,-0.8451,-0.8488,-0.8527,-0.8546,-0.8555,-0.8577,-0.8579,-0.852,-0.8663,-0.9069,-0.9159,-0.9171,-0.93,-0.9334,-0.9354,-0.9381,-0.9361,-0.9476,-0.9774,-0.9808,-0.9998,-1.0378,-1.0412,-1.0507,-1.0683,-1.0711,-1.0717,-1.0717,-1.0717,-1.0518,-1.0259,-0.9921,-0.925,-0.8323,-0.7917,-0.6982,-0.5714,-0.5242,-0.4638,-0.4037,-0.3564,-0.3163,-0.2828,-0.2761,-0.2221,-0.1616,0.0,0.0,0.0,0.0,0.0,0.0,0.0,0.0,0.0,0.0,0.0,0.0,0.0,0.0,0.0,0.0,0.0,0.0,0.0,0.0,0.0,0.0,0.0,0.0,0.0,-0.0119,-0.0359,-0.0665,-0.0967,-0.1268,-0.1571,-0.1692,-0.1698,-0.1587,-0.1404,-0.1165,-0.0926,-0.0747,-0.0625,-0.0438,-0.0445,-0.0383,-0.0256,-0.0258,-0.0129,0.0,0.0,0.0,0.0,0.0,0.0,0.0,0.0,0.0,0.0,0.0,0.0,0.0,0.0,-0.0129,-0.0258,-0.0452,-0.1226,-0.2191,-0.29,-0.438,-0.5781,-0.6379,-0.7131,-0.7607,-0.7619,-0.766,-0.7643,-0.7768,-0.7724,-0.7838,-0.8115,-0.8312,-0.8565,-0.8979,-0.9231,-0.9429,-0.9496,-0.9571,-0.9618,-0.9618,-0.9693,-0.968,-0.963,-0.9781,-0.9895,-0.9902,-1.0372,-1.0649,-1.0717,-1.0525,-1.0452,-1.0452,-1.0259,-0.9987,-0.9588,-0.9056,-0.8251,-0.7183,-0.6581,-0.5644,-0.4507,-0.4101,-0.3631,-0.3163,-0.2827,-0.2558,-0.2425,-0.2155,-0.1885,-0.1616,0.0,0.0,0.0,0.0,0.0,0.0,0.0,0.0,0.0,0.0,0.0,0.0,0.0,0.0,0.0,0.0,0.0,0.0,0.0,0.0,0.0,0.0,0.0,0.0,0.0,0.0,-0.0122,-0.037,-0.037,-0.0494,-0.0741,-0.0741,-0.0742,-0.0745,-0.0497,-0.0373,-0.0375,-0.0126,0.0,0.0,0.0,0.0,0.0,0.0,0.0,0.0,0.0,0.0,0.0,0.0,0.0,0.0,0.0,0.0,0.0,0.0,0.0,0.0,0.0,0.0,0.0,0.0,-0.0782,-0.1694,-0.2342,-0.3774,-0.5069,-0.5634,-0.6275,-0.6695,-0.6534,-0.6517,-0.6576,-0.6742,-0.6769,-0.6966,-0.7476,-0.7863,-0.8282,-0.8786,-0.9268,-0.9553,-0.9707,-0.9842,-0.9862,-0.9801,-0.9784,-0.9675,-0.94,-0.9472,-0.9335,-0.8972,-0.993,-1.0386,-1.0319,-1.0054,-0.9854,-0.9655,-0.9455,-0.9056,-0.8584,-0.7984,-0.7116,-0.5975,-0.5379,-0.4507,-0.3499,-0.323,-0.2894,-0.2559,-0.229,-0.2223,-0.2154,-0.1885,-0.175,-0.175,0.0,0.0,0.0,0.0,0.0,0.0,0.0,0.0,0.0,0.0,0.0,0.0,0.0,0.0,0.0,0.0,0.0,0.0,0.0,0.0,0.0,0.0,0.0,0.0,0.0,0.0,0.0,-0.0062,-0.0062,-0.0062,-0.0062,-0.0062,-0.0062,-0.0063,-0.0063,-0.0064,-0.0064,0.0,0.0,0.0,0.0,0.0,0.0,0.0,0.0,0.0,0.0,0.0,0.0,0.0,0.0,0.0,0.0,0.0,0.0,0.0,0.0,0.0,0.0,0.0,0.0,0.0,-0.0805,-0.1678,-0.2144,-0.335,-0.4473,-0.4741,-0.5122,-0.5295,-0.5158,-0.5144,-0.522,-0.5436,-0.541,-0.5718,-0.649,-0.6871,-0.7493,-0.8497,-0.9052,-0.9496,-0.9943,-1.0154,-1.0116,-0.9722,-0.9418,-0.916,-0.8968,-0.8334,-0.7863,-0.7631,-0.905,-0.9594,-0.925,-0.9183,-0.8845,-0.8179,-0.8112,-0.7779,-0.7116,-0.6711,-0.5908,-0.4906,-0.4507,-0.377,-0.2761,-0.2761,-0.2559,-0.2223,-0.2223,-0.2223,-0.2223,-0.2154,-0.2154,-0.2154,0.0,0.0,0.0,0.0,0.0,0.0,0.0,0.0,0.0,0.0,0.0,0.0,0.0,0.0,0.0,0.0,0.0,0.0,0.0,0.0,0.0,0.0,0.0,0.0,0.0,0.0,0.0,0.0,0.0,0.0,0.0,0.0,0.0,0.0,0.0,0.0,0.0,0.0,0.0,0.0,0.0,0.0,0.0,0.0,0.0,0.0,0.0,0.0,0.0,0.0,0.0,0.0,0.0,0.0,0.0,0.0,0.0,0.0,0.0,0.0,0.0,0.0,-0.0471,-0.1009,-0.1413,-0.2286,-0.3155,-0.3673,-0.4067,-0.4317,-0.4191,-0.418,-0.4217,-0.4195,-0.4371,-0.4797,-0.5551,-0.6284,-0.6979,-0.7583,-0.8443,-0.8992,-0.9172,-0.9285,-0.9252,-0.9124,-0.8618,-0.8231,-0.7953,-0.7092,-0.6477,-0.6176,-0.6711,-0.7379,-0.8112,-0.7917,-0.7517,-0.6973,-0.6777,-0.6309,-0.5644,-0.5238,-0.4635,-0.3765,-0.3432,-0.2963,-0.2357,-0.2357,-0.229,-0.2223,-0.2223,-0.2223,-0.2223,-0.2223,-0.2223,-0.2223,0.0,0.0,0.0,0.0,0.0,0.0,0.0,0.0,0.0,0.0,0.0,0.0,0.0,0.0,0.0,0.0,0.0,0.0,0.0,0.0,0.0,0.0,0.0,0.0,0.0,0.0,0.0,0.0,0.0,0.0,0.0,0.0,0.0,0.0,0.0,0.0,0.0,0.0,0.0,0.0,0.0,0.0,0.0,0.0,0.0,0.0,0.0,0.0,0.0,0.0,0.0,0.0,0.0,0.0,0.0,0.0,0.0,0.0,0.0,0.0,0.0,0.0,-0.0269,-0.0606,-0.0875,-0.1413,-0.2018,-0.2556,-0.2892,-0.3153,-0.3189,-0.3249,-0.3235,-0.3187,-0.344,-0.3888,-0.4511,-0.5404,-0.611,-0.6562,-0.7488,-0.8156,-0.8221,-0.8318,-0.8275,-0.8145,-0.7566,-0.6885,-0.6225,-0.5615,-0.5108,-0.4702,-0.4702,-0.5171,-0.6109,-0.6246,-0.6046,-0.5573,-0.5376,-0.4906,-0.4303,-0.4034,-0.3631,-0.3028,-0.2828,-0.2492,-0.2223,-0.2223,-0.2223,-0.2223,-0.2223,-0.2223,-0.2223,-0.2223,-0.2228,-0.2169,0.0,0.0,0.0,0.0,0.0,0.0,0.0,0.0,0.0,0.0,0.0,0.0,0.0,0.0,0.0,0.0,0.0,0.0,0.0,0.0,0.0,0.0,0.0,0.0,0.0,0.0,0.0,0.0,0.0,0.0,0.0,0.0,0.0,0.0,0.0,0.0,0.0,0.0,0.0,0.0,0.0,0.0,0.0,0.0,0.0,0.0,0.0,0.0,0.0,0.0,0.0,0.0,0.0,0.0,0.0,0.0,0.0,0.0,0.0,0.0,0.0,0.0,-0.0269,-0.0471,-0.0471,-0.0808,-0.1212,-0.1548,-0.1616,-0.175,-0.2154,-0.2223,-0.2278,-0.2577,-0.2572,-0.2821,-0.3424,-0.4123,-0.483,-0.5536,-0.632,-0.6902,-0.7224,-0.7384,-0.7316,-0.6987,-0.6313,-0.5242,-0.3835,-0.3768,-0.3633,-0.3228,-0.3161,-0.3161,-0.3161,-0.4235,-0.4437,-0.3768,-0.3768,-0.3566,-0.3161,-0.3161,-0.3028,-0.2694,-0.2694,-0.2492,-0.2223,-0.2223,-0.2223,-0.2223,-0.2223,-0.2223,-0.2223,-0.2223,-0.2174,-0.22,0.0,0.0,0.0,0.0,0.0,0.0,0.0,0.0,0.0,0.0,0.0,0.0,0.0,0.0,0.0,0.0,0.0,0.0,0.0,0.0,0.0,0.0,0.0,0.0,0.0,0.0,0.0,0.0,0.0,0.0,0.0,0.0,0.0,0.0,0.0,0.0,0.0,0.0,0.0,0.0,0.0,0.0,0.0,0.0,0.0,0.0,0.0,0.0,0.0,0.0,0.0,0.0,0.0,0.0,0.0,0.0,0.0,0.0,0.0,0.0,0.0,0.0,-0.0067,-0.0135,-0.0135,-0.0269,-0.0471,-0.1144,-0.1279,-0.1414,-0.2087,-0.2223,-0.2218,-0.2277,-0.2543,-0.274,-0.2927,-0.3587,-0.4118,-0.4317,-0.4996,-0.5408,-0.5541,-0.5563,-0.5577,-0.5443,-0.4839,-0.4037,-0.3098,-0.303,-0.2894,-0.249,-0.249,-0.249,-0.249,-0.3295,-0.343,-0.303,-0.303,-0.2827,-0.249,-0.249,-0.2423,-0.2357,-0.2357,-0.229,-0.2223,-0.2223,-0.2223,-0.2223,-0.2223,-0.2168,-0.2187,-0.2187,-0.2206,-0.2232,0.0,0.0,0.0,0.0,0.0,0.0,0.0,0.0,0.0,0.0,0.0,0.0,0.0,0.0,0.0,0.0,0.0,0.0,0.0,0.0,0.0,0.0,0.0,0.0,0.0,0.0,0.0,0.0,0.0,0.0,0.0,0.0,0.0,0.0,0.0,0.0,0.0,0.0,0.0,0.0,0.0,0.0,0.0,0.0,0.0,0.0,0.0,0.0,0.0,0.0,0.0,0.0,0.0,0.0,0.0,0.0,0.0,0.0,0.0,0.0,0.0,0.0,0.0,0.0,0.0,0.0,-0.0202,-0.0943,-0.1077,-0.1346,-0.2087,-0.2223,-0.2223,-0.2223,-0.2357,-0.2492,-0.2492,-0.303,-0.3365,-0.3365,-0.3835,-0.4168,-0.4168,-0.4168,-0.4101,-0.3969,-0.3566,-0.3098,-0.2559,-0.2492,-0.2425,-0.2223,-0.2223,-0.2223,-0.2223,-0.2625,-0.2692,-0.2492,-0.2492,-0.2425,-0.2223,-0.2223,-0.2223,-0.2223,-0.2223,-0.2223,-0.2223,-0.2223,-0.2223,-0.2223,-0.2168,-0.2184,-0.2202,-0.2214,-0.2237,-0.2263,0.0,0.0,0.0,0.0,0.0,0.0,0.0,0.0,0.0,0.0,0.0,0.0,0.0,0.0,0.0,0.0,0.0,0.0,0.0,0.0,0.0,0.0,0.0,0.0,0.0,0.0,0.0,0.0,0.0,0.0,0.0,0.0,0.0,0.0,0.0,0.0,0.0,0.0,0.0,0.0,0.0,0.0,0.0,0.0,0.0,0.0,0.0,0.0,0.0,0.0,0.0,0.0,0.0,0.0,0.0,0.0,0.0,0.0,0.0,0.0,0.0,0.0,0.0,0.0,0.0,0.0,-0.0269,-0.0943,-0.1144,-0.1346,-0.2087,-0.2223,-0.2223,-0.2223,-0.2223,-0.2223,-0.2223,-0.2492,-0.2627,-0.2627,-0.2894,-0.3094,-0.3094,-0.3094,-0.2961,-0.2694,-0.2627,-0.2492,-0.2223,-0.2223,-0.2223,-0.2223,-0.2223,-0.2223,-0.2223,-0.2223,-0.2223,-0.2223,-0.2223,-0.2223,-0.2223,-0.2223,-0.2223,-0.2223,-0.2223,-0.2223,-0.2223,-0.2225,-0.2227,-0.223,-0.2192,-0.2206,-0.2211,-0.2238,-0.2268,-0.2294,0.0,0.0,0.0,0.0,0.0,0.0,0.0,0.0,0.0,0.0,0.0,0.0,0.0,0.0,0.0,0.0,0.0,0.0,0.0,0.0,0.0,0.0,0.0,0.0,0.0,0.0,0.0,0.0,0.0,0.0,0.0,0.0,0.0,0.0,0.0,0.0,0.0,0.0,0.0,0.0,0.0,0.0,0.0,0.0,0.0,0.0,0.0,0.0,0.0,0.0,0.0,0.0,0.0,0.0,0.0,0.0,0.0,0.0,0.0,0.0,0.0,0.0,0.0,0.0,0.0,-0.0202,-0.0539,-0.101,-0.1279,-0.1616,-0.2087,-0.2223,-0.2223,-0.2223,-0.2223,-0.2223,-0.2223,-0.229,-0.229,-0.229,-0.2356,-0.2423,-0.2423,-0.2423,-0.2356,-0.229,-0.229,-0.229,-0.2223,-0.2223,-0.2223,-0.2223,-0.2223,-0.2223,-0.2223,-0.2223,-0.2223,-0.2223,-0.2223,-0.2223,-0.2223,-0.2223,-0.2223,-0.2223,-0.2223,-0.2223,-0.2224,-0.218,-0.2191,-0.2193,-0.2223,-0.2251,-0.2273,-0.2278,-0.23,-0.2323,0.0,0.0,0.0,0.0,0.0,0.0,0.0,0.0,0.0,0.0,0.0,0.0,0.0,0.0,0.0,0.0,0.0,0.0,0.0,0.0,0.0,0.0,0.0,0.0,0.0,0.0,0.0,0.0,0.0,0.0,0.0,0.0,0.0,0.0,0.0,0.0,0.0,0.0,0.0,0.0,0.0,0.0,0.0,0.0,0.0,0.0,0.0,0.0,0.0,0.0,0.0,0.0,0.0,0.0,0.0,0.0,0.0,0.0,0.0,0.0,0.0,0.0,-0.0135,-0.0269,-0.0269,-0.0404,-0.0673,-0.1212,-0.1481,-0.175,-0.2154,-0.2223,-0.2223,-0.2223,-0.2223,-0.2223,-0.2223,-0.2223,-0.2223,-0.2223,-0.2223,-0.2223,-0.2223,-0.2223,-0.2223,-0.2223,-0.2223,-0.2223,-0.2223,-0.2223,-0.2223,-0.2223,-0.2223,-0.2223,-0.2223,-0.2223,-0.2223,-0.2223,-0.2223,-0.2223,-0.2223,-0.2223,-0.223,-0.2176,-0.2176,-0.2185,-0.2199,-0.2215,-0.2222,-0.2225,-0.2255,-0.2277,-0.2293,-0.2305,-0.232,-0.2333,0.0,0.0,0.0,0.0,0.0,0.0,0.0,0.0,0.0,0.0,0.0,0.0,0.0,0.0,0.0,0.0,0.0,0.0,0.0,0.0,0.0,0.0,0.0,0.0,0.0,0.0,0.0,0.0,0.0,0.0,0.0,0.0,0.0,0.0,0.0,0.0,0.0,0.0,0.0,0.0,0.0,0.0,0.0,0.0,0.0,0.0,0.0,0.0,0.0,0.0,0.0,0.0,0.0,0.0,0.0,0.0,0.0,0.0,0.0,0.0,0.0,-0.0067,-0.0269,-0.0539,-0.0673,-0.0673,-0.0875,-0.1481,-0.1683,-0.1818,-0.2154,-0.2223,-0.2223,-0.2223,-0.2223,-0.2223,-0.2223,-0.2223,-0.2223,-0.2223,-0.2223,-0.2223,-0.2223,-0.2223,-0.2223,-0.2223,-0.2223,-0.2223,-0.2223,-0.2223,-0.2223,-0.2223,-0.2223,-0.2223,-0.2223,-0.2227,-0.223,-0.223,-0.2168,-0.2168,-0.223,-0.2168,-0.2184,-0.2207,-0.2207,-0.2222,-0.2175,-0.218,-0.2183,-0.2256,-0.2286,-0.2298,-0.2301,-0.2324,-0.2333,-0.2333,0.0,0.0,0.0,0.0,0.0,0.0,0.0,0.0,0.0,0.0,0.0,0.0,0.0,0.0,0.0,0.0,0.0,0.0,0.0,0.0,0.0,0.0,0.0,0.0,0.0,0.0,0.0,0.0,0.0,0.0,0.0,0.0,0.0,0.0,0.0,0.0,0.0,0.0,0.0,0.0,0.0,0.0,0.0,0.0,0.0,0.0,0.0,0.0,0.0,0.0,0.0,0.0,0.0,0.0,0.0,0.0,0.0,0.0,0.0,0.0,-0.0067,-0.0337,-0.0471,-0.0673,-0.1279,-0.1481,-0.1481,-0.1548,-0.1885,-0.2154,-0.2223,-0.2223,-0.2223,-0.2223,-0.2223,-0.2223,-0.2223,-0.2223,-0.2223,-0.2223,-0.2223,-0.2223,-0.2223,-0.2223,-0.2223,-0.2223,-0.2223,-0.2223,-0.2223,-0.2223,-0.2223,-0.2223,-0.2223,-0.2223,-0.2223,-0.2181,-0.2193,-0.2193,-0.2221,-0.2219,-0.2195,-0.2221,-0.2166,-0.2169,-0.2169,-0.2171,-0.2178,-0.2274,-0.2285,-0.2288,-0.2316,-0.2327,-0.2327,-0.2331,-0.2333,-0.2333,0.0,0.0,0.0,0.0,0.0,0.0,0.0,0.0,0.0,0.0,0.0,0.0,0.0,0.0,0.0,0.0,0.0,0.0,0.0,0.0,0.0,0.0,0.0,0.0,0.0,0.0,0.0,0.0,0.0,0.0,0.0,0.0,0.0,0.0,0.0,0.0,0.0,0.0,0.0,0.0,0.0,0.0,0.0,0.0,0.0,0.0,0.0,0.0,0.0,0.0,0.0,0.0,0.0,0.0,0.0,0.0,0.0,0.0,0.0,0.0,-0.0067,-0.0404,-0.0673,-0.0943,-0.1481,-0.175,-0.1952,-0.1952,-0.2087,-0.2223,-0.2223,-0.2223,-0.2223,-0.2223,-0.2223,-0.2223,-0.2223,-0.2223,-0.2223,-0.2223,-0.2223,-0.2223,-0.2223,-0.2223,-0.2223,-0.2223,-0.2223,-0.2223,-0.2223,-0.2223,-0.223,-0.218,-0.218,-0.2188,-0.2206,-0.2218,-0.2225,-0.2226,-0.2256,-0.2255,-0.2226,-0.2169,-0.2255,-0.2271,-0.2271,-0.2279,-0.2224,-0.2308,-0.2315,-0.2316,-0.2328,-0.2333,-0.2333,-0.2333,-0.2333,-0.2333]}]]